     2              OBSERVATION DATA    GPS                 RINEX VERSION / TYPE
ASHTORIN MIT 05 - JUN - 97 21:02                            PGM / RUN BY / DATE
                                                            COMMENT
--> THIS IS THE START OF A NEW SITE <---                    COMMENT
--> THIS IS THE START OF A NEW SITE <---                    COMMENT
Original Marker Name: GS22                                  COMMENT
Campaign Name: China Lake May 1997                          COMMENT
4-Character Station Name: GS22                              COMMENT
6-Character Antenna Code: ASHGD3                            COMMENT
Vertical Measurement Point: TGP                             COMMENT
Vertical Offset to Rinex Ref. Point: 0.0640                 COMMENT
Radial Measurement Point: RRP                               COMMENT
Radial Offset to Rinex Ref. Point: 0.0000                   COMMENT
Antenna Height from Field Measurement: 0.1980 m             COMMENT
Additional Antenna Identification Info.:                    COMMENT
The Whopper (700718AB)                                      COMMENT
Original XYZ: -2435897.9000 -4555584.6800 3731282.9400      COMMENT
New XYZ position is based on association with SCEC monument COMMENT
E1F4E2W0+0011. Position of that monument is believed to be  COMMENT
valid to within 1 m horizontally; vertical accuracy         COMMENT
should be no worse than 3-times this value.                 COMMENT
                                                            COMMENT
Revised Rinex header created by UCSD GPS archive for        COMMENT
GSAC on 01-Aug-2000 (2000:214) 04:40:29 GMT                 COMMENT
For assistance contact dagnew@ucsd.edu                      COMMENT
or anderson@python.ucsd.edu                                 COMMENT
                                                            COMMENT
GO22 BLM CACA 36488                                         MARKER NAME
gs22                                                        MARKER NUMBER
KEA US DEFENSE MAPPING AGENCY                               OBSERVER / AGENCY
448 ASHTECH Z-XII3 1G001C7                                  REC # / TYPE / VERS
812 ASHTECH GEODETIC III                                    ANT # / TYPE
 -2428156.3178 -4572571.9450  3715168.8505                  APPROX POSITION XYZ
        0.1340        0.0000        0.0000                  ANTENNA: DELTA H/E/N
     1     1     0                                          WAVELENGTH FACT L1/2
     7    L1    L2    C1    P1    P2    D1    D2            # / TYPES OF OBSERV
    30                                                      INTERVAL
  1997     4    29    15    25    0.000000                  TIME OF FIRST OBS
  1997     4    29    21    30    0.000000                  TIME OF LAST OBS
                                                            END OF HEADER
 97  4 29 15 25  0.0000000  0  7 19  2 18 31  7 27 10               -0.001136128
     38669.66019     22399.95358  18327219.405           0.0005   18327228.7895
     -1417.282       -1104.376
    -37186.20219    -24930.73556  18713867.982           0.0005          0.0005
      1226.752         955.911
     92752.01119     56329.69453  20243863.411           0.0005          0.0005
     -3559.717       -2773.805
     67828.95119     39719.87657  19870511.132           0.0005   19870517.9995
     -2512.616       -1957.883
    -92429.36919    -56516.37553  20753541.253           0.0005          0.0005
      3568.228        2780.437
    -28106.88319    -16791.96356  17533264.296           0.0005          0.0005
      1045.841         814.941
     31635.01119     18263.52952  21421254.272           0.0005          0.0005
     -1640.920       -1278.639
 97  4 29 15 25 30.0000000  3  2
GS22                                                        MARKER NAME
--> THIS IS THE START OF A NEW SITE <---                    COMMENT
 97  4 29 15 25 30.0000000  0  7 19  2 18 31  7 27 10               -0.001137099
     81304.019 9     55621.51648  18335333.321    18335334.4235   18335341.8614
     -1425.511       -1110.788
    -73866.155 9    -53659.83754  18706887.832           0.0004          0.0005
      1218.030         949.114
    199614.451 9    139599.11357  20264196.060           0.0005   20264206.9945
     -3564.970       -2777.899
    143394.057 9     98601.75347  19884888.458    19884890.3735   19884897.5454
     -2525.669       -1968.054
   -199460.178 9   -139916.84556  20733171.974           0.0005   20733183.4595
      3566.436        2779.041
    -59344.461 9    -41540.24554  17527319.355           0.0004          0.0005
      1036.155         807.394
     80984.235 9     56717.35156  21430642.732           0.0005   21430652.7505
     -1649.752       -1285.521
 97  4 29 15 26  0.0000000  0  7 19  2 18 31  7 27 10                0.000473456
    124198.225 9     89045.55748  21341420.439    21341421.4884   21341428.9714
     -1434.907       -1118.109
   -110247.931 9    -82450.20254  21697888.790           0.0004          0.0005
      1208.600         941.766
    306622.463 9    222981.94347  23282485.026    23282485.8005   23282494.4514
     -3570.961       -2782.567
    219357.745 9    157794.20347  22897268.518    22897270.4634   22897277.6014
     -2540.212       -1979.386
   -306362.470 9   -223217.28646  23710757.167    23710755.8965   23710765.2634
      3562.856        2776.251
    -90249.478 9    -66153.22856  20519363.606           0.0004          0.0005
      1025.185         798.845
    130620.128 9     95394.63546  24438013.265    24438013.5235   24438022.8824
     -1660.409       -1293.825
 97  4 29 15 26 30.0000000  0  7 19  2 18 31  7 27 10                0.000472472
    167381.617 9    122694.94058  21349638.152    21349639.0555   21349646.5155
     -1443.811       -1125.048
   -146370.079 9    -22485.08656  21691015.961           0.0005          0.0005
      1199.828         934.931
    413829.70919    306519.89457  23302890.729    23302887.2585   23302895.2895
     -3575.995       -2786.490
    295784.886 9    217347.78357  22911809.744    22911814.1085   22911821.2335
     -2554.648       -1990.635
   -413201.856 9   -306468.73256  23690430.434    23690425.3285   23690433.7195
      3559.962        2773.996
   -120839.764 9    -14500.66258  20513542.081           0.0005   20513549.8775
      1014.356         790.407
    180602.019 9    134341.52456  24447523.201    24447524.9405   24447534.1395
     -1671.552       -1302.508
 97  4 29 15 27  0.0000000  0  7 19  2 18 31  7 27 10                0.000471483
    210823.323 9    156545.60348  21357904.821    21357905.7404   21357913.2134
     -1452.240       -1131.616
   -182250.098 9    -50678.73855  21684188.131           0.0004          0.0005
      1192.388         929.134
    521180.319 9    390169.59357  23323316.746    23323315.4655   23323323.5955
     -3580.632       -2790.103
    372639.746 9    277234.66647  22926436.893    22926439.1354   22926446.2624
     -2568.878       -2001.723
   -519959.747 9   -389656.66046  23670112.984    23670109.7904   23670118.5064
      3557.420        2772.015
   -151115.409 9    -38092.07948  20507780.894    20507781.7875   20507788.6954
      1004.166         782.467
    230918.899 9    173549.44046  24457099.056    24457099.9664   24457109.0864
     -1682.660       -1311.164
 97  4 29 15 27 30.0000000  0  7 19  2 18 31  7 27 10                0.000470500
    254525.230 9    190599.01948  21366220.964    21366221.9534   21366229.4424
     -1462.042       -1139.254
   -217917.922 9    -78803.09154  21677400.671           0.0004          0.0005
      1184.960         923.345
    628667.608 9    473925.87847  23343770.122    23343769.6464   23343777.8944
     -3585.967       -2794.260
    449925.211 9    337457.07247  22941144.549    22941146.1064   22941153.1974
     -2584.176       -2013.644
   -626624.804 9   -472772.26046  23649813.234    23649812.1614   23649820.9044
      3552.897        2768.491
   -181089.013 9    -61448.13948  20502077.240    20502078.0074   20502084.9424
       993.572         774.212
    281563.225 9    213012.49246  24466736.763    24466737.2954   24466746.3674
     -1694.170       -1320.132
 97  4 29 15 28  0.0000000  0  7 19  2 18 31  7 27 10                0.000469551
    298549.436 9    224903.58148  21374598.499    21374599.5094   21374607.0074
     -1472.713       -1147.569
   -253361.839 9    -20085.26557  21670655.858           0.0005          0.0005
      1177.985         917.910
    736339.542 9    557826.03746  23364258.993    23364258.9744   23364267.2384
     -3592.019       -2798.976
    527679.198 9    398044.56347  22955940.902    22955942.2254   22955949.3474
     -2599.292       -2025.422
   -733136.961 9   -555768.71646  23629543.963    23629543.5564   23629552.3804
      3548.031        2764.699
   -210735.123 9    -84549.01448  20496435.714    20496436.5544   20496443.4914
       982.987         765.964
    332558.443 9    252749.00046  24476441.005    24476441.4324   24476450.5474
     -1705.191       -1328.720
 97  4 29 15 28 30.0000000  0  7 19  2 18 31  7 27 10                0.000468617
    342884.966 9    259450.73348  21383035.302    21383036.3164   21383043.8484
     -1483.064       -1155.634
   -288592.454 9    -47554.47558  21663951.616           0.0005   21663959.7735
      1170.491         912.071
    844184.316 9    641860.89046  23384781.128    23384781.2514   23384789.4004
     -3597.793       -2803.475
    605875.125 9    458976.42647  22970821.332    22970822.4504   22970829.6214
     -2613.940       -2036.836
   -839505.471 9   -638653.24046  23609302.342    23609302.3024   23609311.1784
      3543.097        2760.855
   -240072.084 9   -107408.98848  20490853.123    20490853.9414   20490860.8964
       972.615         757.882
    383863.030 9    292726.56146  24486204.089    24486204.4234   24486213.5934
     -1715.080       -1336.426
 97  4 29 15 29  0.0000000  0  7 19  2 18 31  7 27 10                0.000467694
    387549.064 9    294253.91148  21391534.640    21391535.6814   21391543.2224
     -1494.701       -1164.702
   -323589.737 9    -74825.07248  21657291.841    21657292.5885   21657300.1504
      1162.325         905.708
    952219.354 9    726044.00346  23405339.531    23405339.7674   23405347.8624
     -3604.772       -2808.913
    684520.202 9    520258.27347  22985786.972    22985788.1554   22985795.3344
     -2629.374       -2048.863
   -945712.060 9   -721411.60546  23589091.576    23589091.9054   23589100.7674
      3537.178        2756.243
   -269091.639 9   -130021.62948  20485330.922    20485331.7244   20485338.7044
       961.819         749.469
    435459.389 9    332931.47046  24496022.579    24496022.9844   24496032.1384
     -1724.959       -1344.124
 97  4 29 15 29 30.0000000  0  7 19  2 18 31  7 27 10                0.000466792
    432552.790 9    329321.73148  21400098.545    21400099.6194   21400107.1934
     -1505.716       -1173.285
   -358336.713 9   -101900.63048  21650679.764    21650680.5304   21650688.0844
      1153.902         899.144
   1060458.473 9    810386.13446  23425936.726    23425937.0364   23425945.2264
     -3611.329       -2814.023
    763626.903 9    581899.82647  23000840.681    23000841.7084   23000848.8684
     -2644.665       -2060.778
  -1051740.870 9   -804031.43446  23568914.890    23568915.2064   23568924.1674
      3531.186        2751.573
   -297794.905 9   -152387.81748  20479868.866    20479869.6824   20479876.6814
       951.536         741.457
    487342.159 9    373359.55446  24505895.709    24505895.9884   24505905.1724
     -1734.365       -1351.453
 97  4 29 15 30  0.0000000  0  8 19  2 18 31  7 27 10 15             0.000465919
    477900.831 9    364657.84948  21408727.992    21408729.1064   21408736.6754
     -1517.219       -1182.249
   -392801.159 9   -128756.03848  21644121.462    21644122.1514   21644129.7254
      1143.570         891.094
   1168905.419 9    894890.19446  23446573.332    23446573.8004   23446582.1264
     -3618.187       -2819.366
    843207.879 9    643910.93947  23015984.569    23015985.4994   23015992.6724
     -2660.484       -2073.104
  -1157577.640 9   -886501.63446  23548774.621    23548775.2074   23548784.2264
      3524.692        2746.513
   -326168.948 9   -174497.46248  20474469.512    20474470.2904   20474477.3144
       940.149         732.584
    539530.194 9    414025.51746  24515826.934    24515827.1184   24515836.2914
     -1744.726       -1359.527
   -611916.10818   -464787.77455  25247506.472    25247505.9825   25247515.6125
      2442.872        1903.537
 97  4 29 15 30 30.0000000  0  8 19  2 18 31  7 27 10 15             0.000465075
    523594.666 9    400263.41448  21417423.266    21417424.4034   21417431.9734
     -1529.359       -1191.708
   -426932.719 9   -155352.04948  21637626.379    21637627.0834   21637634.6774
      1131.783         881.909
   1277558.205 9    979554.65546  23467249.094    23467249.7414   23467258.1064
     -3625.624       -2825.162
    923260.767 9    706289.77347  23031218.358    23031219.0884   23031226.2724
     -2676.712       -2085.750
  -1263216.219 9   -968817.39246  23528672.114    23528672.9064   23528681.8974
      3517.733        2741.091
   -354194.888 9   -196335.85748  20469136.394    20469137.1644   20469144.2064
       928.000         723.117
    592040.661 9    454942.71146  24525819.418    24525819.5804   24525828.7444
     -1756.326       -1368.566
   -685102.358 8   -521815.97745  25233579.868    25233579.1294   25233588.8264
      2435.927        1898.125
 97  4 29 15 31  0.0000000  0  8 19  2 18 31  7 27 10 15             0.000464304
    569697.824 9    436187.93348  21426196.473    21426197.5844   21426205.1694
     -1544.359       -1203.397
   -460675.194 9   -181644.88048  21631205.417    21631206.1304   21631213.7104
      1117.643         870.891
   1386479.469 9   1064428.33346  23487976.193    23487976.8794   23487985.1834
     -3635.796       -2833.088
   1003838.699 9    769077.74247  23046552.084    23046552.5904   23046559.8304
     -2695.297       -2100.231
  -1368604.567 9  -1050938.16446  23508617.542    23508618.1554   23508627.1804
      3508.173        2733.641
   -381816.455 9   -217859.15948  20463880.199    20463880.9964   20463888.0534
       913.384         711.728
    644954.909 9    496174.54846  24535888.749    24535888.8634   24535898.0224
     -1771.463       -1380.361
   -758041.692 8   -578651.76045  25219699.559    25219699.1804   25219708.9644
      2426.456        1890.745
 97  4 29 15 31 30.0000000  0  8 19  2 18 31  7 27 10 15             0.000463638
    616259.463 9    472469.70748  21435056.882    21435057.9994   21435065.5944
     -1559.880       -1215.491
   -493977.376 9   -207594.62248  21624868.391    21624868.9804   21624876.5414
      1102.424         859.032
   1495706.315 9   1149540.12046  23508761.223    23508762.0924   23508770.3674
     -3646.140       -2841.148
   1084982.975 9    832307.01447  23061992.955    23061993.9064   23062001.1704
     -2714.375       -2115.097
  -1473693.688 9  -1132825.77946  23488619.532    23488620.4034   23488629.3904
      3497.638        2725.432
   -408988.981 9   -239032.55948  20458709.400    20458710.2494   20458717.2944
       897.930         699.686
    698337.062 9    537770.98046  24546047.072    24546047.2024   24546056.3344
     -1787.429       -1392.802
   -830686.725 8   -635258.22845  25205875.801    25205875.3164   25205884.9074
      2416.372        1882.887
 97  4 29 15 32  0.0000000  0  8 19  2 18 31  7 27 10 15             0.000463085
    663301.561 9    509125.86948  21444008.771    21444009.8894   21444017.4534
     -1576.159       -1228.176
   -526810.016 9   -233178.48748  21618620.521    21618621.1284   21618628.7404
      1086.414         846.556
   1605255.316 9   1234902.93146  23529607.894    23529608.5604   23529616.8774
     -3657.228       -2849.788
   1166696.397 9    895979.76947  23077542.753    23077543.5024   23077550.8084
     -2733.356       -2129.888
  -1578463.283 9  -1214464.41146  23468682.644    23468683.4764   23468692.3814
      3486.954        2717.107
   -435681.105 9   -259831.61848  20453630.104    20453630.9244   20453637.9684
       881.414         686.816
    752211.225 9    579750.81846  24556299.077    24556299.1754   24556308.3694
     -1804.119       -1405.807
   -903013.931 8   -691617.03545  25192111.817    25192111.8364   25192121.4964
      2405.484        1874.403
 97  4 29 15 32 30.0000000  0  8 19  2 18 31  7 27 10 15             0.000462663
    710845.811 9    546173.31848  21453056.173    21453057.3024   21453064.8754
     -1593.293       -1241.527
   -559162.505 9   -258388.21648  21612463.895    21612464.6274   21612472.2474
      1070.834         834.416
   1715159.593 9   1320542.56746  23550522.039    23550522.6824   23550530.9914
     -3669.576       -2859.410
   1249005.858 9    960116.97547  23093205.810    23093206.5674   23093213.8384
     -2753.998       -2145.972
  -1682898.509 9  -1295842.50546  23448809.345    23448810.1654   23448818.9874
      3475.484        2708.169
   -461860.238 9   -280230.94848  20448648.328    20448649.2154   20448656.2864
       863.944         673.203
    806603.156 9    622134.08346  24566649.470    24566649.6774   24566658.8474
     -1821.981       -1419.725
   -974995.064 8   -747706.18445  25178413.874    25178414.1364   25178423.9924
      2393.489        1865.056
 97  4 29 15 33  0.0000000  0  8 19  2 18 31  7 27 10 15             0.000462391
    758893.196 9    583612.82148  21462199.320    21462200.4354   21462208.0334
     -1609.427       -1254.099
   -591071.498 9   -283252.36748  21606391.896    21606392.5844   21606400.1344
      1056.853         823.522
   1825422.384 9   1406461.57946  23571504.372    23571505.0744   23571513.3754
     -3680.607       -2868.005
   1331932.174 9   1024734.84547  23108986.090    23108986.9624   23108994.2274
     -2773.982       -2161.544
  -1786995.457 9  -1376956.99646  23429000.225    23429001.1804   23429010.0264
      3464.886        2699.911
   -487521.764 9   -300226.94248  20443765.091    20443765.9984   20443773.0704
       847.321         660.250
    861526.142 9    664931.16946  24577101.073    24577101.2224   24577110.3714
     -1838.910       -1432.917
  -1046625.040 8   -803521.72245  25164782.375    25164783.2754   25164793.2814
      2382.410        1856.423
 97  4 29 15 33 30.0000000  0  8 19  2 18 31  7 27 10 15             0.000462240
    807408.350 9    621416.81948  21471431.419    21471432.6084   21471440.2284
     -1624.919       -1266.171
   -622575.058 9   -307800.58448  21600397.005    21600397.6334   21600405.1824
      1043.382         813.025
   1935993.457 9   1492620.81646  23592545.400    23592546.1044   23592554.4074
     -3690.886       -2876.015
   1415436.589 9   1089803.19047  23124876.678    23124877.3714   23124884.6314
     -2793.037       -2176.392
  -1890795.606 9  -1457840.20447  23409247.653    23409248.6364   23409257.5544
      3454.976        2692.189
   -512696.865 9   -319843.90448  20438974.471    20438975.3784   20438982.4354
       830.885         647.443
    916926.806 9    708100.49346  24587643.593    24587643.6344   24587652.8934
     -1854.473       -1445.044
  -1117944.395 8   -859095.20345  25151211.674    25151211.4104   25151221.7354
      2372.104        1848.393
 97  4 29 15 34  0.0000000  0  8 19  2 18 31  7 27 10 15             0.000462192
    856379.228 9    659575.92248  21480750.274    21480751.4794   21480759.1074
     -1639.462       -1277.503
   -653696.176 9   -332050.79448  21594474.879    21594475.4854   21594483.0884
      1031.716         803.935
   2046858.279 9   1579008.95446  23613642.227    23613642.9904   23613651.3684
     -3699.625       -2882.825
   1499498.772 9   1155306.14647  23140873.244    23140873.8994   23140881.1724
     -2810.951       -2190.351
  -1994317.333 9  -1538506.47647  23389548.137    23389549.0754   23389558.0574
      3446.737        2685.769
   -537384.775 9   -339081.23848  20434276.538    20434277.4404   20434284.5214
       815.359         635.345
    972780.674 9    751622.93446  24598272.288    24598272.3884   24598281.6464
     -1868.659       -1456.098
  -1188965.314 8   -914436.17045  25137696.700    25137696.6224   25137706.7504
      2362.881        1841.206
 97  4 29 15 34 30.0000000  0  8 19  2 18 31  7 27 10 15             0.000462218
    905768.713 9    698061.21348  21490148.833    21490150.0134   21490157.6344
     -1653.415       -1288.375
   -684497.801 9   -356052.05148  21588613.520    21588614.1234   21588621.7064
      1021.464         795.946
   2157958.107 9   1665580.20046  23634783.850    23634784.5924   23634793.0044
     -3707.128       -2888.671
   1584078.442 9   1221212.34647  23156968.007    23156968.9544   23156976.2164
     -2827.717       -2203.416
  -2097607.121 9  -1618992.01347  23369892.879    23369893.6824   23369902.6424
      3439.020        2679.756
   -561636.043 9   -357978.32948  20429661.718    20429662.6004   20429669.7134
       801.208         624.318
   1029027.550 9    795451.61246  24608975.774    24608975.8194   24608985.0584
     -1881.305       -1465.952
  -1259733.579 8   -969580.26945  25124229.327    25124229.8864   25124239.9284
      2354.830        1834.932
 97  4 29 15 35  0.0000000  0  8 19  2 18 31  7 27 10 15             0.000462303
    955581.575 9    736876.41348  21499627.906    21499629.1024   21499636.7394
     -1667.164       -1299.089
   -714974.980 9   -379800.49448  21582813.857    21582814.5244   21582822.0864
      1010.422         787.342
   2269275.666 9   1752321.11146  23655967.005    23655967.7264   23655976.1154
     -3713.743       -2893.826
   1669152.104 9   1287503.46947  23173157.271    23173157.9284   23173165.2404
     -2843.608       -2215.798
  -2200661.151 9  -1699293.83247  23350282.222    23350283.2244   23350292.1174
      3431.495        2673.892
   -585457.831 9   -376540.76348  20425128.576    20425129.5084   20425136.5834
       787.191         613.396
   1085643.254 9    839567.70946  24619749.367    24619749.4384   24619758.7114
     -1892.660       -1474.800
  -1330257.475 8  -1024533.93445  25110807.731    25110809.6714   25110819.7184
      2347.062        1828.879
 97  4 29 15 35 30.0000000  0  8 19  2 18 31  7 27 10 15             0.000462426
   1005807.699 9    776013.63248  21509185.634    21509186.8484   21509194.4934
     -1680.510       -1309.488
   -745109.858 9   -403282.21148  21577079.376    21577080.0734   21577087.6424
       999.078         778.502
   2380799.371 9   1839222.64746  23677189.065    23677190.0004   23677198.5184
     -3720.719       -2899.262
   1754702.654 9   1354166.19747  23189436.734    23189437.6634   23189445.0294
     -2859.287       -2228.016
  -2303481.605 9  -1779413.64747  23330716.066    23330717.1074   23330726.0464
      3423.452        2667.625
   -608848.502 9   -394767.26548  20420677.458    20420678.4114   20420685.5004
       772.755         602.147
   1142593.114 9    883944.18946  24630586.613    24630586.7354   24630596.0814
     -1903.481       -1483.232
  -1400544.445 8  -1079303.01245  25097434.130    25097434.5614   25097444.3824
      2339.128        1822.697
 97  4 29 15 36  0.0000000  0  8 19  2 18 31  7 27 10 15             0.000462576
   1056404.212 9    815439.47548  21518813.895    21518815.0814   21518822.7494
     -1692.488       -1318.822
   -774927.425 9   -426516.67248  21571405.245    21571405.9574   21571413.5634
       988.747         770.452
   2492515.572 9   1926274.18846  23698447.926    23698448.8354   23698457.4474
     -3727.063       -2904.205
   1840702.981 9   1421179.40747  23205801.871    23205803.0244   23205810.3994
     -2874.175       -2239.617
  -2406072.047 9  -1859354.22147  23311193.737    23311194.8274   23311203.7734
      3415.820        2661.678
   -631829.954 9   -412674.88348  20416304.264    20416305.1904   20416312.2924
       759.494         591.813
   1199846.746 9    928557.36846  24641481.715    24641481.7884   24641491.1404
     -1913.463       -1491.010
  -1470612.727 8  -1133901.65945  25084100.373    25084101.0224   25084110.9854
      2331.850        1817.026
 97  4 29 15 36 30.0000000  0  8 19  2 18 31  7 27 10 15             0.000462763
   1107350.910 9    855138.18348  21528508.714    21528509.9214   21528517.6114
     -1703.703       -1327.561
   -804424.902 9   -449501.71348  21565791.962    21565792.7694   21565800.3854
       977.866         761.974
   2604433.177 9   2013482.66046  23719745.202    23719746.0494   23719754.6074
     -3733.956       -2909.576
   1927148.423 9   1488539.45847  23222252.127    23222253.0954   23222260.4804
     -2888.644       -2250.891
  -2508420.058 9  -1939105.89447  23291717.561    23291718.7044   23291727.5594
      3407.567        2655.247
   -654424.069 9   -430280.68848  20412004.743    20412005.6734   20412012.7694
       746.827         581.943
   1257400.600 9    973404.47946  24652433.801    24652433.9724   24652443.2744
     -1923.351       -1498.715
  -1540464.165 8  -1188331.32345  25070809.007    25070808.7884   25070818.7034
      2324.751        1811.494
 97  4 29 15 37  0.0000000  0  8 19  2 18 31  7 27 10 15             0.000462983
   1158624.104 9    895091.30448  21538265.695    21538266.9224   21538274.6194
     -1714.328       -1335.840
   -833595.318 9   -472231.89948  21560241.037    21560241.8264   21560249.4054
       967.111         753.593
   2716554.146 9   2100849.61846  23741081.095    23741082.0134   23741090.6094
     -3740.553       -2914.717
   2014020.026 9   1556231.57647  23238783.449    23238784.2484   23238791.6514
     -2902.699       -2261.843
  -2610521.257 9  -2018665.24547  23272288.446    23272289.5024   23272298.3284
      3399.375        2648.864
   -676636.921 9   -447589.40548  20407777.772    20407778.7074   20407785.7854
       734.269         572.158
   1315252.491 9   1018483.83346  24663442.712    24663442.9324   24663452.1894
     -1933.366       -1506.519
  -1610101.466 8  -1242594.12945  25057557.225    25057557.1714   25057567.0484
      2317.619        1805.937
 97  4 29 15 37 30.0000000  0  8 19  2 18 31  7 27 10 15             0.000463242
   1210215.819 9    935292.62548  21548083.285    21548084.5404   21548092.2414
     -1724.520       -1343.782
   -862461.052 9   -494724.67148  21554748.007    21554748.8504   21554756.4414
       957.951         746.455
   2828879.376 9   2188375.73746  23762456.038    23762456.8654   23762465.4204
     -3747.120       -2919.834
   2101306.877 9   1624247.27247  23255393.929    23255394.3764   23255401.8344
     -2915.764       -2272.024
  -2712373.750 9  -2098030.79647  23252906.368    23252907.6224   23252916.4514
      3391.368        2642.624
   -698485.395 9   -464614.18748  20403620.245    20403621.0844   20403628.1844
       723.024         563.395
   1373412.180 9   1063803.01646  24674510.136    24674510.3374   24674519.7254
     -1943.267       -1514.234
  -1679519.137 8  -1296685.78245  25044346.976    25044347.6014   25044357.2984
      2310.869        1800.677
 97  4 29 15 38  0.0000000  0  8 19  2 18 31  7 27 10 15             0.000463547
   1262132.489 9    975747.15848  21557962.727    21557963.9764   21557971.6754
     -1736.004       -1352.730
   -891042.321 9   -516995.78048  21549309.235    21549309.9964   21549317.6224
       948.103         738.782
   2941406.953 9   2276059.51846  23783869.318    23783870.1964   23783878.8204
     -3753.845       -2925.074
   2188997.021 9   1692577.21347  23272080.650    23272081.2944   23272088.7664
     -2929.611       -2282.814
  -2813977.402 9  -2177202.44447  23233571.955    23233573.0874   23233581.8984
      3383.046        2636.140
   -719994.665 9   -481374.65948  20399527.121    20399528.0204   20399535.1314
       711.490         554.408
   1431886.888 9   1109367.67746  24685637.645    24685637.7654   24685647.1554
     -1954.385       -1522.897
  -1748713.552 8  -1350603.44545  25031179.157    25031180.1924   25031190.1754
      2302.852        1794.430
 97  4 29 15 38 30.0000000  0  8 19  2 18 31  7 27 10 15             0.000463885
   1314377.319 9   1016457.40048  21567904.593    21567905.8334   21567913.5594
     -1747.385       -1361.599
   -919352.500 9   -539055.65248  21543922.059    21543922.7624   21543930.3794
       938.902         731.612
   3054104.445 9   2363875.70046  23805314.773    23805315.8484   23805324.5024
     -3759.544       -2929.515
   2277076.005 9   1761210.14647  23288841.108    23288842.2104   23288849.6854
     -2942.796       -2293.088
  -2915362.869 9  -2256204.09247  23214279.062    23214280.0764   23214288.8574
      3375.691        2630.409
   -741179.337 9   -497882.20048  20395495.857    20395496.7404   20395503.7954
       700.025         545.474
   1490665.123 9   1155168.85246  24696822.835    24696822.9644   24696832.2814
     -1964.458       -1530.746
  -1817696.106 8  -1404356.00945  25018053.236    25018053.1914   25018063.1474
      2295.632        1788.804
 97  4 29 15 39  0.0000000  0  8 19  2 18 31  7 27 10 15             0.000464249
   1366963.057 9   1057433.28648  21577911.349    21577912.5784   21577920.3114
     -1758.804       -1370.497
   -947405.507 9   -560915.13148  21538583.730    21538584.4654   21538592.0324
       930.858         725.344
   3166957.149 9   2451812.81746  23826790.201    23826791.1344   23826799.7524
     -3764.459       -2933.345
   2365547.857 9   1830149.21547  23305676.761    23305677.8804   23305685.3364
     -2955.972       -2303.355
  -3016544.084 9  -2335046.57747  23195024.753    23195025.8914   23195034.6564
      3369.245        2625.386
   -762007.297 9   -514111.78248  20391532.444    20391533.3194   20391540.3754
       687.954         536.068
   1549736.292 9   1201198.29946  24708063.732    24708063.8954   24708073.2224
     -1974.151       -1538.299
  -1886460.117 8  -1457938.27145  25004968.651    25004967.7984   25004977.8124
      2288.130        1782.958
 97  4 29 15 39 30.0000000  0  8 19  2 18 31  7 27 10 15             0.000464636
   1419887.442 9   1098673.05248  21587982.562    21587983.7664   21587991.5104
     -1769.566       -1378.883
   -975224.571 9   -582592.31248  21533289.899    21533290.6644   21533298.2684
       923.516         719.623
   3279951.064 9   2539860.00446  23848292.372    23848293.1904   23848301.8504
     -3768.442       -2936.448
   2454417.635 9   1899398.35547  23322588.399    23322589.2954   23322596.7164
     -2968.862       -2313.399
  -3117539.695 9  -2413744.42847  23175806.006    23175807.0404   23175815.8684
      3363.581        2620.972
   -782473.967 9   -530059.83948  20387637.739    20387638.6354   20387645.7224
       676.227         526.930
   1609088.505 9   1247446.72146  24719358.205    24719358.3054   24719367.7534
     -1982.707       -1544.966
  -1955008.279 8  -1511352.36345  24991923.240    24991923.4064   24991933.5734
      2281.521        1777.809
 97  4 29 15 40  0.0000000  0  8 19  2 18 31  7 27 10 15             0.000465042
   1473150.137 9   1140176.43448  21598118.110    21598119.3154   21598127.0814
     -1781.349       -1388.064
  -1002792.203 9   -604073.57648  21528044.014    21528044.7294   21528052.3144
       914.164         712.336
   3393067.694 9   2628002.80346  23869817.968    23869818.6404   23869827.2914
     -3772.839       -2939.875
   2543696.313 9   1968966.11947  23339577.854    23339578.4584   23339585.9414
     -2983.233       -2324.597
  -3218349.135 9  -2492297.22047  23156622.448    23156623.6124   23156632.4894
      3356.907        2615.772
   -802558.336 9   -545710.00248  20383815.871    20383816.7314   20383823.7874
       662.454         516.198
   1668715.938 9   1293909.61346  24730704.904    24730705.0244   24730714.4844
     -1992.634       -1552.702
  -2023341.842 8  -1564599.21145  24978919.750    24978919.9544   24978930.0664
      2273.777        1771.774
 97  4 29 15 40 30.0000000  0  8 19  2 18 31  7 27 10 15             0.000465472
   1526759.819 9   1181950.19448  21608319.691    21608320.9054   21608328.7004
     -1792.276       -1396.579
  -1030087.053 9   -625342.28048  21522849.975    21522850.7174   21522858.3054
       905.817         705.831
   3506311.021 9   2716244.31946  23891367.296    23891368.1474   23891376.7764
     -3776.553       -2942.769
   2633400.191 9   2038865.19947  23356647.805    23356648.6014   23356656.0784
     -2996.918       -2335.261
  -3318956.663 9  -2570692.66947  23137477.578    23137478.6604   23137487.4734
      3350.438        2610.731
   -822227.578 9   -561036.68748  20380072.918    20380073.7934   20380080.8454
       649.183         505.857
   1728628.252 9   1340594.50746  24742105.824    24742106.0084   24742115.4794
     -2001.305       -1559.458
  -2091451.066 8  -1617671.26245  24965959.123    24965959.2194   24965969.2424
      2266.930        1766.439
 97  4 29 15 41  0.0000000  0  8 19  2 18 31  7 27 10 15             0.000465923
   1580692.531 9   1223975.66448  21618582.754    21618583.9964   21618591.7474
     -1803.132       -1405.038
  -1057132.501 9   -646416.64448  21517703.482    21517704.1734   21517711.7824
       897.373         699.252
   3619665.641 9   2804572.54746  23912938.008    23912938.8624   23912947.5064
     -3780.233       -2945.636
   2723511.447 9   2109081.73146  23373795.440    23373796.2564   23373803.6974
     -3010.425       -2345.786
  -3419368.708 9  -2648935.79647  23118369.874    23118370.8744   23118379.6044
      3343.795        2605.555
   -841508.147 9   -576060.51048  20376403.953    20376404.8564   20376411.8864
       636.692         496.124
   1788807.366 9   1387487.28246  24753557.455    24753557.7634   24753567.2134
     -2010.416       -1566.558
  -2159351.137 8  -1670580.36345  24953038.197    24953038.4244   24953048.1064
      2259.899        1760.960
 97  4 29 15 41 30.0000000  0  8 19  2 18 31  7 27 10 15             0.000466398
   1634948.523 9   1266253.04248  21628907.326    21628908.6344   21628916.3514
     -1813.752       -1413.313
  -1083922.181 9   -667291.71348  21512605.585    21512606.2594   21512613.8594
       888.637         692.444
   3733116.688 9   2892975.92346  23934527.256    23934528.0254   23934536.5694
     -3783.049       -2947.830
   2814018.087 9   2179606.34647  23391018.234    23391019.1234   23391026.5564
     -3023.268       -2355.793
  -3519578.339 9  -2727021.19447  23099300.591    23099301.5614   23099310.3274
      3336.902        2600.183
   -860435.922 9   -590809.43648  20372802.137    20372803.0484   20372810.0774
       625.269         487.223
   1849248.094 9   1434583.89146  24765059.068    24765059.3374   24765068.7604
     -2018.731       -1573.037
  -2227045.527 8  -1723329.17545  24940156.216    24940156.4194   24940166.2004
      2253.111        1755.671
 97  4 29 15 42  0.0000000  0  8 19  2 18 31  7 27 10 15             0.000466892
   1689525.433 9   1308780.48248  21639293.018    21639294.2934   21639302.0184
     -1824.600       -1421.766
  -1110434.658 9   -687950.77948  21507560.374    21507561.1164   21507568.6754
       878.966         684.909
   3846650.604 9   2981443.87446  23956131.990    23956132.8514   23956141.3894
     -3786.021       -2950.146
   2904913.970 9   2250434.26047  23408315.037    23408316.0684   23408323.4784
     -3036.554       -2366.146
  -3619576.501 9  -2804941.81247  23080271.474    23080272.5604   23080281.3174
      3329.708        2594.578
   -879014.556 9   -605286.29648  20369266.785    20369267.6474   20369274.6624
       613.296         477.893
   1909936.896 9   1481873.80946  24776607.828    24776608.0484   24776617.4884
     -2027.148       -1579.596
  -2294536.302 8  -1775919.32045  24927312.858    24927313.4504   24927323.2324
      2246.025        1750.149
 97  4 29 15 42 30.0000000  0  8 19  2 18 31  7 27 10 15             0.000467402
   1744406.864 9   1351545.21748  21649736.655    21649737.9074   21649745.6444
     -1833.518       -1428.715
  -1136685.853 9   -708406.24748  21502564.898    21502565.6624   21502573.2464
       871.794         679.320
   3960263.184 9   3069973.11846  23977751.739    23977752.6114   23977761.1264
     -3787.430       -2951.244
   2996197.314 9   2321564.09446  23425685.984    23425686.7824   23425694.2124
     -3048.364       -2375.349
  -3719372.312 9  -2882704.75747  23061281.045    23061282.0844   23061290.8474
      3324.002        2590.131
   -897248.015 9   -619494.18948  20365797.107    20365797.9614   20365804.9804
       602.995         469.866
   1970849.773 9   1529338.35246  24788199.088    24788199.4114   24788208.8994
     -2033.043       -1584.189
  -2361821.297 8  -1828349.12145  24914508.647    24914509.5544   24914519.3734
      2240.129        1745.555
 97  4 29 15 43  0.0000000  0  8 19  2 18 31  7 27 10 15             0.000467911
   1799576.373 9   1394534.42148  21660235.105    21660236.3574   21660244.1004
     -1844.164       -1437.011
  -1162702.008 9   -728678.56648  21497614.236    21497614.9684   21497622.5124
       862.985         672.456
   4073932.720 9   3158546.74946  23999382.246    23999383.1954   23999391.7594
     -3790.330       -2953.504
   3087844.039 9   2392977.09346  23443125.761    23443126.5554   23443134.0284
     -3061.149       -2385.311
  -3818983.379 9  -2960323.74247  23042325.653    23042326.6984   23042335.4434
      3316.882        2584.583
   -915157.131 9   -633449.34648  20362389.142    20362389.9934   20362397.0204
       591.141         460.629
   2031954.685 9   1576952.53246  24799827.057    24799827.3514   24799836.8254
     -2040.321       -1589.861
  -2428909.753 8  -1880625.76645  24901742.288    24901743.1094   24901752.7464
      2232.707        1739.772
 97  4 29 15 43 30.0000000  0  8 19  2 18 31  7 27 10 15             0.000468421
   1855044.799 9   1437756.54748  21670790.474    21670791.6694   21670799.4034
     -1852.902       -1443.820
  -1188469.090 9   -748756.80848  21492711.001    21492711.6594   21492719.1674
       855.532         666.648
   4187673.572 9   3247175.94146  24021026.492    24021027.4514   24021036.0084
     -3791.847       -2954.686
   3179853.360 9   2464672.62746  23460634.655    23460635.3394   23460642.8674
     -3072.122       -2393.861
  -3918387.114 9  -3037781.16147  23023409.617    23023410.7494   23023419.5094
      3310.636        2579.716
   -932717.490 9   -647132.74548  20359047.463    20359048.3754   20359055.3914
       580.125         452.045
   2093259.998 9   1624722.84446  24811493.112    24811493.3624   24811502.8894
     -2046.213       -1594.452
  -2495787.419 8  -1932738.16445  24889016.028    24889016.5564   24889026.2684
      2226.514        1734.946
 97  4 29 15 44  0.0000000  0  8 19  2 18 31  7 27 10 15             0.000468919
   1910774.005 9   1481181.87748  21681395.363    21681396.5674   21681404.3304
     -1862.371       -1451.198
  -1214012.939 9   -768661.10148  21487850.201    21487850.8314   21487858.3564
       847.714         660.556
   4301475.296 9   3335852.57746  24042682.412    24042683.3004   24042691.9204
     -3795.105       -2957.225
   3272190.478 9   2536623.58746  23478205.954    23478206.5554   23478214.0504
     -3083.725       -2402.903
  -4017595.686 9  -3115086.52647  23004530.928    23004531.9954   23004540.7064
      3303.264        2573.972
   -949937.648 9   -660551.05148  20355770.612    20355771.4974   20355778.5034
       568.160         442.722
   2154757.541 9   1672642.96246  24823195.690    24823195.9814   24823205.5674
     -2053.691       -1600.279
  -2562474.262 8  -1984701.85445  24876325.596    24876326.2674   24876336.2894
      2219.197        1729.244
 97  4 29 15 44 30.0000000  0  8 19  2 18 31  7 27 10 15             0.000469420
   1966783.864 9   1524825.89648  21692053.671    21692054.9034   21692062.6734
     -1872.356       -1458.979
  -1239352.732 9   -788406.38748  21483028.030    21483028.8214   21483036.3374
       841.023         655.343
   4415378.632 9   3424608.38646  24064357.477    24064358.3844   24064367.0604
     -3799.110       -2960.345
   3364854.316 9   2608829.13446  23495839.331    23495839.9324   23495847.4634
     -3094.447       -2411.257
  -4116587.149 9  -3192222.70647  22985693.613    22985694.5824   22985703.2214
      3295.612        2568.009
   -966822.783 9   -673708.30948  20352557.450    20352558.3924   20352565.3794
       557.027         434.047
   2216471.816 9   1720731.96846  24834939.716    24834939.7724   24834949.4254
     -2061.178       -1606.113
  -2628951.500 8  -2036502.23445  24863675.113    24863676.1204   24863685.8504
      2211.978        1723.619
 97  4 29 15 45  0.0000000  0  8 19  2 18 31  7 27 10 15             0.000469928
   2023098.256 9   1568707.21448  21702770.013    21702771.2564   21702779.0114
     -1882.327       -1466.748
  -1264488.387 9   -807992.60548  21478244.795    21478245.6694   21478253.1874
       834.265         650.077
   4529411.741 9   3513465.30546  24086057.194    24086058.2254   24086066.8234
     -3803.572       -2963.822
   3457827.221 9   2681275.51446  23513531.481    23513532.1294   23513539.6944
     -3104.407       -2419.018
  -4215350.198 9  -3269180.89947  22966899.517    22966900.6034   22966909.2274
      3288.142        2562.189
   -983380.540 9   -686610.46148  20349406.622    20349407.5614   20349414.5464
       546.255         425.653
   2278415.270 9   1768999.55646  24846727.231    24846727.3164   24846736.8974
     -2068.837       -1612.081
  -2695215.370 8  -2088136.33945  24851066.033    24851066.3844   24851076.1434
      2205.083        1718.246
 97  4 29 15 45 30.0000000  0  8 19  2 18 31  7 27 10 15             0.000470442
   2079703.657 9   1612815.29248  21713541.704    21713542.9614   21713550.7144
     -1891.652       -1474.014
  -1289421.150 9   -827420.72548  21473500.327    21473501.1304   21473508.6334
       827.687         644.951
   4643578.721 9   3602426.55546  24107782.615    24107783.4784   24107792.1304
     -3807.612       -2966.970
   3551101.260 9   2753956.54346  23531280.985    23531281.5674   23531289.1364
     -3114.256       -2426.693
  -4313885.990 9  -3345962.01047  22948148.788    22948149.8284   22948158.4744
      3280.852        2556.508
   -999611.419 9   -699257.90248  20346318.084    20346318.9424   20346325.9154
       535.514         417.284
   2340584.837 9   1817443.31946  24858557.763    24858557.8004   24858567.4574
     -2075.891       -1617.577
  -2761269.749 8  -2139607.22345  24838495.287    24838496.5894   24838506.3444
      2198.276        1712.942
 97  4 29 15 46  0.0000000  0  8 19  2 18 31  7 27 10 15             0.000470964
   2136614.643 9   1657161.48948  21724371.583    21724372.7934   21724380.5494
     -1901.675       -1481.825
  -1314145.759 9   -846686.64748  21468795.455    21468796.1884   21468803.7294
       821.507         640.135
   4757873.922 9   3691487.73246  24129532.165    24129533.2574   24129541.7944
     -3811.103       -2969.691
   3644691.837 9   2826884.22646  23549090.722    23549091.2614   23549098.8164
     -3124.328       -2434.541
  -4412201.401 9  -3422571.40447  22929440.036    22929441.0794   22929449.6124
      3274.467        2551.533
  -1015503.062 9   -711641.00748  20343294.014    20343294.8804   20343301.8514
       524.814         408.946
   2402970.106 9   1866055.18446  24870429.322    24870429.3994   24870438.9964
     -2082.042       -1622.370
  -2827101.757 8  -2190904.83745  24825967.658    24825969.1924   24825978.9694
      2191.389        1707.576
 97  4 29 15 46 30.0000000  0  8 19  2 18 31  7 27 10 15             0.000471472
   2193826.089 9   1701741.81248  21735258.635    21735259.8134   21735267.5574
     -1912.142       -1489.981
  -1338691.060 9   -865812.85348  21464124.693    21464125.3634   21464132.9114
       814.747         634.868
   4872256.060 9   3780616.65446  24151298.445    24151299.4784   24151308.1204
     -3814.014       -2971.959
   3738582.180 9   2900045.49446  23566957.266    23566958.0294   23566965.6024
     -3134.810       -2442.709
  -4510338.326 9  -3499041.71547  22910765.220    22910766.2614   22910774.7554
      3268.219        2546.664
  -1031076.100 9   -723775.84848  20340330.595    20340331.4474   20340338.3754
       513.267         399.948
   2465522.471 9   1914797.23246  24882332.668    24882332.7864   24882342.3404
     -2088.011       -1627.022
  -2892730.150 8  -2242043.80045  24813479.731    24813480.3604   24813490.1324
      2183.985        1701.806
 97  4 29 15 47  0.0000000  0  8 19  2 18 31  7 27 10 15             0.000471963
   2251332.382 9   1746551.88648  21746201.726    21746202.9084   21746210.6354
     -1921.554       -1497.315
  -1363023.685 9   -884773.32848  21459494.361    21459495.0094   21459502.5274
       807.336         629.093
   4986692.101 9   3869787.56146  24173074.987    24173075.9254   24173084.6264
     -3815.111       -2972.814
   3832783.391 9   2973448.99846  23584882.904    23584883.9454   23584891.5884
     -3145.450       -2451.000
  -4608296.888 9  -3575373.03147  22892124.327    22892125.3224   22892133.9144
      3262.172        2541.952
  -1046298.301 9   -735637.31048  20337433.922    20337434.7804   20337441.6764
       501.349         390.662
   2528249.898 9   1963675.70946  24894269.253    24894269.4844   24894278.9504
     -2094.092       -1631.760
  -2958143.374 8  -2293015.10145  24801031.650    24801032.6474   24801042.3324
      2176.717        1696.143
 97  4 29 15 47 30.0000000  0  8 19  2 18 31  7 27 10 15             0.000472519
   2309103.487 9   1791568.30948  21757195.199    21757196.4104   21757204.1364
     -1930.096       -1503.971
  -1387147.393 9   -903571.01348  21454903.771    21454904.4354   21454911.9414
       800.780         623.984
   5101128.525 9   3958958.74946  24194851.544    24194852.5274   24194861.1774
     -3814.073       -2972.005
   3927285.789 9   3047087.19246  23602865.961    23602867.2154   23602874.8194
     -3154.896       -2458.361
  -4706091.702 9  -3651576.75147  22873514.563    22873515.5594   22873524.2194
      3257.342        2538.189
  -1061178.354 9   -747232.16448  20334602.345    20334603.2154   20334610.1134
       490.571         382.263
   2591147.846 9   2012687.06046  24906238.435    24906238.5974   24906248.1404
     -2099.191       -1635.733
  -3023352.004 8  -2343826.98245  24788623.027    24788623.8794   24788633.5514
      2170.334        1691.169
 97  4 29 15 48  0.0000000  0  8 19  2 18 31  7 27 10 15             0.000472951
   2367164.636 9   1836810.74248  21768243.918    21768245.1254   21768252.8054
     -1940.722       -1512.251
  -1411046.040 9   -922193.32448  21450355.916    21450356.6414   21450364.1824
       792.274         617.356
   5215559.343 9   4048125.56946  24216627.235    24216628.1004   24216636.6164
     -3814.878       -2972.632
   4022101.439 9   3120969.47146  23620908.791    23620910.1144   23620917.6904
     -3166.300       -2467.247
  -4803718.145 9  -3727649.29747  22854936.892    22854937.9114   22854946.4264
      3250.836        2533.119
  -1075714.698 9   -758559.19148  20331836.216    20331837.0674   20331843.9424
       478.318         372.715
   2654234.768 9   2061845.62046  24918243.489    24918243.6054   24918253.1464
     -2106.868       -1641.715
  -3088341.143 8  -2394467.83545  24776256.267    24776256.7924   24776266.3874
      2162.007        1684.681
 97  4 29 15 48 30.0000000  0  8 19  2 18 31  7 27 10 15             0.000473381
   2425515.349 9   1882278.80948  21779347.700    21779348.9254   21779356.5984
     -1949.863       -1519.374
  -1434700.377 9   -940625.27248  21445854.663    21445855.3674   21445862.9154
       783.942         610.864
   5330005.522 9   4137304.38546  24238405.601    24238406.6274   24238415.0314
     -3815.589       -2973.186
   4117238.706 9   3195102.36246  23639012.955    23639014.1824   23639021.7874
     -3176.905       -2475.510
  -4901153.074 9  -3803572.60147  22836395.644    22836396.6724   22836405.1304
      3244.158        2527.915
  -1089896.799 9   -769610.18548  20329137.479    20329138.3304   20329145.1804
       466.391         363.422
   2717542.445 9   2111176.20846  24930290.575    24930290.7214   24930300.2244
     -2114.366       -1647.558
  -3153096.572 8  -2444926.57045  24763933.340    24763934.1864   24763943.7354
      2154.267        1678.650
 97  4 29 15 49  0.0000000  0  8 19  2 18 31  7 27 10 15             0.000473822
   2484139.695 9   1927960.09748  21790503.571    21790504.7824   21790512.4964
     -1958.229       -1525.893
  -1458097.666 9   -958856.92048  21441402.256    21441403.0194   21441410.5554
       776.233         604.857
   5444482.266 9   4226507.00946  24260189.887    24260190.9144   24260199.2204
     -3816.194       -2973.658
   4212692.486 9   3269481.89446  23657177.344    23657178.4214   23657186.1614
     -3186.543       -2483.021
  -4998381.940 9  -3879335.32347  22817893.596    22817894.5974   22817903.1324
      3237.926        2523.059
  -1103722.200 9   -780383.22348  20326506.626    20326507.4594   20326514.3114
       455.659         355.059
   2781070.350 9   2160678.49046  24942379.646    24942379.7054   24942389.2244
     -2120.493       -1652.332
  -3217617.101 8  -2495202.27545  24751655.466    24751656.4604   24751665.9184
      2147.303        1673.223
 97  4 29 15 49 30.0000000  0  8 19  2 18 31  7 27 10 15             0.000474269
   2543036.311 9   1973853.54648  21801711.248    21801712.4784   21801720.2054
     -1968.056       -1533.550
  -1481257.698 9   -976903.68948  21436995.020    21436995.7934   21437003.3344
       767.945         598.399
   5558997.720 9   4315739.79046  24281981.663    24281982.4254   24281990.8024
     -3818.204       -2975.224
   4308437.160 9   3344088.08946  23675397.075    23675398.0524   23675405.7154
     -3196.440       -2490.732
  -5095419.318 9  -3954948.84347  22799427.903    22799428.9674   22799437.5044
      3231.296        2517.893
  -1117220.922 9   -790901.71548  20323937.891    20323938.7624   20323945.6054
       444.404         346.289
   2844777.649 9   2210320.44846  24954502.658    24954502.7374   24954512.3364
     -2126.273       -1656.836
  -3281918.039 8  -2545306.85946  24739419.531    24739420.2944   24739429.7834
      2139.510        1667.151
 97  4 29 15 50  0.0000000  0  8 19  2 18 31  7 27 10 15             0.000474727
   2602223.191 9   2019973.16648  21812974.124    21812975.3764   21812983.1274
     -1977.620       -1541.003
  -1504171.579 9   -994758.65748  21432634.795    21432635.4484   21432642.9954
       759.657         591.941
   5673584.299 9   4405027.99146  24303786.556    24303787.4924   24303795.9634
     -3821.003       -2977.405
   4404481.487 9   3418927.77046  23693673.783    23693674.6714   23693682.4144
     -3206.605       -2498.653
  -5192249.273 9  -4030400.73447  22781001.817    22781002.8404   22781011.3404
      3223.952        2512.170
  -1130373.616 9   -801150.57648  20321435.008    20321435.9024   20321442.7384
       432.230         336.803
   2908650.887 8   2260091.78845  24966657.371    24966657.4354   24966667.1704
     -2132.000       -1661.299
  -3345983.075 8  -2595227.60746  24727228.489    24727229.1064   24727238.5784
      2131.421        1660.848
 97  4 29 15 50 30.0000000  0  8 19  2 18 31  7 27 10 15             0.000475187
   2661680.009 9   2066303.13548  21824288.360    21824289.6624   21824297.4234
     -1986.312       -1547.775
  -1526851.667 9  -1012431.44948  21428318.902    21428319.5824   21428327.1204
       752.479         586.347
   5788245.572 9   4494374.39146  24325605.913    24325606.8714   24325615.4054
     -3822.944       -2978.917
   4500804.791 9   3493984.84846  23712003.600    23712004.3924   23712012.1444
     -3215.030       -2505.218
  -5288862.238 9  -4105683.53447  22762617.012    22762617.9844   22762626.4344
      3216.992        2506.747
  -1143170.934 9   -811122.51248  20318999.784    20319000.6654   20319007.5104
       420.972         328.030
   2972672.405 8   2309978.67545  24978840.287    24978840.4294   24978850.1494
     -2135.953       -1664.379
  -3409814.818 8  -2644966.57946  24715081.400    24715082.4494   24715091.7324
      2123.988        1655.056
 97  4 29 15 51  0.0000000  0  8 19  2 18 31  7 27 10 15             0.000475637
   2721422.959 9   2112856.06748  21835657.037    21835658.3824   21835666.1334
     -1996.980       -1556.088
  -1549308.374 9  -1029930.17648  21424045.545    21424046.2274   21424053.7544
       744.295         579.970
   5902971.025 9   4583770.81046  24347437.713    24347438.5054   24347446.9014
     -3825.821       -2981.159
   4597393.635 9   3569248.83646  23730383.769    23730384.7114   23730392.4374
     -3224.718       -2512.767
  -5385254.425 9  -4180794.28947  22744274.146    22744275.1604   22744283.6124
      3208.703        2500.288
  -1155620.288 9   -820823.31048  20316630.732    20316631.6644   20316638.5034
       408.546         318.348
   3036818.666 7   2359962.74655  24991046.866    24991043.2744          0.0005
     -2140.926       -1668.254
  -3473411.939 8  -2694522.70545  24702979.760    24702980.3314   24702989.4954
      2115.317        1648.299
 97  4 29 15 51 30.0000000  0  8 19  2 18 31  7 27 10 15             0.000476073
   2781469.070 9   2159645.22848  21847083.443    21847084.7794   21847092.5674
     -2006.623       -1563.602
  -1571544.285 9  -1047256.85648  21419814.244    21419814.8894   21419822.3874
       737.595         574.749
   6017757.226 9   4673214.55646  24369280.654    24369281.6884   24369289.9704
     -3827.110       -2982.164
   4694257.407 9   3644727.05346  23748816.331    23748817.3454   23748825.1034
     -3233.654       -2519.730
  -5481417.628 9  -4255726.63347  22725974.736    22725975.9234   22725984.3524
      3201.492        2494.669
  -1167705.513 9   -830240.37048  20314331.019    20314331.9124   20314338.7734
       396.431         308.907
   3101108.86217   2410058.89854  25003281.308    25003282.4115          0.0005
     -2145.551       -1671.858
  -3536761.804 8  -2743886.14045  24690924.356    24690925.2764   24690934.3754
      2107.366        1642.103
 97  4 29 15 52  0.0000000  0  7 19  2 18 31  7 27 15                0.000476510
   2841796.454 9   2206653.55848  21858563.384    21858564.7284   21858572.5274
     -2015.913       -1570.841
  -1593583.661 9  -1064430.39348  21415620.337    21415620.9454   21415628.4564
       731.041         569.642
   6132583.402 9   4762689.46746  24391131.311    24391132.3314   24391140.7464
     -3828.595       -2983.321
   4791404.116 9   3720425.73246  23767302.744    23767303.7524   23767311.5724
     -3243.388       -2527.315
  -5577351.004 9  -4330479.88447  22707719.248    22707720.3574   22707728.8234
      3193.410        2488.371
  -1179417.833 9   -839366.85648  20312102.249    20312103.1404   20312110.0134
       383.805         299.069
  -3599865.757 8  -2793057.95145  24678916.221    24678916.8834   24678926.1424
      2098.933        1635.532
 97  4 29 15 52 30.0000000  0  7 19  2 18 31  7 27 15                0.000476930
   2902416.965 9   2253890.30548  21870099.147    21870100.4784   21870108.2544
     -2025.682       -1578.454
  -1615419.751 9  -1081445.52548  21411464.936    21411465.6794   21411473.1884
       724.605         564.627
   6247456.349 9   4852200.79446  24412991.186    24412991.9054   24413000.3784
     -3829.721       -2984.198
   4888841.700 9   3796351.07046  23785844.542    23785845.5814   23785853.3894
     -3252.965       -2534.778
  -5673039.022 9  -4405041.94847  22689510.303    22689511.4194   22689519.8964
      3185.556        2482.251
  -1190756.640 9   -848202.28548  20309944.604    20309945.4654   20309952.3334
       371.904         289.795
  -3662711.177 8  -2842028.29645  24666956.500    24666957.8344   24666966.8744
      2090.563        1629.010
 97  4 29 15 53  0.0000000  0  7 19  2 18 31  7 27 15                0.000477347
   2963333.096 9   2301357.39448  21881691.170    21881692.4614   21881700.2294
     -2035.444       -1586.060
  -1637066.407 9  -1098313.05348  21407345.845    21407346.4834   21407353.9694
       718.261         559.684
   6362365.396 9   4941740.27046  24434857.470    24434858.3974   24434866.8364
     -3831.038       -2985.224
   4986585.805 9   3872515.25946  23804444.645    23804445.7014   23804453.4974
     -3263.567       -2543.039
  -5768487.796 9  -4479417.58847  22671347.027    22671348.1124   22671356.5854
      3177.519        2475.989
  -1201728.204 9   -856751.55248  20307856.767    20307857.6024   20307864.4944
       359.263         279.945
  -3725296.529 8  -2890795.99046  24655046.684    24655048.0024   24655057.2224
      2081.621        1622.042
 97  4 29 15 53 30.0000000  0  7 19  2 18 31  7 27 15                0.000477758
   3024533.177 9   2349045.75148  21893337.156    21893338.4604   21893346.2324
     -2044.736       -1593.301
  -1658528.581 9  -1115036.81348  21403261.693    21403262.3704   21403269.8424
       712.371         555.094
   6477303.902 9   5031302.69146  24456729.795    24456730.5474   24456738.9804
     -3831.536       -2985.612
   5084639.261 9   3948920.50146  23823103.544    23823104.7474   23823112.5464
     -3273.544       -2550.814
  -5863700.493 9  -4553609.27747  22653228.552    22653229.7614   22653238.2084
      3169.728        2469.918
  -1212323.733 9   -865007.80748  20305840.501    20305841.3654   20305848.2504
       347.015         270.401
  -3787618.944 8  -2939358.78846  24643187.307    24643188.4234   24643197.5514
      2072.988        1615.315
 97  4 29 15 54  0.0000000  0  7 19  2 18 31  7 27 15                0.000478166
   3086013.865 9   2396952.75548  21905036.596    21905037.8714   21905045.6424
     -2053.769       -1600.339
  -1679810.823 9  -1131620.37748  21399211.826    21399212.4684   21399219.9754
       706.676         550.657
   6592257.942 9   5120877.23246  24478604.859    24478605.5874   24478614.2284
     -3831.733       -2985.766
   5182989.082 9   4025556.66446  23841818.854    23841820.1354   23841827.9714
     -3282.648       -2557.908
  -5958673.026 9  -4627613.82347  22635156.040    22635157.0654   22635165.5054
      3162.055        2463.939
  -1222562.258 9   -872985.88048  20303892.180    20303893.0514   20303899.9264
       335.886         261.729
  -3849678.467 8  -2987716.74046  24631377.510    24631378.8254   24631387.9894
      2064.654        1608.821
 97  4 29 15 54 30.0000000  0  7 19  2 18 31  7 27 15                0.000478576
   3147794.667 9   2445093.61348  21916793.100    21916794.4124   21916802.1774
     -2064.504       -1608.704
  -1700895.411 9  -1148049.92148  21395199.566    21395200.1994   21395207.7154
       699.290         544.901
   6707235.397 9   5210470.00446  24500484.348    24500485.1384   24500493.6674
     -3833.138       -2986.861
   5281623.367 9   4102414.49446  23860588.306    23860589.6654   23860597.5154
     -3292.804       -2565.821
  -6053397.384 9  -4701424.99147  22617130.667    22617131.6714   22617140.0234
      3153.186        2457.028
  -1232448.016 9   -880689.06948  20302011.002    20302011.8814   20302018.7484
       323.402         252.002
  -3911464.860 8  -3035861.86546  24619619.988    24619621.2814   24619630.3974
      2054.794        1601.138
 97  4 29 15 55  0.0000000  0  7 19  2 18 31  7 27 15                0.000478985
   3209865.481 9   2493460.45848  21928604.831    21928606.1104   21928613.8834
     -2073.966       -1616.077
  -1721783.100 9  -1164326.03248  21391224.686    21391225.3714   21391232.9314
       692.576         539.670
   6822230.276 9   5300076.36046  24522367.145    24522368.0024   24522376.4404
     -3833.714       -2987.310
   5380539.102 9   4179491.63846  23879411.234    23879412.7094   23879420.5344
     -3301.833       -2572.857
  -6147881.480 9  -4775048.95247  22599150.896    22599151.9464   22599160.2974
      3145.365        2450.934
  -1241978.092 9   -888115.10448  20300197.534    20300198.3824   20300205.2384
       311.429         242.672
  -3972978.850 8  -3083794.73546  24607915.649    24607915.5654   24607924.4604
      2045.760        1594.099
 97  4 29 15 55 30.0000000  0  7 19  2 18 31  7 27 15                0.000479395
   3272225.558 9   2542052.69548  21940471.649    21940472.8914   21940480.6594
     -2083.472       -1623.485
  -1742455.415 9  -1180434.33048  21387290.893    21387291.5954   21387299.1354
       685.408         534.084
   6937245.835 9   5389698.84846  24544253.860    24544254.6434   24544263.1714
     -3834.238       -2987.718
   5479723.164 9   4256777.87046  23898285.294    23898286.8254   23898294.6384
     -3310.807       -2579.850
  -6242128.260 9  -4848487.97847  22581216.235    22581217.3384   22581225.7514
      3137.495        2444.801
  -1251149.704 9   -895261.81848  20298452.202    20298453.0754   20298459.9564
       299.887         233.678
  -4034220.420 8  -3131515.33946  24596261.575    24596261.5954   24596270.4354
      2036.875        1587.175
 97  4 29 15 56  0.0000000  0  8 19  2 18 31  7 27 26 15             0.000479830
   3334870.319 9   2590866.77148  21952392.538    21952393.7964   21952401.5844
     -2092.807       -1630.759
  -1762902.390 9  -1196367.02848  21383399.859    21383400.6454   21383408.2104
       677.656         528.044
   7052295.206 9   5479347.67746  24566147.354    24566147.8824   24566156.3444
     -3835.784       -2988.923
   5579188.042 9   4334282.92346  23917212.837    23917214.3714   23917222.2384
     -3320.268       -2587.222
  -6336129.086 9  -4921735.35747  22563328.519    22563329.5774   22563337.9454
      3129.198        2438.336
  -1259967.335 9   -902132.69948  20296774.300    20296775.1754   20296782.0054
       287.789         224.251
   -252313.07419   -179224.98056  24102238.168    24102238.5575   24102247.0435
      2652.074        2066.551
  -4095184.594 8  -3179019.80346  24584660.549    24584660.3584   24584669.3554
      2027.379        1579.776
 97  4 29 15 56 30.0000000  0  8 19  2 18 31  7 27 26 15             0.000480351
   3397799.771 9   2639902.67848  21964367.553    21964368.8574   21964376.6594
     -2102.038       -1637.952
  -1783104.224 9  -1212108.70448  21379555.602    21379556.3984   21379563.9274
       669.584         521.754
   7167396.945 9   5569037.30946  24588050.262    24588051.1234   24588059.4994
     -3837.155       -2989.991
   5678944.374 9   4412015.08446  23936196.166    23936197.4064   23936205.3114
     -3329.878       -2594.710
  -6429874.197 9  -4994783.47647  22545489.389    22545490.4464   22545498.7654
      3120.855        2431.835
  -1268400.606 9   -908704.07448  20295169.516    20295170.3784   20295177.2144
       274.834         214.156
   -331719.096 9   -241099.79356  24087125.008    24087129.3084   24087135.9515
      2641.994        2058.697
  -4155859.128 8  -3226298.58746  24573114.077    24573114.3154   24573123.2644
      2017.898        1572.388
 97  4 29 15 57  0.0000000  0  8 19  2 18 31  7 27 26 15             0.000480831
   3461001.737 9   2689150.93148  21976394.469    21976395.8284   21976403.6254
     -2111.177       -1645.073
  -1803069.714 9  -1227666.22148  21375756.302    21375757.0944   21375764.6204
       661.736         515.638
   7282527.688 9   5658749.53846  24609958.908    24609959.7874   24609968.2164
     -3837.980       -2990.634
   5778987.177 9   4489970.45946  23955234.042    23955235.0224   23955242.8944
     -3339.157       -2601.941
  -6523370.311 9  -5067637.56947  22527697.559    22527698.7084   22527707.0494
      3112.394        2425.242
  -1276442.640 9   -914970.59848  20293639.132    20293640.0514   20293646.8584
       261.562         203.815
   -410817.644 9   -302735.02446  24072074.325    24072076.6655   24072083.9964
      2631.555        2050.562
  -4216254.157 8  -3273359.59246  24561620.820    24561621.4114   24561630.3734
      2008.605        1565.147
 97  4 29 15 57 30.0000000  0  8 19  2 18 31  7 27 26 15             0.000481284
   3524485.727 9   2738618.95048  21988475.112    21988476.4684   21988484.2744
     -2121.163       -1652.854
  -1822796.603 9  -1243037.81348  21372002.410    21372003.2094   21372010.7424
       653.353         509.106
   7397682.956 9   5748480.88046  24631871.851    24631873.1344   24631881.5214
     -3839.254       -2991.626
   5879304.836 9   4568140.01446  23974324.033    23974324.8904   23974332.6764
     -3348.761       -2609.424
  -6616601.495 9  -5140285.22547  22509956.373    22509957.4184   22509965.7794
      3102.735        2417.716
  -1284083.699 9   -920924.66948  20292185.049    20292185.9874   20292192.7914
       247.778         193.074
   -489593.924 9   -364119.11746  24057084.075    24057086.0644   24057093.4084
      2620.069        2041.612
  -4276363.053 9  -3320197.65446  24550182.820    24550183.0314   24550191.9264
      1998.493        1557.267
 97  4 29 15 58  0.0000000  0  8 19  2 18 31  7 27 26 15             0.000481723
   3588251.328 9   2788306.40048  22000609.379    22000610.6744   22000618.4914
     -2130.431       -1660.076
  -1842291.191 9  -1258228.39048  21368292.737    21368293.5154   21368301.0534
       645.897         503.296
   7512855.956 9   5838226.03946  24653788.914    24653789.9474   24653798.3634
     -3839.299       -2991.662
   5979877.325 9   4646508.13946  23993462.446    23993463.2474   23993471.0734
     -3356.432       -2615.401
  -6709551.618 9  -5212713.87847  22492268.551    22492269.5994   22492277.9644
      3093.631        2410.622
  -1291320.077 9   -926563.40748  20290808.010    20290808.9564   20290815.7454
       234.225         182.513
   -568036.588 9   -425243.26946  24042157.205    24042158.9614   24042166.3204
      2609.057        2033.031
  -4336178.896 8  -3366807.35046  24538799.719    24538800.3804   24538809.2414
      1988.847        1549.751
 97  4 29 15 58 30.0000000  0  8 19  2 18 31  7 27 26 15             0.000482149
   3652317.518 9   2838228.07848  22012800.785    22012802.1084   22012809.9204
     -2140.628       -1668.022
  -1861555.455 9  -1273239.49648  21364626.921    21364627.6464   21364635.1954
       638.504         497.536
   7628032.737 9   5927974.15046  24675706.459    24675707.3754   24675715.8104
     -3839.107       -2991.512
   6080681.206 9   4725056.56846  24012644.801    24012645.5914   24012653.4374
     -3363.942       -2621.254
  -6802221.265 9  -5284923.97347  22474634.047    22474635.1564   22474643.5034
      3084.396        2403.425
  -1298140.821 9   -931878.27448  20289510.094    20289511.0454   20289517.8294
       220.606         171.901
   -646141.343 9   -486104.11346  24027294.405    24027296.0424   24027303.4674
      2597.861        2024.307
  -4395695.939 9  -3413184.23446  24527474.486    24527474.5454   24527483.4364
      1978.924        1542.019
 97  4 29 15 59  0.0000000  0  8 19  2 18 31  7 27 26 15             0.000482570
   3716698.450 9   2888395.00948  22025052.063    22025053.4214   22025061.2584
     -2151.206       -1676.264
  -1880595.485 9  -1288075.87448  21361003.677    21361004.4304   21361011.9914
       631.102         491.768
   7743211.075 9   6017723.47946  24697624.218    24697625.1204   24697633.5634
     -3839.443       -2991.774
   6181711.719 9   4803781.60346  24031870.024    24031871.1244   24031878.9494
     -3371.341       -2627.019
  -6894601.838 9  -5356908.81747  22457054.693    22457055.7484   22457064.0744
      3074.539        2395.745
  -1304554.816 9   -936876.19448  20288289.576    20288290.5114   20288297.2714
       207.207         161.460
   -723903.049 9   -546697.63746  24012496.809    24012498.4444   24012505.9234
      2586.468        2015.430
  -4454906.869 9  -3459322.59846  24516206.863    24516207.1094   24516215.9404
      1968.581        1533.959
 97  4 29 15 59 30.0000000  0  8 19  2 18 31  7 27 26 15             0.000482990
   3781385.409 9   2938800.40048  22037361.633    22037362.9614   22037370.8194
     -2160.851       -1683.780
  -1899425.515 9  -1302748.61948  21357420.467    21357421.1954   21357428.7384
       624.572         486.679
   7858397.572 9   6107479.16946  24719543.532    24719544.3404   24719552.8984
     -3839.297       -2991.660
   6282957.556 9   4882674.41846  24051136.546    24051137.5364   24051145.4564
     -3378.175       -2632.344
  -6986695.518 9  -5428670.10047  22439529.770    22439530.9194   22439539.2084
      3065.459        2388.669
  -1310584.758 9   -941574.85148  20287142.131    20287143.0644   20287149.8104
       195.202         152.105
   -801330.980 9   -607031.06446  23997762.772    23997764.4314   23997771.9094
      2575.678        2007.022
  -4513813.459 9  -3505223.81446  24504996.983    24504997.5094   24505006.2974
      1958.888        1526.406
 97  4 29 16  0  0.0000000  0  8 19  2 18 31  7 27 26 15             0.000483405
   3846361.831 9   2989431.35148  22049726.236    22049727.6034   22049735.4554
     -2170.918       -1691.624
  -1918064.102 9  -1317272.18448  21353873.721    21353874.4024   21353881.9464
       618.067         481.611
   7973569.089 8   6197223.17745  24741460.060    24741460.7654   24741469.2794
     -3838.791       -2991.266
   6384416.655 9   4961733.41246  24070443.479    24070444.6104   24070452.5714
     -3385.926       -2638.384
  -7078521.878 9  -5500223.08647  22422055.768    22422056.9044   22422065.1784
      3056.466        2381.662
  -1316257.053 9   -945994.82448  20286062.708    20286063.6734   20286070.4224
       182.900         142.519
   -878433.017 9   -667110.55646  23983090.652    23983092.4214   23983099.9054
      2564.533        1998.337
  -4572428.335 9  -3550897.73246  24493842.236    24493843.4744   24493852.2204
      1948.795        1518.542
 97  4 29 16  0 30.0000000  0  8 19  2 18 31  7 27 26 15             0.000483831
   3911655.155 9   3040309.24148  22062151.196    22062152.5254   22062160.4004
     -2181.811       -1700.112
  -1936495.261 9  -1331634.11748  21350366.399    21350367.0724   21350374.6114
       610.557         475.759
   8088735.672 8   6286963.32546  24763375.155    24763376.1754   24763384.8444
     -3839.058       -2991.474
   6486128.805 9   5040989.59246  24089798.713    24089799.8664   24089807.7804
     -3395.002       -2645.456
  -7170070.258 9  -5571559.46947  22404634.712    22404635.8404   22404644.0884
      3046.655        2374.017
  -1321553.609 9   -950122.01448  20285054.848    20285055.7964   20285062.5304
       170.109         132.552
   -955190.934 9   -726921.90546  23968484.193    23968485.8594   23968493.3294
      2552.517        1988.974
  -4630730.456 9  -3596327.95446  24482747.619    24482748.9124   24482757.6524
      1937.922        1510.069
 97  4 29 16  1  0.0000000  0  8 19  2 18 31  7 27 26 15             0.000484275
   3977253.382 9   3091424.71348  22074634.179    22074635.4884   22074643.3434
     -2191.298       -1707.505
  -1954714.319 9  -1345830.77948  21346899.384    21346900.0994   21346907.6134
       604.152         470.768
   8203903.855 8   6376704.73645  24785290.940    24785292.1144   24785300.6364
     -3838.674       -2991.175
   6588098.995 9   5120446.84246  24109203.269    24109204.2304   24109212.1054
     -3403.037       -2651.717
  -7261337.599 9  -5642676.85447  22387267.082    22387268.2544   22387276.4924
      3038.021        2367.289
  -1326486.393 9   -953965.74348  20284116.145    20284117.1294   20284123.8614
       158.720         123.678
  -1031598.838 9   -786460.50546  23953944.311    23953945.8544   23953953.3694
      2541.359        1980.280
  -4688716.122 9  -3641511.57346  24471712.467    24471714.4854   24471723.3414
      1927.920        1502.275
 97  4 29 16  1 30.0000000  0  8 19  2 18 31  7 27 26 15             0.000484729
   4043140.895 9   3142765.60748  22087172.225    22087173.5124   22087181.3574
     -2201.124       -1715.162
  -1972733.515 9  -1359871.69848  21343470.460    21343471.1724   21343478.6884
       597.061         465.242
   8319060.018 8   6466436.78745  24807204.471    24807205.5664   24807214.1914
     -3838.268       -2990.858
   6690320.427 9   5200099.86146  24128655.330    24128656.3794   24128664.2584
     -3411.683       -2658.454
  -7352342.853 9  -5713590.01647  22369949.271    22369950.4574   22369958.7474
      3029.106        2360.342
  -1331062.433 9   -957531.48948  20283245.384    20283246.3454   20283253.0984
       146.398         114.076
  -1107660.066 9   -845728.98046  23939470.389    23939471.9074   23939479.4374
      2529.429        1970.984
  -4746394.583 9  -3686455.82246  24460735.611    24460738.7154   24460747.4754
      1917.386        1494.067
 97  4 29 16  2  0.0000000  0  8 19  2 18 31  7 27 26 15             0.000485197
   4109330.983 9   3194342.27248  22099767.782    22099769.1004   22099776.9644
     -2211.280       -1723.075
  -1990530.832 9  -1373739.72548  21340083.742    21340084.4474   21340091.9874
       589.737         459.535
   8434204.682 8   6556159.87845  24829115.929    24829116.8944   24829125.5384
     -3837.831       -2990.518
   6792801.174 9   5279954.95047  24148156.610    24148157.8964   24148165.7494
     -3420.166       -2665.064
  -7443079.470 9  -5784293.86148  22352682.718    22352683.8744   22352692.0994
      3020.221        2353.419
  -1335254.397 9   -960797.95748  20282447.691    20282448.6584   20282455.3934
       133.246         103.828
  -1183361.425 9   -904717.03446  23925064.948    23925066.4324   23925073.9714
      2517.746        1961.880
  -4803749.092 9  -3731147.64746  24449822.577    24449824.5744   24449833.2624
      1906.573        1485.641
 97  4 29 16  2 30.0000000  0  8 19  2 18 31  7 27 26 15             0.000485666
   4175821.117 9   3246152.73748  22112420.461    22112421.7944   22112429.6054
     -2221.042       -1730.682
  -2008101.502 9  -1387431.15048  21336740.128    21336740.8484   21336748.3664
       581.953         453.470
   8549348.035 8   6645881.95445  24851026.990    24851028.0134   24851036.6164
     -3838.165       -2990.778
   6895527.285 9   5360001.24047  24167704.734    24167706.1144   24167713.8734
     -3428.042       -2671.202
  -7533547.414 9  -5854788.34048  22335467.217    22335468.4394   22335476.6264
      3011.200        2346.390
  -1339051.776 9   -963756.95948  20281725.092    20281726.0614   20281732.7924
       120.210          93.670
  -1258715.282 9   -963434.31646  23910725.615    23910727.0624   23910734.6014
      2506.029        1952.750
  -4860778.378 9  -3775586.03946  24438971.201    24438972.3214   24438980.9654
      1895.669        1477.145
 97  4 29 16  3  0.0000000  0  8 19  2 18 31  7 27 26 15             0.000486139
   4242600.235 9   3298188.39048  22125128.133    22125129.4494   22125137.2404
     -2230.673       -1738.187
  -2025444.267 9  -1400944.97848  21333439.890    21333440.6334   21333448.1254
       574.620         447.756
   8664504.646 8   6735614.35245  24872940.543    24872941.6154   24872950.2024
     -3838.477       -2991.021
   6998489.758 9   5440231.69146  24187298.188    24187299.2594   24187307.0394
     -3435.929       -2677.347
  -7623745.878 9  -5925072.83648  22318303.041    22318304.2234   22318312.4294
      3002.319        2339.469
  -1342452.833 9   -966407.13948  20281077.904    20281078.8774   20281085.5864
       106.798          83.219
  -1333711.936 9  -1021873.26547  23896454.277    23896455.6814   23896463.2164
      2494.043        1943.410
  -4917481.703 9  -3819770.45146  24428179.304    24428182.0154   24428190.6904
      1884.855        1468.718
 97  4 29 16  3 30.0000000  0  8 19  2 18 31  7 27 26 15             0.000486615
   4309673.106 9   3350452.93948  22137891.747    22137893.0464   22137900.8284
     -2240.540       -1745.875
  -2042560.228 9  -1414282.07748  21330182.845    21330183.5874   21330191.0584
       566.633         441.532
   8779672.018 8   6825355.13145  24894856.089    24894857.3284   24894865.7644
     -3839.133       -2991.532
   7101695.591 9   5520651.78946  24206937.992    24206938.7174   24206946.4974
     -3444.330       -2683.894
  -7713667.362 9  -5995141.50348  22301191.676    22301192.7544   22301200.9314
      2992.498        2331.817
  -1345433.971 9   -968730.10748  20280510.670    20280511.6134   20280518.3044
        92.203          71.846
  -1408342.228 9  -1080026.73147  23882252.642    23882254.0404   23882261.5184
      2481.379        1933.542
  -4973854.025 9  -3863696.93146  24417451.750    24417454.7274   24417463.3714
      1873.378        1459.775
 97  4 29 16  4  0.0000000  0  8 19  2 18 31  7 27 26 15             0.000487093
   4377024.703 9   3402934.67548  22150708.321    22150709.6034   22150717.4204
     -2249.715       -1753.025
  -2059455.148 9  -1427446.94148  21326967.799    21326968.5934   21326976.0274
       559.650         436.091
   8894849.122 8   6915103.48745  24916773.840    24916774.8144   24916783.2964
     -3839.486       -2991.807
   7205131.719 9   5601251.32746  24226621.276    24226621.9874   24226629.7744
     -3451.685       -2689.625
  -7803304.080 9  -6064988.28948  22284134.248    22284135.3914   22284143.6024
      2983.067        2324.468
  -1347996.256 9   -970726.69948  20280023.152    20280024.0494   20280030.7294
        78.493          61.163
  -1482603.343 9  -1137892.53647  23868121.161    23868122.6684   23868130.0794
      2469.190        1924.044
  -5029894.752 9  -3907365.03146  24406787.426    24406790.5394   24406799.1544
      1862.420        1451.236
 97  4 29 16  4 30.0000000  0  8 19  2 18 31  7 27 26 15             0.000487601
   4444671.446 9   3455646.39648  22163581.033    22163582.3404   22163590.1514
     -2259.533       -1760.675
  -2076124.370 9  -1440435.93548  21323795.747    21323796.5364   21323803.9684
       552.123         430.226
   9010053.851 8   7004873.37045  24938696.388    24938697.5494   24938705.9234
     -3840.234       -2992.390
   7308811.219 9   5682040.50546  24246350.785    24246351.6294   24246359.3824
     -3459.815       -2695.960
  -7892632.331 9  -6134594.70448  22267135.660    22267136.7964   22267144.9964
      2972.539        2316.264
  -1350126.433 9   -972386.58548  20279617.781    20279618.6864   20279625.3504
        64.045          49.905
  -1556470.244 9  -1195451.16747  23854064.836    23854066.2734   23854073.6534
      2455.643        1913.488
  -5085585.630 9  -3950760.52146  24396190.761    24396192.8704   24396201.4884
      1850.699        1442.103
 97  4 29 16  5  0.0000000  0  8 19  2 18 31  7 27 26 15             0.000488097
   4512595.361 9   3508574.09348  22176506.627    22176507.9104   22176515.6994
     -2268.522       -1767.679
  -2092591.618 9  -1453267.54848  21320662.139    21320662.9154   21320670.3464
       545.898         425.375
   9125255.408 8   7094640.76645  24960618.671    24960619.7594   24960628.1454
     -3839.502       -2991.820
   7412719.433 9   5763007.92246  24266123.831    24266124.8624   24266132.5034
     -3467.180       -2701.699
  -7981660.466 9  -6203967.26148  22250194.261    22250195.3254   22250203.5054
      2962.820        2308.691
  -1351839.474 9   -973721.42348  20279291.777    20279292.7474   20279299.3634
        50.432          39.298
  -1629942.847 9  -1252702.54847  23840083.509    23840084.8944   23840092.2744
      2442.929        1903.581
  -5140938.276 9  -3993892.47146  24385658.165    24385659.6514   24385668.2134
      1839.705        1433.536
 97  4 29 16  5 30.0000000  0  8 19  2 18 31  7 27 26 15             0.000488600
   4580795.580 9   3561717.09548  22189484.733    22189486.0134   22189493.8224
     -2277.994       -1775.060
  -2108859.184 9  -1465943.56048  21317566.491    21317567.2704   21317574.7024
       538.778         419.827
   9240437.787 8   7184393.27045  24982537.359    24982538.2154   24982546.5634
     -3839.210       -2991.592
   7516856.094 9   5844153.32446  24285940.672    24285941.4484   24285949.0814
     -3475.033       -2707.818
  -8070380.615 9  -6273099.82948  22233311.307    22233312.3964   22233320.5904
      2952.061        2300.307
  -1353133.347 9   -974729.64048  20279045.594    20279046.5384   20279053.1594
        36.096          28.127
  -1703028.379 9  -1309652.30547  23826175.833    23826177.1994   23826184.6044
      2429.707        1893.278
  -5195951.078 9  -4036759.61046  24375188.133    24375190.9564   24375199.6734
      1827.969        1424.391
 97  4 29 16  6  0.0000000  0  8 19  2 18 31  7 27 26 15             0.000489111
   4649281.018 9   3615082.34548  22202517.060    22202518.3994   22202526.2294
     -2287.730       -1782.647
  -2124922.825 9  -1478460.67348  21314509.592    21314510.4144   21314517.8364
       532.231         414.725
   9355600.390 8   7274130.28945  25004452.064    25004452.9254   25004461.3824
     -3838.188       -2990.796
   7621213.610 9   5925470.85246  24305799.482    24305800.0144   24305807.6674
     -3482.218       -2713.417
  -8158795.012 9  -6341994.16048  22216486.553    22216487.7164   22216495.8694
      2942.201        2292.624
  -1354017.768 9   -975418.80048  20278877.336    20278878.2494   20278884.8614
        22.830          17.790
  -1775738.625 9  -1366309.63347  23812339.578    23812340.8914   23812348.2804
      2417.850        1884.039
  -5250621.382 9  -4079359.86746  24364784.295    24364787.5294   24364796.2384
      1816.821        1415.705
 97  4 29 16  6 30.0000000  0  8 19  2 18 31  7 27 26 15             0.000489631
   4718080.327 9   3668692.17248  22215609.249    22215610.5094   22215618.3314
     -2298.916       -1791.363
  -2140769.231 9  -1490808.50848  21311494.136    21311494.9064   21311502.3424
       523.922         408.251
   9470742.390 8   7363851.27545  25026362.641    25026363.8514   25026372.3964
     -3838.079       -2990.711
   7725812.969 9   6006976.81747  24325703.738    24325704.6394   24325712.3474
     -3491.276       -2720.475
  -8246892.618 9  -6410641.63148  22199722.313    22199723.3254   22199731.4544
      2930.706        2283.667
  -1354478.092 9   -975777.49548  20278789.713    20278790.6654   20278797.2604
         7.768           6.053
  -1848081.696 9  -1422680.84247  23798573.191    23798574.4814   23798581.8854
      2404.806        1873.875
  -5304941.145 9  -4121686.97946  24354449.127    24354450.8644   24354459.5484
      1804.215        1405.882
 97  4 29 16  7  0.0000000  0  8 19  2 18 31  7 27 26 15             0.000490161
   4787194.236 9   3722547.14348  22228761.206    22228762.5074   22228770.3094
     -2309.209       -1799.384
  -2156378.837 9  -1502971.83248  21308523.673    21308524.5004   21308531.9714
       516.275         402.292
   9585861.395 8   7453554.39645  25048269.304    25048270.2484   25048278.8804
     -3837.102       -2989.950
   7830664.021 9   6088678.89546  24345656.201    24345657.1464   24345664.8454
     -3499.260       -2726.696
  -8334662.144 9  -6479033.45948  22183020.192    22183021.3224   22183029.4554
      2920.140        2275.434
  -1354510.457 9   -975802.71848  20278783.586    20278784.5054   20278791.1014
        -6.188          -4.822
  -1920056.008 9  -1478764.71147  23784876.885    23784878.1904   23784885.5884
      2393.149        1864.791
  -5358900.844 9  -4163733.50346  24344181.064    24344182.6574   24344191.4744
      1792.547        1396.790
 97  4 29 16  7 30.0000000  0  8 19  2 18 31  7 27 26 15             0.000490690
   4856626.593 9   3776650.24948  22241973.751    22241975.0894   22241982.8664
     -2319.920       -1807.730
  -2171757.175 9  -1514954.94748  21305597.304    21305598.1224   21305605.6134
       508.574         396.291
   9700950.394 8   7543234.09745  25070169.901    25070171.1444   25070179.5244
     -3836.143       -2989.202
   7935755.289 9   6170568.17646  24365654.590    24365655.3654   24365663.1254
     -3507.230       -2732.906
  -8422108.517 9  -6547173.48548  22166379.644    22166380.8424   22166388.9484
      2909.271        2266.964
  -1354112.143 9   -975492.34648  20278859.398    20278860.3134   20278866.9234
       -20.747         -16.166
  -1991679.364 9  -1534575.11047  23771247.370    23771248.7434   23771256.1304
      2381.304        1855.562
  -5412500.986 9  -4205499.85846  24333981.707    24333982.8054   24333991.7064
      1780.290        1387.239
 97  4 29 16  8  0.0000000  0  8 19  2 18 31  7 27 26 15             0.000491224
   4926387.090 9   3831009.04948  22255248.706    22255250.0694   22255257.9054
     -2330.202       -1815.742
  -2186899.070 9  -1526753.81648  21302715.904    21302716.7154   21302724.2054
       501.392         390.695
   9816022.771 8   7632900.80645  25092067.608    25092068.6044   25092077.2784
     -3834.806       -2988.160
   8041084.463 9   6252642.82746  24385698.199    24385698.8904   24385706.6434
     -3514.409       -2738.501
  -8509221.019 9  -6615053.34348  22149802.748    22149803.8964   22149812.0134
      2898.563        2258.620
  -1353272.591 9   -974838.15248  20279019.166    20279020.0614   20279026.6844
       -34.788         -27.108
  -2062939.620 9  -1590102.56947  23757686.969    23757688.3704   23757695.7794
      2369.697        1846.517
  -5465724.771 9  -4246972.92846  24323853.906    24323854.6304   24323863.5674
      1768.335        1377.923
 97  4 29 16  8 30.0000000  0  8 19  2 18 31  7 27 26 15             0.000491754
   4996442.194 9   3885597.42448  22268579.717    22268581.1354   22268588.9734
     -2340.065       -1823.427
  -2201832.368 9  -1538390.14248  21299874.226    21299874.9984   21299882.4794
       494.073         384.992
   9931045.786 8   7722529.06345  25113955.497    25113956.6664   25113965.4114
     -3833.458       -2987.110
   8146621.516 9   6334879.47646  24405781.148    24405781.9844   24405789.7114
     -3521.311       -2743.879
  -8596009.488 9  -6682680.70248  22133287.430    22133288.5644   22133296.7034
      2887.403        2249.924
  -1352011.491 9   -973855.47948  20279259.103    20279260.0454   20279266.6564
       -49.134         -38.286
  -2133846.285 9  -1645354.50547  23744193.830    23744195.2964   23744202.6854
      2357.295        1836.853
  -5518586.829 9  -4288164.11746  24313794.419    24313795.3704   24313804.2724
      1755.712        1368.087
 97  4 29 16  9  0.0000000  0  8 19  2 18 31  7 27 26 15             0.000492273
   5066773.496 9   3940401.01248  22281963.376    22281964.7434   22281972.5854
     -2349.175       -1830.526
  -2216574.442 9  -1549877.46248  21297068.868    21297069.6424   21297077.1284
       488.301         380.494
  10046006.279 8   7812108.64345  25135832.078    25135833.0664   25135841.6494
     -3831.185       -2985.339
   8252325.362 9   6417246.06546  24425895.825    24425896.7514   24425904.4954
     -3526.151       -2747.650
  -8682493.064 9  -6750070.49548  22116830.061    22116831.2714   22116839.3694
      2877.672        2242.342
  -1350352.668 9   -972562.89048  20279574.763    20279575.7134   20279582.3374
       -62.089         -48.381
  -2204403.704 9  -1700334.30547  23730767.163    23730768.6784   23730776.0474
      2346.058        1828.097
  -5571093.191 9  -4329078.13046  24303803.674    24303803.7724   24303812.6224
      1744.247        1359.154
 97  4 29 16  9 30.0000000  0  8 19  2 18 31  7 27 26 15             0.000492790
   5137402.365 9   3995436.46748  22295403.566    22295404.9704   22295412.8254
     -2359.119       -1838.274
  -2231123.018 9  -1561214.00948  21294300.335    21294301.1464   21294308.6024
       481.773         375.408
  10160926.599 7   7901656.93045  25157700.513    25157701.7714   25157710.0584
     -3830.047       -2984.452
   8358196.389 9   6499742.93146  24446042.511    24446043.4224   24446051.1434
     -3531.911       -2752.138
  -8768658.113 9  -6817212.07148  22100433.369    22100434.5964   22100442.6864
      2866.965        2233.999
  -1348283.833 9   -970950.81648  20279968.457    20279969.3924   20279976.0304
       -75.504         -58.834
  -2274596.362 9  -1755029.87747  23717409.925    23717411.4724   23717418.8034
      2333.475        1818.292
  -5623228.855 9  -4369703.27946  24293882.355    24293882.6894   24293891.5454
      1731.707        1349.382
 97  4 29 16 10  0.0000000  0  8 19  2 18 31  7 27 26 15             0.000493318
   5208323.988 9   4050700.04447  22308899.508    22308900.9434   22308908.7964
     -2369.257       -1846.174
  -2245475.931 9  -1572398.09048  21291568.988    21291569.8634   21291577.3024
       474.873         370.031
  10275812.33817   7991178.22555  25179562.804    25179564.3015          0.0005
     -3828.874       -2983.538
   8464241.900 9   6582375.77246  24466222.152    24466223.1924   24466230.9714
     -3538.116       -2756.974
  -8854513.504 9  -6884112.35548  22084095.723    22084096.8584   22084104.9734
      2856.394        2225.762
  -1345833.035 9   -969041.10548  20280434.842    20280435.7674   20280442.4324
       -88.143         -68.683
  -2344412.089 9  -1809431.74247  23704124.527    23704126.0144   23704133.2804
      2320.622        1808.277
  -5674995.038 9  -4410040.50746  24284030.835    24284031.9454   24284040.7794
      1719.139        1339.589
 97  4 29 16 10 30.0000000  0  8 19  2 18 31  7 27 26 15             0.000493867
   5279548.769 9   4106199.84948  22322453.163    22322454.5834   22322462.4734
     -2379.357       -1854.044
  -2259621.609 9  -1583420.69148  21288877.242    21288878.0604   21288885.4754
       467.909         364.604
  10390662.33616   8080671.65254  25201418.119           0.0005          0.0005
     -3828.263       -2983.062
   8570472.340 9   6665152.71446  24486437.063    24486438.2134   24486445.9824
     -3544.337       -2761.821
  -8940052.930 9  -6950766.43648  22067818.089    22067819.2724   22067827.3274
      2845.973        2217.641
  -1343005.005 9   -966837.44448  20280972.991    20280973.9294   20280980.5924
      -100.711         -78.476
  -2413841.195 9  -1863532.34447  23690912.622    23690914.1144   23690921.3074
      2307.626        1798.150
  -5726385.265 9  -4450084.77946  24274252.020    24274252.6824   24274261.5374
      1706.548        1329.778
 97  4 29 16 11  0.0000000  0  8 19  2 18 31  7 27 26 15             0.000494442
   5351071.774 9   4161932.03747  22336063.562    22336064.9454   22336072.8944
     -2389.037       -1861.587
  -2273568.574 9  -1594288.45048  21286223.221    21286224.0514   21286231.4524
       461.428         359.554
  10505482.94616   8170142.24754  25223268.611           0.0005          0.0005
     -3827.200       -2982.234
   8676889.901 9   6748075.45146  24506687.734    24506688.8314   24506696.5904
     -3550.740       -2766.810
  -9025283.096 9  -7017179.53348  22051599.339    22051600.4844   22051608.5374
      2835.574        2209.538
  -1339801.283 9   -964341.04648  20281582.672    20281583.5894   20281590.2654
      -113.536         -88.470
  -2482871.499 9  -1917322.18847  23677776.703    23677778.1224   23677785.2454
      2294.080        1787.595
  -5777402.321 9  -4489838.26446  24264544.307    24264544.3924   24264553.3004
      1694.204        1320.159
 97  4 29 16 11 30.0000000  0  7 19  2 31  7 27 26 15                0.000495043
   5422882.880 9   4217888.71947  22349728.772    22349730.1724   22349738.1064
     -2398.171       -1868.705
  -2287313.911 9  -1604999.09448  21283607.592    21283608.4094   21283615.8304
       455.015         354.557
   8783516.303 9   6831160.92246  24526978.063    24526979.1384   24526986.9374
     -3557.638       -2772.185
  -9110189.377 9  -7083340.25748  22035442.232    22035443.3474   22035451.3904
      2825.039        2201.329
  -1336203.111 9   -961537.27948  20282267.389    20282268.3224   20282274.9744
      -126.468         -98.546
  -2551486.166 9  -1970788.15747  23664719.778    23664721.1564   23664728.2974
      2280.256        1776.823
  -5828042.479 9  -4529298.07446  24254907.528    24254907.8264   24254916.7674
      1681.868        1310.546
 97  4 29 16 12  0.0000000  0  7 19  2 31  7 27 26 15                0.000495670
   5494974.907 9   4274064.30047  22363447.523    22363448.8624   22363456.8104
     -2407.237       -1875.769
  -2300858.397 9  -1615553.23548  21281030.202    21281031.0144   21281038.4174
       448.592         349.552
   8890354.060 9   6914411.06446  24547308.729    24547309.7354   24547317.5394
     -3563.967       -2777.117
  -9194767.220 9  -7149245.04648  22019347.642    22019348.7294   22019356.7814
      2814.047        2192.764
  -1332188.380 9   -958408.92448  20283031.405    20283032.3264   20283038.9864
      -140.681        -109.622
  -2619671.758 9  -2023919.76947  23651744.518    23651745.8684   23651753.0324
      2266.137        1765.821
  -5878298.168 9  -4568458.29846  24245344.262    24245344.5024   24245353.3424
      1669.249        1300.714
 97  4 29 16 12 30.0000000  0  7 19  2 31  7 27 26 15                0.000496303
   5567335.270 9   4330448.97847  22377217.238    22377218.6114   22377226.5934
     -2416.224       -1882.772
  -2314210.689 9  -1625957.61148  21278489.356    21278490.1494   21278497.5724
       442.061         344.463
   8997372.739 9   6997802.22646  24567674.236    24567674.7654   24567682.5734
     -3570.170       -2781.951
  -9279010.180 9  -7214888.89048  22003316.760    22003317.8024   22003325.8334
      2802.758        2183.967
  -1327726.406 9   -954932.06148  20283880.481    20283881.4214   20283888.0764
      -156.335        -121.819
  -2687429.184 9  -2076717.74147  23638850.759    23638852.0594   23638859.2314
      2251.591        1754.486
  -5928174.039 9  -4607322.57946  24235852.842    24235853.3894   24235862.1734
      1656.423        1290.719
 97  4 29 16 13  0.0000000  0  7 19  2 31  7 27 26 15                0.000496943
   5639987.849 9   4387061.35147  22391042.586    22391043.9884   22391051.9634
     -2426.686       -1890.924
  -2327337.885 9  -1636186.59048  21275991.363    21275992.1284   21275999.5544
       433.700         337.948
   9104597.390 9   7081353.84946  24588078.349    24588078.9844   24588086.7794
     -3577.700       -2787.818
  -9362895.803 9  -7280254.29648  21987353.788    21987354.8834   21987362.9034
      2790.242        2174.215
  -1322763.848 9   -951065.13948  20284824.838    20284825.7774   20284832.4354
      -173.843        -135.462
  -2754731.266 9  -2129160.90847  23626043.607    23626044.9104   23626052.0344
      2236.090        1742.408
  -5977642.900 9  -4645869.70446  24226439.575    24226439.7264   24226448.5074
      1642.185        1279.625
 97  4 29 16 13 30.0000000  0  7 19  2 31  7 27 26 15                0.000497567
   5712921.401 9   4443892.67347  22404921.496    22404922.8314   22404930.7714
     -2435.954       -1898.146
  -2340245.238 9  -1646244.26148  21273535.226    21273535.9684   21273543.3564
       426.451         332.299
   9212012.224 9   7165053.70246  24608518.924    24608519.3594   24608527.2324
     -3583.616       -2792.428
  -9446445.416 9  -7345357.87048  21971454.747    21971455.9144   21971463.9464
      2779.414        2165.777
  -1317318.559 9   -946822.05948  20285861.039    20285861.9904   20285868.6494
      -189.378        -147.567
  -2821618.602 9  -2181280.90247  23613315.336    23613316.6584   23613323.8044
      2222.741        1732.006
  -6026720.652 9  -4684112.07446  24217099.839    24217100.4614   24217109.3164
      1629.259        1269.552
 97  4 29 16 14  0.0000000  0  7 19  2 31  7 27 26 15                0.000498171
   5786133.588 9   4500941.11047  22418853.311    22418854.6624   22418862.6244
     -2445.266       -1905.402
  -2352932.714 9  -1656130.59948  21271120.909    21271121.6404   21271129.0334
       418.906         326.420
   9319602.702 9   7248890.38446  24628992.737    24628993.1524   24629001.0554
     -3589.487       -2797.003
  -9529672.459 9  -7410210.09548  21955617.188    21955618.3114   21955626.3624
      2768.569        2157.326
  -1311412.177 9   -942219.68648  20286984.956    20286985.9594   20286992.6184
      -204.531        -159.375
  -2888105.866 9  -2233089.15947  23600663.161    23600664.5314   23600671.7184
      2209.443        1721.644
  -6075410.628 9  -4722052.28546  24207834.065    24207835.0384   24207843.8874
      1616.290        1259.447
 97  4 29 16 14 30.0000000  0  7 19  2 31  7 27 26 15                0.000498782
   5859628.219 9   4558209.62447  22432838.833    22432840.2454   22432848.2144
     -2454.457       -1912.564
  -2365382.925 9  -1665832.05448  21268751.683    21268752.4734   21268759.8394
       411.172         320.394
   9427379.334 9   7332872.13046  24649501.984    24649502.4154   24649510.3154
     -3595.871       -2801.977
  -9612566.115 9  -7474802.53248  21939843.039    21939844.1364   21939852.1674
      2757.600        2148.779
  -1305055.748 9   -937266.62048  20288194.562    20288195.5764   20288202.2244
      -219.011        -170.658
  -2954191.891 9  -2284584.74947  23588087.401    23588088.7844   23588095.9664
      2196.473        1711.537
  -6123702.746 9  -4759682.47646  24198644.394    24198645.2914   24198654.1714
      1603.096        1249.166
 97  4 29 16 15  0.0000000  0  7 19  2 31  7 27 26 15                0.000499375
   5933406.634 9   4615699.28547  22446878.427    22446879.8354   22446887.8044
     -2463.876       -1919.903
  -2377601.578 9  -1675353.07648  21266426.538    21266427.3354   21266434.7264
       403.771         314.627
   9535353.946 8   7417008.14945  24670048.703    24670049.2874   24670057.1374
     -3602.212       -2806.918
  -9695121.572 9  -7539131.43648  21924133.168    21924134.3514   21924142.3894
      2746.154        2139.860
  -1298276.234 9   -931983.88048  20289484.689    20289485.6784   20289492.3194
      -232.742        -181.357
  -3019893.539 9  -2335780.83147  23575584.734    23575586.1294   23575593.3164
      2183.707        1701.590
  -6171591.204 9  -4796998.12446  24189531.950    24189532.4184   24189541.3064
      1589.608        1238.656
 97  4 29 16 15 30.0000000  0  7 19  2 31  7 27 26 15                0.000499971
   6007457.218 9   4673401.02147  22460969.791    22460971.2344   22460979.1744
     -2473.129       -1927.114
  -2389612.153 9  -1684711.96548  21264140.996    21264141.8034   21264149.1854
       396.747         309.154
   9643507.763 8   7501283.82755  24690628.941    24690628.6874          0.0005
     -3608.092       -2811.500
  -9777334.713 9  -7603193.60048  21908488.567    21908489.7124   21908497.7874
      2734.477        2130.761
  -1291099.673 9   -926391.75748  20290850.341    20290851.3374   20290857.9644
      -246.026        -191.709
  -3085211.811 9  -2386678.18047  23563155.034    23563156.4804   23563163.6214
      2170.467        1691.273
  -6219080.491 9  -4834002.73446  24180495.230    24180495.5014   24180504.3134
      1576.052        1228.092
 97  4 29 16 16  0.0000000  0  7 19  2 31  7 27 26 15                0.000500583
   6081791.025 9   4731323.44247  22475115.062    22475116.4964   22475124.4444
     -2482.484       -1934.403
  -2401412.214 9  -1693906.81448  21261895.550    21261896.3144   21261903.7054
       390.097         303.972
   9751835.934 7   7585695.37454  24711242.742    24711245.6194          0.0005
     -3613.686       -2815.859
  -9859191.632 9  -7666978.19448  21892911.765    21892912.8804   21892920.9084
      2722.670        2121.561
  -1283513.380 9   -920480.35948  20292293.947    20292294.9294   20292301.5704
      -259.781        -202.427
  -3150120.960 9  -2437256.73747  23550803.264    23550804.7104   23550811.8194
      2156.856        1680.667
  -6266157.544 9  -4870686.11846  24171536.214    24171537.0134   24171545.7654
      1562.403        1217.457
 97  4 29 16 16 30.0000000  0  7 19  2 31  7 27 26 15                0.000501210
   6156407.599 9   4789466.20347  22489314.161    22489315.5914   22489323.5344
     -2492.395       -1942.126
  -2413021.857 9  -1702953.28848  21259686.297    21259687.0554   21259694.4444
       383.674         298.967
   9860319.19316   7670227.74554  24731887.251    24731890.0915          0.0005
     -3619.155       -2820.121
  -9940692.465 9  -7730485.31148  21877402.710    21877403.7704   21877411.8164
      2710.401        2112.001
  -1275511.763 9   -914245.33348  20293816.663    20293817.5924   20293824.2374
      -274.025        -213.526
  -3214621.864 9  -2487517.17147  23538529.148    23538530.6194   23538537.7384
      2142.944        1669.826
  -6312829.827 9  -4907054.10146  24162654.890    24162655.5724   24162664.3484
      1548.716        1206.792
 97  4 29 16 17  0.0000000  0  6 19  2  7 27 26 15                   0.000501858
   6231329.092 9   4847846.56847  22503571.268    22503572.6924   22503580.6274
     -2502.337       -1949.873
  -2424450.756 9  -1711858.92748  21257511.474    21257512.2224   21257519.5804
       378.043         294.579
 -10021832.159 9  -7793711.03148  21861962.315    21861963.4154   21861971.4514
      2698.997        2103.115
  -1267083.758 9   -907678.05748  20295420.426    20295421.3944   20295428.0334
      -287.963        -224.387
  -3278698.918 9  -2537447.33147  23526335.716    23526337.1934   23526344.3064
      2128.705        1658.731
  -6359093.949 9  -4943104.03046  24153850.520    24153851.7594   24153860.6014
      1535.493        1196.488
 97  4 29 16 17 30.0000000  0  6 19  2  7 27 26 15                   0.000502535
   6306564.537 9   4906471.56447  22517888.064    22517889.5214   22517897.4374
     -2513.268       -1958.391
  -2435684.772 9  -1720612.70148  21255373.725    21255374.4454   21255381.8324
       370.933         289.039
 -10102623.448 9  -7856665.25448  21846588.255    21846589.3264   21846597.3504
      2687.160        2093.891
  -1258222.128 9   -900772.89448  20297106.695    20297107.7024   20297114.3604
      -302.689        -235.862
  -3342331.388 9  -2587031.06847  23514226.881    23514228.3754   23514235.4604
      2113.571        1646.938
  -6404945.373 9  -4978832.39146  24145125.038    24145126.5264   24145135.3454
      1521.283        1185.415
 97  4 29 16 18  0.0000000  0  6 19  2  7 27 26 15                   0.000503243
   6382122.065 9   4965347.53247  22532266.180    22532267.6674   22532275.5924
     -2523.864       -1966.647
  -2446715.646 9  -1729208.18348  21253274.603    21253275.3184   21253282.7194
       364.341         283.902
 -10183067.802 9  -7919349.14148  21831280.057    21831281.2674   21831289.2444
      2675.552        2084.846
  -1248926.720 9   -893529.72648  20298875.566    20298876.5834   20298883.2024
      -317.097        -247.089
  -3405514.047 9  -2636264.29647  23502203.680    23502205.1284   23502212.1984
      2098.687        1635.341
  -6450377.161 9  -5014233.75546  24136480.168    24136481.1454   24136489.8954
      1507.406        1174.602
 97  4 29 16 18 30.0000000  0  6 19  2  7 27 26 15                   0.000503981
   6457995.461 9   5024469.63347  22546704.402    22546705.9264   22546713.8544
     -2534.142       -1974.656
  -2457537.091 9  -1737640.47548  21251215.311    21251216.0584   21251223.4704
       357.208         278.344
 -10263155.001 9  -7981754.72448  21816040.011    21816041.1344   21816049.1234
      2663.833        2075.714
  -1239201.325 9   -885951.50048  20300726.250    20300727.2564   20300733.8944
      -331.122        -258.017
  -3468251.558 9  -2685150.65947  23490265.065    23490266.5484   23490273.6444
      2084.044        1623.930
  -6495385.581 9  -5049305.22846  24127915.287    24127916.3094   24127925.0594
      1493.364        1163.660
 97  4 29 16 19  0.0000000  0  6 19  2  7 27 26 15                   0.000504734
   6534162.610 9   5083820.62747  22561198.694    22561200.1014   22561208.0154
     -2543.684       -1982.091
  -2468145.572 9  -1745906.81848  21249196.555    21249197.3224   21249204.7554
       349.654         272.458
 -10342902.256 9  -8043895.41348  21800864.544    21800865.7504   21800873.7134
      2652.510        2066.891
  -1229060.632 9   -878049.66748  20302655.992    20302656.9674   20302663.6144
      -345.271        -269.042
  -3530557.617 9  -2733700.82047  23478408.550    23478410.0854   23478417.2224
      2069.509        1612.604
  -6539980.528 9  -5084054.52546  24119429.007    24119430.0954   24119438.9004
      1479.380        1152.764
 97  4 29 16 19 30.0000000  0  6 19  2  7 27 26 15                   0.000505492
   6610609.133 9   5143389.31647  22575745.857    22575747.3654   22575755.3044
     -2552.741       -1989.149
  -2478511.962 9  -1753984.51548  21247223.849    21247224.6354   21247232.1104
       341.684         266.247
 -10422295.168 9  -8105759.99648  21785756.545    21785757.7874   21785765.7274
      2640.065        2057.194
  -1218481.991 9   -869806.57448  20304669.116    20304670.0344   20304676.6684
      -360.144        -280.632
  -3592428.327 9  -2781911.76347  23466634.928    23466636.4704   23466643.6394
      2055.053        1601.340
  -6584145.627 9  -5118468.87846  24111024.709    24111025.7154   24111034.4864
      1464.885        1141.469
 97  4 29 16 20  0.0000000  0  6 19  2  7 27 26 15                   0.000506251
   6687321.492 9   5203165.14947  22590343.933    22590345.2844   22590353.1944
     -2561.800       -1996.208
  -2488649.435 9  -1761883.84248  21245294.656    21245295.5024   21245303.0164
       333.806         260.108
 -10501303.893 9  -8167325.20848  21770721.629    21770722.9134   21770730.8604
      2626.752        2046.820
  -1207440.961 9   -861203.18248  20306770.157    20306771.0674   20306777.7204
      -376.357        -293.265
  -3653858.754 9  -2829779.62948  23454945.080    23454946.6414   23454953.7874
      2040.116        1589.701
  -6627878.096 9  -5152546.11646  24102702.644    24102703.6494   24102712.4694
      1450.220        1130.042
 97  4 29 16 20 30.0000000  0  6 19  2  7 27 26 15                   0.000506998
   6764299.118 9   5263147.69447  22604992.365    22604993.7284   22605001.5864
     -2570.276       -2002.812
  -2498556.255 9  -1769603.43548  21243409.416    21243410.2864   21243417.7954
       326.593         254.488
 -10579917.343 9  -8228582.42148  21755761.970    21755763.2304   21755771.1794
      2613.989        2036.875
  -1195913.873 9   -852221.04648  20308963.697    20308964.6164   20308971.2374
      -392.301        -305.689
  -3714852.732 9  -2877307.39448  23443338.401    23443339.8964   23443347.0354
      2025.883        1578.610
  -6671175.167 9  -5186284.09846  24094463.731    24094464.4754   24094473.2914
      1436.068        1119.014
 97  4 29 16 21  0.0000000  0  6 19  2  7 27 26 15                   0.000507729
   6841539.463 9   5323334.93947  22619690.754    22619692.0864   22619699.9954
     -2579.122       -2009.705
  -2508255.189 9  -1777161.03848  21241563.790    21241564.6344   21241572.1294
       320.047         249.387
 -10658141.356 9  -8289536.17648  21740876.444    21740877.6464   21740885.5984
      2600.842        2026.630
  -1183897.181 9   -842857.39548  20311250.355    20311251.3174   20311257.9344
      -408.811        -318.554
  -3775412.183 9  -2924496.56448  23431814.365    23431815.8484   23431822.9794
      2011.436        1567.353
  -6714040.982 9  -5219686.01846  24086306.717    24086307.4204   24086316.1664
      1421.543        1107.696
 97  4 29 16 21 30.0000000  0  6 19  2  7 27 26 15                   0.000508443
   6919040.310 9   5383725.17947  22634438.713    22634440.0124   22634447.9474
     -2588.276       -2016.838
  -2517774.388 9  -1784578.58548  21239752.290    21239753.1824   21239760.6904
       314.222         244.848
 -10735975.230 9  -8350185.92348  21726065.136    21726066.3494   21726074.3254
      2587.477        2016.216
  -1171403.502 9   -833122.06548  20313627.825    20313628.7934   20313635.4284
      -424.564        -330.829
  -3835555.897 9  -2971361.78247  23420369.439    23420370.8824   23420378.0034
      1997.488        1556.484
  -6756477.424 9  -5252753.38946  24078231.380    24078232.0314   24078240.7194
      1406.972        1096.342
 97  4 29 16 22  0.0000000  0  6 19  2  7 27 26 15                   0.000509160
   6996837.377 9   5444346.25347  22649242.918    22649244.3474   22649252.2534
     -2597.969       -2024.391
  -2527113.942 9  -1791856.15248  21237975.064    21237975.9444   21237983.4434
       308.551         240.429
 -10813408.196 9  -8410523.28148  21711330.098    21711331.3614   21711339.3144
      2575.127        2006.592
  -1158435.090 9   -823016.81648  20316095.654    20316096.5944   20316103.2404
      -439.611        -342.554
  -3895272.200 9  -3017893.96147  23409005.849    23409007.2124   23409014.3184
      1983.906        1545.901
  -6798467.018 9  -5285472.54446  24070240.645    24070241.7104   24070250.3144
      1392.578        1085.126
 97  4 29 16 22 30.0000000  0  6 19  2  7 27 26 15                   0.000509875
   7074923.121 9   5505192.26147  22664102.239    22664103.6074   22664111.4974
     -2607.376       -2031.722
  -2536279.394 9  -1798998.05048  21236230.963    21236231.8174   21236239.2904
       302.689         235.862
 -10890473.580 9  -8470574.20548  21696665.071    21696666.2684   21696674.2114
      2562.981        1997.128
  -1145027.248 9   -812569.14748  20318647.091    20318648.0224   20318654.6754
      -453.892        -353.682
  -3954583.875 9  -3064110.84547  23397719.207    23397720.5744   23397727.6884
      1970.183        1535.207
  -6840021.655 9  -5317852.76646  24062333.247    24062334.0634   24062342.7334
      1378.016        1073.779
 97  4 29 16 23  0.0000000  0  6 19  2  7 27 26 15                   0.000510597
   7153288.864 9   5566256.44447  22679014.722    22679016.1104   22679024.0194
     -2617.207       -2039.382
  -2545268.703 9  -1806002.69448  21234520.345    21234521.1984   21234528.6874
       296.268         230.858
 -10967182.024 9  -8530346.99648  21682067.895    21682069.1344   21682077.1014
      2550.668        1987.534
  -1131193.367 9   -801789.50848  20321279.612    20321280.5424   20321287.1914
      -468.677        -365.203
  -4013473.911 9  -3109999.17848  23386512.797    23386514.1664   23386521.2864
      1955.469        1523.742
  -6881138.412 9  -5349891.77546  24054509.311    24054509.8224   24054518.4344
      1362.770        1061.899
 97  4 29 16 23 30.0000000  0  6 19  2  7 27 26 15                   0.000511333
   7231939.564 9   5627542.67447  22693981.416    22693982.8334   22693990.7824
     -2625.826       -2046.098
  -2554057.768 9  -1812851.31248  21232847.876    21232848.7104   21232856.1874
       290.191         226.123
 -11043529.616 9  -8589838.60048  21667539.505    21667540.6574   21667548.6394
      2539.496        1978.828
  -1116922.312 9   -790669.21148  20323995.285    20323996.2374   20324002.8914
      -482.374        -375.876
  -4071915.754 9  -3155538.27548  23375391.619    23375393.0184   23375400.1294
      1940.882        1512.376
  -6921798.741 9  -5381575.11246  24046771.997    24046772.4964   24046781.0214
      1348.333        1050.649
 97  4 29 16 24  0.0000000  0  6 19  2  7 27 26 15                   0.000512089
   7310863.512 9   5689041.83247  22709000.204    22709001.5984   22709009.5224
     -2635.066       -2053.298
  -2562650.036 9  -1819546.57548  21231212.804    21231213.6564   21231221.1254
       283.174         220.655
 -11119525.418 9  -8649056.08648  21653077.989    21653079.1384   21653087.1134
      2527.529        1969.503
  -1102218.496 9   -779211.69748  20326793.314    20326794.2954   20326800.9554
      -497.333        -387.532
  -4129891.989 9  -3200714.55348  23364359.107    23364360.5354   23364367.6484
      1924.844        1499.878
  -6962011.282 9  -5412909.51446  24039119.856    24039120.2394   24039128.8124
      1333.163        1038.828
 97  4 29 16 24 30.0000000  0  6 19  2  7 27 26 15                   0.000512858
   7390047.731 9   5750743.79147  22724068.504    22724069.8764   22724077.7844
     -2644.091       -2060.331
  -2571034.577 9  -1826079.97148  21229617.302    21229618.0954   21229625.5764
       275.721         214.847
 -11195161.909 9  -8707993.58548  21638684.852    21638685.9864   21638693.9584
      2514.747        1959.543
  -1087067.789 9   -767405.95948  20329676.361    20329677.3764   20329684.0604
      -512.813        -399.595
  -4187386.416 9  -3245515.39648  23353418.288    23353419.7104   23353426.8474
      1908.071        1486.809
  -7001774.608 9  -5443893.87146  24031553.116    24031553.5634   24031562.0854
      1317.577        1026.683
 97  4 29 16 25  0.0000000  0  6 19  2  7 27 26 15                   0.000513651
   7469505.566 9   5812658.96247  22739188.757    22739190.2114   22739198.1324
     -2653.370       -2067.561
  -2579213.881 9  -1832453.44548  21228060.731    21228061.6024   21228069.0634
       269.352         209.885
 -11270421.394 9  -8766637.31448  21624363.357    21624364.5424   21624372.5074
      2502.119        1949.703
  -1071463.345 9   -755246.65448  20332645.781    20332646.8154   20332653.4864
      -527.807        -411.278
  -4244394.331 9  -3289937.12647  23342570.064    23342571.4754   23342578.6124
      1892.392        1474.591
  -7041078.526 9  -5474520.24046  24024073.640    24024074.2664   24024082.7534
      1302.427        1014.878
 97  4 29 16 25 30.0000000  0  6 19  2  7 27 26 15                   0.000514466
   7549254.849 9   5874801.22747  22754364.697    22754366.0624   22754373.9584
     -2662.971       -2075.042
  -2587187.726 9  -1838666.82248  21226543.428    21226544.2414   21226551.6994
       262.598         204.622
 -11345282.345 9  -8824970.50048  21610117.816    21610118.9774   21610126.9414
      2488.873        1939.382
  -1055405.461 9   -742734.02748  20335701.523    20335702.5484   20335709.1924
      -542.462        -422.698
  -4300935.423 9  -3333995.11147  23331810.680    23331812.0484   23331819.1844
      1877.383        1462.896
  -7079920.156 9  -5504786.37146  24016682.218    24016682.9144   24016691.3774
      1287.423        1003.187
 97  4 29 16 26  0.0000000  0  6 19  2  7 27 26 15                   0.000515295
   7629304.975 9   5937177.92347  22769597.662    22769599.1214   22769607.0404
     -2672.962       -2082.827
  -2594952.161 9  -1844717.02348  21225065.916    21225066.7084   21225074.1364
       255.498         199.089
 -11419732.581 9  -8882983.64448  21595950.490    21595951.5674   21595959.5104
      2475.086        1928.638
  -1038896.581 9   -729869.97648  20338843.053    20338844.1094   20338850.7434
      -557.608        -434.500
  -4357032.836 9  -3377707.39147  23321135.691    23321137.0804   23321144.1884
      1863.068        1451.741
  -7118306.506 9  -5534697.74946  24009377.688    24009378.1744   24009386.6654
      1272.186         991.314
 97  4 29 16 26 30.0000000  0  6 19  2  7 27 26 15                   0.000516120
   7709643.764 9   5999779.53647  22784885.581    22784887.0774   22784895.0084
     -2681.912       -2089.802
  -2602514.726 9  -1850609.92748  21223626.856    21223627.6264   21223635.0084
       249.767         194.624
 -11493776.689 9  -8940680.32348  21581860.317    21581861.4554   21581869.3774
      2462.217        1918.611
  -1021942.950 9   -716659.36548  20342069.253    20342070.2864   20342076.9244
      -571.551        -445.364
  -4412712.771 9  -3421094.34347  23310540.078    23310541.5204   23310548.6494
      1849.991        1441.551
  -7156239.007 9  -5564255.47446  24002158.987    24002159.7884   24002168.2704
      1257.669         980.002
 97  4 29 16 27  0.0000000  0  6 19  2  7 27 26 15                   0.000516955
   7790278.355 9   6062611.65247  22800229.957    22800231.3614   22800239.2354
     -2692.731       -2098.232
  -2609886.087 9  -1856353.83648  21222224.050    21222224.8574   21222232.2664
       242.444         188.917
 -11567407.601 9  -8998055.03448  21567848.830    21567849.9394   21567857.8304
      2447.424        1907.084
  -1004542.895 9   -703100.88648  20345380.374    20345381.4324   20345388.0654
      -587.703        -457.950
  -4467966.548 9  -3464149.21447  23300025.534    23300027.0144   23300034.1784
      1834.306        1429.329
  -7193704.941 9  -5593449.63446  23995029.167    23995030.1754   23995038.7414
      1240.941         966.967
 97  4 29 16 27 30.0000000  0  6 19  2  7 27 26 15                   0.000517792
   7871189.554 9   6125659.31947  22815626.902    22815628.3194   22815636.1594
     -2701.307       -2104.915
  -2617063.076 9  -1861946.28548  21220858.337    21220859.1284   21220866.5374
       235.986         183.885
 -11640636.625 9  -9055116.58548  21553913.741    21553914.8664   21553922.7694
      2434.502        1897.014
   -986689.226 9   -689188.94948  20348777.815    20348778.8784   20348785.5034
      -602.718        -469.650
  -4522777.810 9  -3506859.28648  23289595.279    23289596.7624   23289603.9464
      1819.516        1417.805
  -7230708.676 9  -5622283.65446  23987987.432    23987988.5984   23987997.1084
      1225.791         955.162
 97  4 29 16 28  0.0000000  0  6 19  2  7 27 26 15                   0.000518634
   7952361.543 9   6188910.19247  22831073.383    22831074.8724   22831082.6964
     -2709.611       -2111.385
  -2624044.178 9  -1867386.10348  21219529.900    21219530.6634   21219538.0584
       229.936         179.171
 -11713473.698 9  -9111872.71648  21540053.287    21540054.4194   21540062.3404
      2421.846        1887.153
   -968368.999 9   -674913.45448  20352264.095    20352265.1284   20352271.7544
      -618.085        -481.625
  -4577119.800 9  -3549203.68648  23279254.372    23279255.8094   23279263.0324
      1803.724        1405.499
  -7267241.290 9  -5650750.56246  23981035.600    23981036.6084   23981045.1004
      1210.148         942.972
 97  4 29 16 28 30.0000000  0  6 19  2  7 27 26 15                   0.000519491
   8033787.918 9   6252359.27047  22846568.369    22846569.7694   22846577.6174
     -2718.610       -2118.397
  -2630841.371 9  -1872682.61348  21218236.382    21218237.1814   21218244.6034
       223.367         174.052
 -11785926.829 9  -9168329.67848  21526265.859    21526267.0404   21526274.9454
      2408.644        1876.865
   -949577.304 9   -660270.58848  20355840.061    20355841.0934   20355847.7254
      -634.384        -494.325
  -4630966.112 9  -3591161.84048  23269007.757    23269009.1834   23269016.3624
      1786.382        1391.986
  -7303296.885 9  -5678845.77646  23974174.562    23974175.3944   23974183.9304
      1193.864         930.284
 97  4 29 16 29  0.0000000  0  6 19  2  7 27 26 15                   0.000520362
   8115476.732 9   6316012.86247  22862113.232    22862114.6064   22862122.4934
     -2726.859       -2124.825
  -2637441.792 9  -1877825.79748  21216980.361    21216981.1674   21216988.5904
       217.110         169.177
 -11857998.043 9  -9224489.03748  21512551.207    21512552.3574   21512560.2234
      2396.572        1867.459
   -930306.062 9   -645254.04648  20359507.251    20359508.2994   20359514.9544
      -649.932        -506.441
  -4684304.511 9  -3632724.22947  23258857.756    23258859.2144   23258866.4044
      1770.136        1379.327
  -7338877.853 9  -5706571.14546  23967403.579    23967404.4964   23967413.1024
      1178.698         918.466
 97  4 29 16 29 30.0000000  0  6 19  2  7 27 26 15                   0.000521230
   8197428.502 9   6379871.34847  22877708.141    22877709.5794   22877717.4364
     -2736.082       -2132.012
  -2643836.476 9  -1882808.66548  21215763.522    21215764.2994   21215771.7074
       209.759         163.448
 -11929693.920 9  -9280355.92548  21498907.953    21498909.0704   21498916.9474
      2383.577        1857.333
   -910555.269 9   -629863.83148  20363265.707    20363266.7514   20363273.4154
      -666.133        -519.065
  -4737156.116 9  -3673907.29248  23248800.419    23248801.9134   23248809.0644
      1753.789        1366.589
  -7373991.472 9  -5733932.36646  23960721.739    23960722.5664   23960731.1344
      1162.644         905.956
 97  4 29 16 30  0.0000000  0  6 19  2  7 27 26 15                   0.000522106
   8279656.493 9   6443945.08147  22893355.673    22893357.0714   22893364.9584
     -2745.614       -2139.439
  -2650025.723 9  -1887631.45648  21214585.702    21214586.5144   21214593.9504
       203.083         158.246
 -12001002.813 9  -9335921.27348  21485338.250    21485339.4244   21485347.3054
      2370.504        1847.146
   -890336.735 9   -614109.14548  20367113.219    20367114.2204   20367120.8934
      -681.403        -530.963
  -4789524.464 9  -3714713.79448  23238835.059    23238836.5714   23238843.6994
      1737.770        1354.106
  -7408631.878 9  -5760924.84946  23954129.972    23954130.6964   23954139.2144
      1146.951         893.728
 97  4 29 16 30 30.0000000  0  6 19  2  7 27 26 15                   0.000522997
   8362173.893 9   6508244.30947  22909058.127    22909059.5614   22909067.5734
     -2755.464       -2147.115
  -2656009.874 9  -1892294.42848  21213446.908    21213447.7714   21213455.1794
       195.884         152.637
 -12071909.086 9  -9391172.89048  21471845.186    21471846.3754   21471854.2574
      2356.597        1836.309
   -869658.101 9   -597995.93648  20371048.256    20371049.2544   20371055.9104
      -697.029        -543.139
  -4841414.752 9  -3755147.77748  23228960.665    23228962.1764   23228969.2984
      1721.647        1341.543
  -7442794.680 9  -5787545.17546  23947628.930    23947629.7504   23947638.1814
      1130.582         880.973
 97  4 29 16 31  0.0000000  0  6 19  2  7 27 26 15                   0.000523911
   8444975.843 9   6572765.27247  22924814.935    22924816.2574   22924824.2844
     -2764.629       -2154.256
  -2661789.002 9  -1896797.64348  21212347.199    21212348.0404   21212355.4244
       189.667         147.792
 -12142402.566 9  -9446102.85148  21458430.643    21458431.8974   21458439.7664
      2342.917        1825.650
   -848536.657 9   -581537.68148  20375067.515    20375068.5224   20375075.2194
      -711.032        -554.051
  -4892830.497 9  -3795211.98047  23219176.601    23219178.0924   23219185.2504
      1706.050        1329.390
  -7476474.141 9  -5813788.87746  23941219.960    23941220.7454   23941229.1974
      1114.728         868.619
 97  4 29 16 31 30.0000000  0  6 19  2  7 27 26 15                   0.000524869
   8528062.126 9   6637507.79847  22940625.813    22940627.0914   22940635.1384
     -2774.285       -2161.781
  -2667380.667 9  -1901154.78348  21211283.139    21211283.9944   21211291.3694
       183.157         142.720
 -12212477.258 9  -9500706.48148  21445095.921    21445097.1174   21445104.9594
      2328.748        1814.609
   -826995.752 9   -564752.56948  20379166.629    20379167.6324   20379174.3264
      -725.000        -564.935
  -4943761.583 9  -3834898.52247  23209484.718    23209486.1654   23209493.3754
      1689.306        1316.342
  -7509666.380 9  -5839652.93446  23934903.679    23934904.4874   23934912.8704
      1098.171         855.718
 97  4 29 16 32  0.0000000  0  6 19  2  7 27 26 15                   0.000525879
   8611428.217 9   6702468.34947  22956489.784    22956491.1724   22956499.2064
     -2783.383       -2168.870
  -2672793.900 9  -1905372.88448  21210253.064    21210253.8974   21210261.2514
       177.563         138.361
 -12282134.764 9  -9554985.03448  21431840.617    21431841.7004   21431849.5474
      2315.129        1803.997
   -805043.926 9   -547647.26448  20383343.948    20383344.9254   20383351.6264
      -738.667        -575.585
  -4994195.461 9  -3874197.65247  23199887.508    23199888.9104   23199896.0824
      1673.062        1303.685
  -7542372.989 9  -5865138.58546  23928679.609    23928680.6054   23928688.9214
      1082.220         843.288
 97  4 29 16 32 30.0000000  0  6 19  2  7 27 26 15                   0.000526923
   8695061.476 9   6767637.07347  22972404.671    22972406.1324   22972414.1784
     -2792.230       -2175.764
  -2678031.285 9  -1909453.96448  21209256.361    21209257.2554   21209264.6194
       171.519         133.651
 -12351386.108 9  -9608947.09948  21418662.429    21418663.5854   21418671.4134
      2301.613        1793.465
   -782670.426 9   -530213.37948  20387601.490    20387602.4524   20387609.1574
      -753.069        -586.807
  -5044146.524 9  -3913120.57147  23190382.103    23190383.5404   23190390.6714
      1656.930        1291.114
  -7574595.534 9  -5890247.04446  23922547.774    23922548.8254   23922557.1644
      1065.926         830.592
 97  4 29 16 33  0.0000000  0  6 19  2  7 27 26 15                   0.000527994
   8778973.034 9   6833022.66647  22988372.550    22988373.9854   22988382.0534
     -2801.398       -2182.908
  -2683080.614 9  -1913388.50748  21208295.484    21208296.3854   21208303.7324
       165.498         128.959
 -12420230.693 9  -9662592.20948  21405561.717    21405562.8844   21405570.6864
      2288.382        1783.155
   -759855.180 9   -512435.27848  20391943.089    20391944.0694   20391950.7644
      -767.782        -598.272
  -5093608.439 9  -3951662.31148  23180969.816    23180971.2834   23180978.3934
      1641.061        1278.749
  -7606329.076 9  -5914974.47046  23916509.010    23916510.0434   23916518.4024
      1049.999         818.181
 97  4 29 16 33 30.0000000  0  6 19  2  7 27 26 15                   0.000529069
   8863167.578 9   6898628.76347  23004394.142    23004395.6994   23004403.7774
     -2811.772       -2190.991
  -2687933.342 9  -1917169.84748  21207372.002    21207372.9464   21207380.2824
       157.539         122.758
 -12488665.467 9  -9715917.98848  21392538.958    21392540.1734   21392547.9264
      2273.522        1771.576
   -736566.255 9   -494288.07448  20396374.802    20396375.8204   20396382.5294
      -785.351        -611.962
  -5142597.321 9  -3989835.44548  23171647.557    23171649.0324   23171656.1294
      1624.633        1265.948
  -7637573.901 9  -5939321.08346  23910563.425    23910564.2754   23910572.6704
      1032.560         804.592
 97  4 29 16 34  0.0000000  0  6 19  2  7 27 26 15                   0.000530125
   8947650.400 9   6964459.48847  23020470.788    23020472.2904   23020480.3484
     -2820.417       -2197.727
  -2692562.538 9  -1920777.01148  21206491.166    21206492.0694   21206499.3654
       150.935         117.612
 -12556665.731 9  -9768905.18448  21379598.926    21379600.1404   21379607.9014
      2259.773        1760.862
   -712750.231 9   -475730.14348  20400906.880    20400907.8634   20400914.5884
      -802.422        -625.264
  -5191120.062 9  -4027645.37648  23162414.004    23162415.4964   23162422.6014
      1610.111        1254.632
  -7668307.644 9  -5963269.46246  23904715.043    23904715.8374   23904724.2314
      1016.234         791.871
 97  4 29 16 34 30.0000000  0  6 19  2  7 27 26 15                   0.000531137
   9032391.999 9   7030491.86647  23036596.826    23036598.1834   23036606.2064
     -2829.029       -2204.438
  -2696981.359 9  -1924220.24948  21205650.408    21205651.2174   21205658.5064
       143.748         112.011
 -12624247.113 9  -9821565.98348  21366738.669    21366739.8264   21366747.5834
      2245.461        1749.710
   -688412.511 9   -456765.69848  20405538.221    20405539.1834   20405545.9084
      -820.078        -639.022
  -5239198.917 9  -4065109.42547  23153264.990    23153266.3964   23153273.4904
      1595.019        1242.872
  -7698544.639 9  -5986830.77046  23898961.111    23898961.9204   23898970.3244
       999.489         778.822
 97  4 29 16 35  0.0000000  0  6 19  2  7 27 26 15                   0.000532109
   9117387.530 9   7096722.10647  23052771.058    23052772.3654   23052780.3534
     -2837.184       -2210.793
  -2701191.356 9  -1927500.76248  21204849.227    21204850.0774   21204857.3894
       136.881         106.660
 -12691396.223 9  -9873889.94448  21353960.549    21353961.7774   21353969.5254
      2231.139        1738.550
   -663547.525 9   -437390.39348  20410269.888    20410270.8464   20410277.5594
      -837.435        -652.547
  -5286823.141 9  -4102219.21847  23144202.405    23144203.7994   23144210.8834
      1579.881        1231.076
  -7728283.848 9  -6010004.18546  23893301.821    23893302.7104   23893311.1314
       983.012         765.983
 97  4 29 16 35 30.0000000  0  6 19  2  7 27 26 15                   0.000533038
   9202615.013 9   7163133.09247  23068989.211    23068990.6634   23068998.6754
     -2844.741       -2216.681
  -2705205.765 9  -1930628.87148  21204085.325    21204086.1574   21204093.4394
       130.650         101.805
 -12758120.704 9  -9925883.02348  21341263.330    21341264.4864   21341272.2174
      2217.231        1727.712
   -638172.372 9   -417617.55148  20415098.618    20415099.5924   20415106.3134
      -854.140        -665.564
  -5333994.933 9  -4138976.45847  23135225.849    23135227.2614   23135234.3224
      1564.621        1219.185
  -7757529.456 9  -6032792.98546  23887736.661    23887737.5064   23887745.8294
       966.567         753.169
 97  4 29 16 36  0.0000000  0  6 19  2  7 27 26 15                   0.000533956
   9288078.418 9   7229727.90747  23085252.601    23085253.8804   23085261.8044
     -2852.655       -2222.848
  -2709029.587 9  -1933608.47248  21203357.713    21203358.5164   21203365.8194
       124.571          97.068
 -12824426.667 9  -9977549.98748  21328645.681    21328646.8414   21328654.5884
      2203.489        1717.004
   -612303.873 9   -397460.29048  20420021.193    20420022.1784   20420028.9514
      -869.918        -677.858
  -5380679.407 9  -4175353.95647  23126342.038    23126343.4294   23126350.5324
      1547.809        1206.085
  -7786272.046 9  -6055189.81846  23882267.288    23882267.9804   23882276.2724
       949.871         740.159
 97  4 29 16 36 30.0000000  0  6 19  2  7 27 26 15                   0.000534886
   9373776.636 9   7296505.69147  23101560.349    23101561.7704   23101569.6854
     -2860.328       -2228.827
  -2712679.251 9  -1936452.36948  21202663.064    21202664.0224   21202671.3324
       119.246          92.919
 -12890331.495 9 -10028904.37948  21316104.365    21316105.5794   21316113.3194
      2190.417        1706.818
   -585983.248 9   -376950.72548  20425029.906    20425030.8144   20425037.6134
      -884.350        -689.104
  -5426857.594 9  -4211336.95147  23117554.553    23117555.9634   23117563.1564
      1531.152        1193.105
  -7814520.641 9  -6077201.72046  23876891.716    23876892.4414   23876900.7414
       933.665         727.531
 97  4 29 16 37  0.0000000  0  6 19  2  7 27 26 15                   0.000535844
   9459710.844 9   7363467.37647  23117913.112    23117914.5894   23117922.5224
     -2868.991       -2235.577
  -2716183.225 9  -1939182.73548  21201996.280    21201997.2194   21202004.5374
       113.996          88.828
 -12955849.726 9 -10079957.52748  21303636.629    21303637.8364   21303645.6324
      2177.236        1696.548
   -559246.519 9   -356116.92148  20430117.725    20430118.6574   20430125.4534
      -898.329        -699.997
  -5472535.453 9  -4246930.08947  23108862.464    23108863.8174   23108871.0114
      1513.768        1179.559
  -7842284.055 9  -6098835.56146  23871608.600    23871609.2424   23871617.5814
       916.871         714.445
 97  4 29 16 37 30.0000000  0  6 19  2  7 27 26 15                   0.000536845
   9545898.919 9   7430626.86047  23134314.160    23134315.5994   23134323.5984
     -2877.412       -2242.139
  -2719530.904 9  -1941791.31248  21201359.213    21201360.1524   21201367.5124
       108.645          84.658
 -13020980.888 9 -10130709.06148  21291242.581    21291243.7924   21291251.5774
      2164.291        1686.461
   -532100.193 9   -334963.95348  20435283.540    20435284.4484   20435291.2654
      -912.014        -710.660
  -5517704.247 9  -4282126.55347  23100267.069    23100268.4644   23100275.7094
      1496.967        1166.468
  -7869549.282 9  -6120081.19646  23866420.173    23866420.8164   23866429.1904
       900.279         701.516
 97  4 29 16 38  0.0000000  0  6 19  2  7 27 26 15                   0.000537883
   9632346.978 9   7497988.93047  23150764.818    23150766.1314   23150774.1724
     -2886.093       -2248.904
  -2722704.782 9  -1944264.46148  21200755.275    21200756.1814   21200763.5524
       102.620          79.964
 -13085713.798 9 -10181150.27048  21278924.340    21278925.5204   21278933.3104
      2150.856        1675.992
   -504539.374 9   -313487.99748  20440528.206    20440529.1204   20440535.9264
      -925.767        -721.377
  -5562362.808 9  -4316925.41247  23091768.643    23091770.1284   23091777.3744
      1480.127        1153.346
  -7896309.373 9  -6140933.21746  23861327.883    23861328.5444   23861336.9214
       883.413         688.374
 97  4 29 16 38 30.0000000  0  6 19  2  7 27 26 15                   0.000538943
   9719046.917 9   7565547.28847  23167263.228    23167264.6584   23167272.6094
     -2894.042       -2255.098
  -2725692.837 9  -1946592.80948  21200186.655    21200187.5844   21200194.9484
        96.541          75.227
 -13150041.408 9 -10231275.66248  21266683.136    21266684.3764   21266692.1554
      2137.388        1665.497
   -476555.416 9   -291682.32948  20445853.347    20445854.3164   20445861.0964
      -940.066        -732.519
  -5606525.329 9  -4351337.78047  23083364.726    23083366.3104   23083373.5014
      1464.050        1140.818
  -7922563.336 9  -6161390.85346  23856331.898    23856332.5674   23856340.9434
       866.701         675.351
 97  4 29 16 39  0.0000000  0  6 19  2  7 27 26 15                   0.000540004
   9805985.162 9   7633291.32547  23183807.101    23183808.5224   23183816.4494
     -2901.810       -2261.151
  -2728494.617 9  -1948776.01148  21199653.547    21199654.4114   21199661.7824
        90.108          70.214
 -13213958.340 9 -10281081.04948  21254520.195    21254521.3584   21254529.1464
      2123.739        1654.861
   -448133.270 9   -269535.21248  20451261.891    20451262.8884   20451269.6814
      -954.880        -744.062
  -5650205.952 9  -4385374.62347  23075052.690    23075054.2404   23075061.4334
      1447.972        1128.290
  -7948316.308 9  -6181458.10346  23851431.180    23851431.9634   23851440.3384
       850.148         662.453
 97  4 29 16 39 30.0000000  0  6 19  2  7 27 26 15                   0.000541051
   9893153.736 9   7701214.84447  23200394.686    23200396.1004   23200404.1284
     -2909.461       -2267.112
  -2731091.821 9  -1950799.80648  21199159.232    21199160.2004   21199167.5614
        83.155          64.796
 -13277456.939 9 -10330560.46148  21242436.806    21242437.9784   21242445.7334
      2109.466        1643.740
   -419252.524 9   -247030.74748  20456757.729    20456758.7334   20456765.5384
      -970.612        -756.321
  -5693404.810 9  -4419036.07147  23066832.393    23066833.8144   23066841.0154
      1431.874        1115.746
  -7973566.706 9  -6201133.72146  23846626.266    23846626.9474   23846635.3414
       833.193         649.241
 97  4 29 16 40  0.0000000  0  6 19  2  7 27 26 15                   0.000542091
   9980556.360 9   7769320.73147  23217026.901    23217028.2924   23217036.3834
     -2917.118       -2273.079
  -2733493.008 9  -1952670.85748  21198702.303    21198703.2674   21198710.6354
        77.284          60.221
 -13340521.742 9 -10379701.85148  21230435.956    21230437.1324   21230444.9074
      2095.077        1632.528
   -389896.996 9   -224156.31848  20462343.905    20462344.9014   20462351.7384
      -986.170        -768.444
  -5736106.990 9  -4452310.49147  23058706.455    23058707.8124   23058715.0354
      1415.272        1102.809
  -7998305.224 9  -6220410.48146  23841918.709    23841919.3704   23841927.7044
       816.266         636.051
 97  4 29 16 40 30.0000000  0  6 19  2  7 27 26 15                   0.000543132
  10068193.338 9   7837609.23447  23233703.674    23233705.1164   23233713.1774
     -2925.390       -2279.525
  -2735723.831 9  -1954409.15848  21198277.836    21198278.7614   21198286.1134
        71.683          55.857
 -13403150.755 9 -10428503.65848  21218517.984    21218519.2024   21218526.9774
      2080.267        1620.987
   -360064.869 9   -200910.51848  20468020.751    20468021.7914   20468028.6334
     -1002.537        -781.198
  -5778308.384 9  -4485194.68847  23050675.692    23050677.1144   23050684.3744
      1398.390        1089.655
  -8022533.576 9  -6239289.69346  23837308.267    23837308.8704   23837317.1634
       799.012         622.607
 97  4 29 16 41  0.0000000  0  6 19  2  7 27 26 15                   0.000544176
  10156076.081 9   7906089.25047  23250427.501    23250428.7544   23250436.7124
     -2933.683       -2285.987
  -2737801.664 9  -1956028.25348  21197882.504    21197883.3384   21197890.6814
        66.677          51.956
 -13465346.761 9 -10476968.05848  21206682.423    21206683.6744   21206691.4364
      2065.904        1609.795
   -329756.526 9   -177293.63748  20473788.279    20473789.2944   20473796.1494
     -1018.266        -793.454
  -5820019.065 9  -4517696.50847  23042738.447    23042739.8734   23042747.1564
      1382.162        1077.009
  -8046255.939 9  -6257774.62846  23832793.886    23832794.6534   23832802.9154
       782.262         609.555
 97  4 29 16 41 30.0000000  0  6 19  2  7 27 26 15                   0.000545224
  10244210.976 9   7974765.74347  23267199.112    23267200.3004   23267208.2134
     -2941.626       -2292.176
  -2739724.862 9  -1957526.84448  21197516.581    21197517.3524   21197524.7174
        61.916          48.246
 -13527104.995 9 -10525091.34148  21194930.103    21194931.4804   21194939.2224
      2051.653        1598.691
   -298966.177 9   -153301.17048  20479647.521    20479648.5294   20479655.3664
     -1034.020        -805.730
  -5861238.471 9  -4549815.52047  23034894.719    23034896.1094   23034903.3514
      1366.092        1064.487
  -8069466.089 9  -6275860.43146  23828377.091    23828377.9084   23828386.1594
       765.463         596.465
 97  4 29 16 42  0.0000000  0  6 19  2  7 27 26 15                   0.000546280
  10332596.309 9   8043637.37947  23284018.109    23284019.4624   23284027.4204
     -2950.583       -2299.156
  -2741505.156 9  -1958914.08648  21197177.869    21197178.5754   21197185.9434
        56.561          44.074
 -13588429.442 9 -10572876.60548  21183260.554    21183261.8364   21183269.5514
      2036.681        1587.024
   -267701.565 9   -128939.14048  20485596.992    20485598.0124   20485604.8534
     -1050.332        -818.441
  -5901964.698 9  -4581550.23747  23027144.696    23027146.1524   23027153.3964
      1349.169        1051.301
  -8092168.348 9  -6293550.46946  23824056.965    23824057.8074   23824066.0394
       748.075         582.916
 97  4 29 16 42 30.0000000  0  6 19  2  7 27 26 15                   0.000547338
  10421247.251 9   8112715.96847  23300887.845    23300889.2374   23300897.2064
     -2959.207       -2305.876
  -2743113.839 9  -1960167.60748  21196871.812    21196872.4434   21196879.7874
        50.801          39.585
 -13649312.172 9 -10620317.67448  21171674.965    21171676.2514   21171683.9654
      2022.390        1575.888
   -235942.814 9   -104192.07348  20491640.503    20491641.5244   20491648.3364
     -1066.631        -831.141
  -5942196.933 9  -4612900.03347  23019488.747    23019490.1854   23019497.4684
      1333.160        1038.826
  -8114351.526 9  -6310836.03646  23819835.576    23819836.4754   23819844.7034
       731.018         569.624
 97  4 29 16 43  0.0000000  0  6 19  2  7 27 26 15                   0.000548381
  10510142.213 9   8181984.71047  23317803.991    23317805.4584   23317813.4204
     -2967.084       -2312.014
  -2744542.857 9  -1961281.13148  21196599.815    21196600.5254   21196607.8394
        44.455          34.640
 -13709769.142 9 -10667426.98348  21160170.432    21160171.6534   21160179.3234
      2008.038        1564.705
   -203706.627 9    -79072.98148  20497774.884    20497775.8834   20497782.6834
     -1082.377        -843.411
  -5981945.569 9  -4643873.00147  23011924.722    23011926.2054   23011933.4884
      1316.660        1025.969
  -8136027.779 9  -6327726.59446  23815710.778    23815711.5834   23815719.8144
       714.009         556.371
 97  4 29 16 43 30.0000000  0  6 19  2  7 27 26 15                   0.000549411
  10599263.899 9   8251430.12947  23334763.349    23334764.7284   23334772.7704
     -2974.457       -2317.759
  -2745784.114 9  -1962248.34448  21196363.556    21196364.3404   21196371.6554
        38.265          29.817
 -13769801.013 9 -10714205.04448  21148746.718    21148747.9624   21148755.6204
      1994.191        1553.915
   -170999.869 9    -53587.21148  20503998.797    20503999.7824   20504006.5724
     -1097.947        -855.543
  -6021198.059 9  -4674459.36347  23004455.111    23004456.7064   23004463.9814
      1300.178        1013.126
  -8157191.975 9  -6344218.14846  23811683.373    23811684.1384   23811692.4014
       696.911         543.048
 97  4 29 16 44  0.0000000  0  6 19  2  7 27 26 15                   0.000550432
  10688615.099 9   8321054.37847  23351766.212    23351767.6514   23351775.7694
     -2981.816       -2323.493
  -2746834.052 9  -1963066.47848  21196163.794    21196164.5394   21196171.8674
        32.022          24.952
 -13829414.490 9 -10760657.08648  21137402.668    21137403.9044   21137411.5524
      1980.409        1543.176
   -137826.828 9    -27738.10648  20510311.434    20510312.4174   20510319.2234
     -1113.222        -867.446
  -6059950.267 9  -4704655.88047  22997080.907    22997082.4264   22997089.7244
      1283.829        1000.386
  -8177835.053 9  -6360303.63146  23807755.053    23807755.8864   23807764.1264
       679.630         529.582
 97  4 29 16 44 30.0000000  0  6 19  2  7 27 26 15                   0.000551434
  10778179.789 9   8390844.98647  23368809.714    23368811.2774   23368819.3864
     -2988.711       -2328.866
  -2747691.688 9  -1963734.76648  21196000.600    21196001.3444   21196008.6714
        25.603          19.950
 -13888616.352 9 -10806788.38448  21126136.987    21126138.1474   21126145.7964
      1966.772        1532.550
   -104195.371 9     -1531.79348  20516711.275    20516712.2704   20516719.0754
     -1128.387        -879.263
  -6098213.344 9  -4734471.26147  22989799.767    22989801.2414   22989808.5494
      1267.395         987.581
  -8197956.083 9  -6375982.32646  23803926.204    23803926.9744   23803935.2484
       662.149         515.960
 97  4 29 16 45  0.0000000  0  6 19  2  7 27 26 15                   0.000552424
  10867952.700 9   8460797.84647  23385893.050    23385894.6164   23385902.7224
     -2996.180       -2334.686
  -2748361.965 9  -1964257.06448  21195873.029    21195873.8044   21195881.1314
        19.285          15.027
 -13947406.068 9 -10852598.53348  21114949.694    21114950.8114   21114958.4774
      1952.611        1521.515
    -70111.966 9     25026.68448  20523197.103    20523198.1284   20523204.9564
     -1143.879        -891.334
  -6135977.393 9  -4763897.77947  22982613.427    22982614.9454   22982622.2974
      1250.404         974.341
  -8217550.257 9  -6391250.48047  23800197.601    23800198.3524   23800206.5774
       644.151         501.936
 97  4 29 16 45 30.0000000  0  6 19  2  7 27 26 15                   0.000553398
  10957933.659 9   8530912.81247  23403016.007    23403017.4494   23403025.6364
     -3003.271       -2340.211
  -2748872.770 9  -1964655.09648  21195775.769    21195776.6154   21195783.9064
        14.070          10.964
 -14005794.469 9 -10898095.97148  21103838.782    21103839.8794   21103847.5134
      1939.210        1511.073
    -35578.946 9     51935.51448  20529768.521    20529769.5684   20529776.3774
     -1158.907        -903.044
  -6173261.209 9  -4792950.11147  22975518.549    22975520.1464   22975527.4414
      1234.481         961.933
  -8236625.725 9  -6406114.46046  23796567.646    23796568.3824   23796576.6214
       626.892         488.487
 97  4 29 16 46  0.0000000  0  6 19  2  7 27 26 15                   0.000554371
  11048145.575 9   8601207.75346  23420182.707    23420184.2234   23420192.4034
     -3010.733       -2346.026
  -2749209.914 9  -1964917.80948  21195711.615    21195712.4564   21195719.7674
         8.562           6.672
 -14063758.448 9 -10943262.68948  21092808.520    21092809.6764   21092817.3044
      1925.067        1500.052
      -583.578 9     79204.61248  20536427.963    20536428.9934   20536435.7924
     -1174.094        -914.878
  -6210045.274 9  -4821613.01447  22968518.788    22968520.3614   22968527.7044
      1217.871         948.990
  -8255167.051 9  -6420562.22046  23793039.347    23793040.0174   23793048.3224
       609.301         474.780
 97  4 29 16 46 30.0000000  0  6 19  2  7 27 26 15                   0.000555343
  11138582.613 9   8671678.11446  23437392.208    23437393.8724   23437401.9784
     -3018.751       -2352.274
  -2749381.370 9  -1965051.41048  21195679.068    21195679.8614   21195687.1484
         2.752           2.144
 -14121291.948 9 -10988093.96748  21081860.210    21081861.3814   21081868.9814
      1910.209        1488.475
     34870.213 9    106830.92848  20543174.630    20543175.6484   20543182.4394
     -1189.726        -927.059
  -6246329.329 9  -4849886.30647  22961614.210    22961615.7274   22961623.0294
      1200.761         935.658
  -8273184.270 9  -6434601.58146  23789610.851    23789611.4634   23789619.7204
       591.572         460.965
 97  4 29 16 47  0.0000000  0  6 19  2  7 27 26 15                   0.000556334
  11229273.159 9   8742346.02047  23454650.414    23454651.8344   23454659.8344
     -3027.143       -2358.813
  -2749379.552 9  -1965049.99248  21195679.447    21195680.2304   21195687.4944
        -2.729          -2.126
 -14178369.221 9 -11032569.74448  21070998.805    21070999.9584   21071007.5414
      1895.101        1476.702
     70795.568 9    134824.69848  20550011.002    20550012.0074   20550018.8054
     -1205.169        -939.093
  -6282095.554 9  -4877756.08247  22954808.212    22954809.6314   22954816.8974
      1183.748         922.401
  -8290664.123 9  -6448222.22446  23786284.601    23786285.1624   23786293.3514
       573.860         447.164
 97  4 29 16 47 30.0000000  0  6 19  2  7 27 26 15                   0.000557342
  11320216.600 9   8813210.99147  23471956.437    23471957.9154   23471965.8814
     -3035.298       -2365.167
  -2749197.467 9  -1964908.10548  21195714.170    21195714.8714   21195722.1454
        -9.014          -7.024
 -14234985.784 9 -11076686.53148  21060225.040    21060226.1974   21060233.7694
      1879.758        1464.746
    107186.239 9    163181.04748  20556935.951    20556936.9334   20556943.7264
     -1220.324        -950.902
  -6317343.443 9  -4905221.98347  22948100.834    22948102.2194   22948109.3844
      1166.529         908.984
  -8307604.388 9  -6461422.41047  23783060.945    23783061.5514   23783069.6784
       555.908         433.175
 97  4 29 16 48  0.0000000  0  6 19  2  7 27 26 15                   0.000558360
  11411396.157 9   8884259.93446  23489307.522    23489308.8164   23489316.8584
     -3043.603       -2371.639
  -2748834.699 9  -1964625.43048  21195783.199    21195783.9384   21195791.1644
       -15.324         -11.941
 -14291152.656 9 -11120452.90348  21049536.853    21049538.0124   21049545.5534
      1864.376        1452.761
    144022.222 9    191884.39748  20563945.624    20563946.6004   20563953.3844
     -1235.782        -962.947
  -6352079.826 9  -4932289.28147  22941490.543    22941491.9864   22941499.2604
      1149.008         895.331
  -8324011.944 9  -6474207.47547  23779938.679    23779939.2804   23779947.4054
       537.640         418.940
 97  4 29 16 48 30.0000000  0  6 19  2  7 27 26 15                   0.000559394
  11502821.567 9   8955500.42847  23506705.065    23506706.5554   23506714.6114
     -3051.361       -2377.684
  -2748296.044 9  -1964205.70148  21195885.651    21195886.4384   21195893.6464
       -20.509         -15.981
 -14346859.295 9 -11163860.66148  21038936.266    21038937.3824   21038944.9044
      1849.536        1441.197
    181316.046 9    220944.50148  20571042.443    20571043.3984   20571050.1734
     -1250.427        -974.359
  -6386301.982 9  -4958955.88447  22934978.145    22934979.6814   22934987.0004
      1132.428         882.411
  -8339878.537 9  -6486571.02146  23776919.304    23776919.9484   23776928.0934
       520.093         405.267
 97  4 29 16 49  0.0000000  0  6 19  2  7 27 26 15                   0.000560438
  11594477.942 9   9026920.93847  23524146.764    23524148.2984   23524156.3154
     -3058.820       -2383.496
  -2747598.865 9  -1963662.43848  21196018.280    21196019.1024   21196026.2844
       -25.969         -20.236
 -14402126.171 9 -11206925.74148  21028419.335    21028420.4504   21028427.9664
      1835.018        1429.884
    219054.804 9    250351.31548  20578223.908    20578224.8444   20578231.6544
     -1265.458        -986.071
  -6420019.736 9  -4985229.46047  22928562.072    22928563.4514   22928570.6664
      1115.454         869.185
  -8355212.138 9  -6498519.23347  23774001.476    23774002.0274   23774010.2274
       502.139         391.277
 97  4 29 16 49 30.0000000  0  6 19  2  7 27 26 15                   0.000561491
  11686361.330 9   9098518.35046  23541631.778    23541633.2104   23541641.1704
     -3066.424       -2389.421
  -2746718.454 9  -1962976.40148  21196185.705    21196186.6034   21196193.8244
       -32.269         -25.145
 -14456946.925 9 -11249643.19648  21017987.336    21017988.4064   21017995.9364
      1819.949        1418.142
    257259.440 9    280121.14648  20585494.000    20585494.9484   20585501.7604
     -1281.272        -998.394
  -6453212.487 9  -5011093.94147  22922245.787    22922247.1344   22922254.2904
      1097.634         855.299
  -8369994.455 9  -6510037.87847  23771188.456    23771189.0504   23771197.2534
       483.606         376.836
 97  4 29 16 50  0.0000000  0  6 19  2  7 27 26 15                   0.000562559
  11778469.712 9   9170291.06246  23559159.406    23559160.8664   23559168.8554
     -3074.219       -2395.495
  -2745665.694 9  -1962156.06848  21196386.039    21196386.9474   21196394.1494
       -38.102         -29.690
 -14511316.984 9 -11292009.45948  21007641.007    21007642.0984   21007649.6504
      1804.439        1406.056
    295938.503 9    310260.65948  20592854.393    20592855.3694   20592862.1564
     -1297.586       -1011.106
  -6485866.554 9  -5036538.66947  22916031.859    22916033.2974   22916040.4154
      1079.176         840.916
  -8384227.916 9  -6521128.83146  23768479.903    23768480.5314   23768488.6654
       465.092         362.409
 97  4 29 16 50 30.0000000  0  6 19  2  7 27 26 15                   0.000563641
  11870801.721 9   9242238.00946  23576729.789    23576731.0644   23576739.1564
     -3080.826       -2400.644
  -2744439.951 9  -1961200.94148  21196619.302    21196620.2004   21196627.3804
       -43.385         -33.806
 -14565224.349 9 -11334015.18548  20997382.766    20997383.8494   20997391.4134
      1789.880        1394.712
    335100.456 9    340776.45048  20600306.694    20600307.6464   20600314.4544
     -1312.903       -1023.041
  -6517976.908 9  -5061559.72647  22909921.462    22909922.9864   22909930.0194
      1061.914         827.465
  -8397914.065 9  -6531793.31247  23765875.456    23765876.1584   23765884.2094
       447.596         348.776
 97  4 29 16 51  0.0000000  0  6 19  2  7 27 26 15                   0.000564726
  11963350.475 9   9314353.85047  23594341.362    23594342.5864   23594350.6864
     -3088.841       -2406.889
  -2743033.448 9  -1960104.96148  21196886.903    21196887.8534   21196895.0104
       -50.151         -39.079
 -14618684.664 9 -11375672.55548  20987209.532    20987210.6824   20987218.2574
      1774.357        1382.616
    374745.577 9    371668.73848  20607850.952    20607851.9094   20607858.7004
     -1329.852       -1036.248
  -6549550.997 9  -5086162.89247  22903913.198    22903914.6514   22903921.7034
      1043.353         813.002
  -8411056.607 9  -6542034.19447  23763374.594    23763375.1544   23763383.2274
       428.870         334.184
 97  4 29 16 51 30.0000000  0  6 19  2  7 27 26 15                   0.000565815
  12056127.655 9   9386647.71347  23611996.076    23611997.5824   23612005.6214
     -3096.504       -2412.860
  -2741448.942 9  -1958870.27948  21197188.523    21197189.4034   21197196.5474
       -55.481         -43.232
 -14671693.580 9 -11416978.18948  20977122.201    20977123.4264   20977131.0374
      1759.342        1370.916
    414880.851 9    402942.96048  20615488.382    20615489.3874   20615496.2134
     -1346.097       -1048.907
  -6580588.783 9  -5110348.16647  22898006.952    22898008.3684   22898015.4424
      1025.779         799.308
  -8423658.071 9  -6551853.47347  23760976.500    23760977.1264   23760985.2324
       411.052         320.300
 97  4 29 16 52  0.0000000  0  6 19  2  7 27 26 15                   0.000566917
  12149153.885 9   9459135.63046  23629698.687    23629699.8824   23629707.9224
     -3105.677       -2420.008
  -2739700.470 9  -1957507.82748  21197521.283    21197522.1174   21197529.2864
       -61.850         -48.195
 -14724238.695 9 -11457922.41648  20967123.237    20967124.4124   20967132.0194
      1743.034        1358.208
    455514.794 9    434605.75948  20623220.744    20623221.7814   20623228.6304
     -1363.491       -1062.461
  -6611097.703 9  -5134121.35947  22892201.262    22892202.7474   22892209.7454
      1007.633         785.168
  -8435714.041 9  -6561247.70347  23758682.296    23758682.8584   23758690.9854
       391.972         305.433
 97  4 29 16 52 30.0000000  0  6 19  2  7 27 26 15                   0.000568024
  12242435.693 9   9531822.68446  23647449.627    23647450.7914   23647458.9314
     -3113.555       -2426.147
  -2737778.694 9  -1956010.34648  21197886.984    21197887.8304   21197895.0184
       -66.875         -52.110
 -14776318.499 9 -11498504.06848  20957212.686    20957213.8964   20957221.5244
      1728.501        1346.884
    496652.700 9    466661.25548  20631049.019    20631050.0714   20631056.9154
     -1379.476       -1074.916
  -6641090.379 9  -5157492.29047  22886493.808    22886495.2574   22886502.2334
       991.204         772.367
  -8447211.189 9  -6570206.48846  23756494.406    23756494.9824   23756503.1054
       373.915         291.362
 97  4 29 16 53  0.0000000  0  6 19  2  7 27 26 15                   0.000569134
  12335959.096 9   9604697.99546  23665246.267    23665247.7704   23665255.9434
     -3121.289       -2432.173
  -2735699.143 9  -1954389.91448  21198282.756    21198283.5274   21198290.7374
       -71.929         -56.049
 -14827956.948 9 -11538741.80548  20947386.140    20947387.3944   20947395.0434
      1713.764        1335.400
    538272.997 9    499092.63748  20638969.084    20638970.1644   20638977.0454
     -1395.370       -1087.301
  -6670578.176 9  -5180469.78647  22880882.372    22880883.8134   22880890.8444
       974.421         759.289
  -8458159.582 9  -6578737.67947  23754410.913    23754411.5404   23754419.7154
       355.762         277.217
 97  4 29 16 53 30.0000000  0  6 19  2  7 27 26 15                   0.000570243
  12429703.342 9   9677745.39547  23683085.627    23683086.7824   23683095.0504
     -3127.782       -2437.233
  -2733464.157 9  -1952648.37048  21198707.946    21198708.8194   21198716.0494
       -76.663         -59.737
 -14879145.471 9 -11578628.94748  20937645.278    20937646.5094   20937654.2034
      1699.162        1324.022
    580364.902 9    531891.51248  20646978.908    20646979.9944   20646986.8934
     -1410.269       -1098.911
  -6699561.104 9  -5203053.88047  22875367.163    22875368.5054   22875375.6484
       958.256         746.693
  -8468561.048 9  -6586842.69447  23752431.484    23752432.1764   23752440.3234
       338.020         263.392
 97  4 29 16 54  0.0000000  0  6 19  2  7 27 26 15                   0.000571343
  12523651.705 9   9750951.84946  23700963.091    23700964.6394   23700972.9064
     -3135.343       -2443.124
  -2731066.917 9  -1950780.39548  21199164.088    21199165.0014   21199172.2494
       -83.287         -64.899
 -14929883.404 9 -11618164.98148  20927990.056    20927991.3654   20927999.0724
      1683.362        1311.711
    622908.554 9    565042.39348  20655074.688    20655075.7774   20655082.7124
     -1425.948       -1111.128
  -6728045.604 9  -5225249.59547  22869946.765    22869948.1564   22869955.3604
       940.566         732.909
  -8478412.656 9  -6594519.26347  23750556.635    23750557.4724   23750565.6394
       318.738         248.367
 97  4 29 16 54 30.0000000  0  6 19  2  7 27 26 15                   0.000572449
  12617809.485 9   9824321.47046  23718880.898    23718882.2624   23718890.5714
     -3141.368       -2447.819
  -2728481.995 9  -1948766.17048  21199655.950    21199656.8604   21199664.1064
       -88.631         -69.063
 -14980163.160 9 -11657343.99548  20918422.191    20918423.4574   20918431.1724
      1669.135        1300.625
    665903.752 9    598545.12748  20663256.425    20663257.5014   20663264.4514
     -1439.914       -1122.011
  -6756000.409 9  -5247032.57047  22864627.004    22864628.5144   22864635.7324
       923.559         719.656
  -8487700.821 9  -6601756.77947  23748789.167    23748789.9744   23748798.1164
       300.950         234.506
 97  4 29 16 55  0.0000000  0  6 19  2  7 27 26 15                   0.000573569
  12712180.905 9   9897857.57046  23736839.139    23736840.5604   23736848.9024
     -3149.208       -2453.928
  -2725698.335 9  -1946597.08648  21200185.679    21200186.5704   21200193.8014
       -95.946         -74.763
 -15029980.326 9 -11696162.55148  20908942.311    20908943.5754   20908951.3024
      1652.825        1287.916
    709352.444 9    632401.23548  20671524.471    20671525.5234   20671532.4834
     -1455.853       -1134.431
  -6783406.877 9  -5268388.27647  22859411.768    22859413.2294   22859420.4164
       904.478         704.788
  -8496421.086 9  -6608551.79747  23747129.615    23747130.5184   23747138.6154
       281.254         219.159
 97  4 29 16 55 30.0000000  0  6 19  2  7 27 26 15                   0.000574696
  12806753.697 9   9971550.58846  23754835.573    23754837.2714   23754845.5734
     -3155.180       -2458.582
  -2722730.007 9  -1944284.09948  21200750.628    21200751.4104   21200758.6504
      -101.363         -78.984
 -15079340.749 9 -11734625.20348  20899549.361    20899550.5834   20899558.3164
      1638.442        1276.708
    753246.584 9    666604.44648  20679877.213    20679878.3154   20679885.2914
     -1469.930       -1145.400
  -6810275.606 9  -5289324.95447  22854298.717    22854300.2544   22854307.4654
       887.324         691.421
  -8504581.474 9  -6614910.54146  23745576.754    23745577.6424   23745585.7204
       263.242         205.124
 97  4 29 16 56  0.0000000  0  6 19  2  7 27 26 15                   0.000575828
  12901526.841 9  10045399.72746  23772870.389    23772872.0314   23772880.3914
     -3162.530       -2464.309
  -2719585.870 9  -1941834.11648  21201348.904    21201349.7134   21201356.9494
      -107.957         -84.122
 -15128256.037 9 -11772740.99548  20890241.114    20890242.3174   20890250.0194
      1622.893        1264.592
    797579.688 9    701149.70648  20688313.531    20688314.6184   20688321.6244
     -1485.355       -1157.419
  -6836614.569 9  -5309848.81047  22849286.414    22849287.9924   22849295.2984
       868.908         677.071
  -8512185.098 9  -6620835.44847  23744129.810    23744130.6934   23744138.8314
       243.999         190.129
 97  4 29 16 56 30.0000000  0  6 19  2  7 27 26 15                   0.000576966
  12996502.029 9  10119406.28546  23790943.445    23790945.2584   23790953.7294
     -3168.944       -2469.307
  -2716261.421 9  -1939243.63848  21201981.488    21201982.3414   21201989.5714
      -113.453         -88.405
 -15176718.740 9 -11810504.12448  20881018.945    20881020.1774   20881027.8724
      1608.132        1253.090
    842366.518 9    736048.52048  20696836.163    20696837.2664   20696844.2694
     -1500.358       -1169.110
  -6862415.495 9  -5329953.43447  22844376.581    22844378.1994   22844385.4934
       851.392         663.422
  -8519227.931 9  -6626323.38946  23742789.675    23742790.4444   23742798.5644
       225.643         175.826
 97  4 29 16 57  0.0000000  0  6 19  2  7 27 26 15                   0.000578100
  13091673.075 9  10193565.46346  23809054.125    23809055.7174   23809064.2104
     -3175.768       -2474.624
  -2712774.065 9  -1936526.21748  21202645.077    21202645.9494   21202653.1984
      -118.812         -92.581
 -15224730.705 9 -11847916.02648  20871882.582    20871883.7844   20871891.4924
      1592.633        1241.013
    887615.249 9    771307.25548  20705446.747    20705447.8104   20705454.8404
     -1516.152       -1181.417
  -6887697.427 9  -5349653.66948  22839565.728    22839567.2984   22839574.4234
       834.079         649.932
  -8525714.715 9  -6631378.02346  23741555.354    23741555.9964   23741564.1514
       206.881         161.206
 97  4 29 16 57 30.0000000  0  6 19  2  7 27 26 15                   0.000579222
  13187031.712 9  10267870.81846  23827200.286    23827201.9514   23827210.4554
     -3181.678       -2479.230
  -2709144.492 9  -1933697.97848  21203335.722    21203336.6244   21203343.8904
      -123.480         -96.218
 -15272292.310 9 -11884977.00148  20862831.860    20862833.0874   20862840.8104
      1577.884        1229.520
    933324.252 9    806924.64448  20714144.868    20714145.9624   20714153.0014
     -1531.407       -1193.304
  -6912473.780 9  -5368959.91747  22834850.929    22834852.4844   22834859.6964
       817.404         636.938
  -8531653.035 9  -6636005.29446  23740425.271    23740426.0124   23740434.1224
       188.766         147.090
 97  4 29 16 58  0.0000000  0  6 19  2  7 27 26 15                   0.000580343
  13282590.666 9  10342332.28246  23845384.922    23845386.3174   23845394.7544
     -3188.780       -2484.764
  -2705355.893 9  -1930745.82048  21204056.641    21204057.5804   21204064.8484
      -129.108        -100.604
 -15319388.520 9 -11921675.32848  20853869.735    20853870.9794   20853878.6984
      1562.008        1217.149
    979515.226 9    842917.59548  20722934.713    20722935.8144   20722942.8554
     -1547.980       -1206.218
  -6936726.155 9  -5387857.84848  22830235.832    22830237.3914   22830244.7544
       799.408         622.915
  -8537029.019 9  -6640194.36846  23739402.306    23739403.0154   23739411.0564
       169.719         132.249
 97  4 29 16 58 30.0000000  0  6 19  2  7 27 26 15                   0.000581468
  13378355.124 9  10416953.87446  23863608.246    23863609.7524   23863618.2014
     -3195.044       -2489.645
  -2701405.680 9  -1927667.72848  21204808.422    21204809.2964   21204816.5444
      -133.783        -104.246
 -15366021.272 9 -11958012.52148  20844995.811    20844997.0684   20845004.7594
      1547.283        1205.675
   1026203.074 9    879297.72048  20731819.120    20731820.2184   20731827.2514
     -1564.124       -1218.798
  -6960437.361 9  -5406334.12448  22825723.853    22825725.3744   22825732.6754
       781.808         609.201
  -8541840.576 9  -6643943.62846  23738486.698    23738487.4244   23738495.4374
       151.471         118.029
 97  4 29 16 59  0.0000000  0  6 19  2  7 27 26 15                   0.000582590
  13474311.114 9  10491724.70846  23881868.095    23881869.5724   23881878.0884
     -3202.015       -2495.077
  -2697302.569 9  -1924470.49448  21205589.266    21205590.0924   21205597.3384
      -139.790        -108.927
 -15412202.727 9 -11993998.05248  20836207.708    20836208.9874   20836216.6614
      1531.579        1193.438
   1073385.302 9    916063.07248  20740797.612    20740798.6914   20740805.7334
     -1581.237       -1232.133
  -6983615.556 9  -5424395.07647  22821313.280    22821314.7764   22821321.9534
       763.457         594.902
  -8546097.018 9  -6647260.32146  23737676.748    23737677.4724   23737685.4824
       132.316         103.103
 97  4 29 16 59 30.0000000  0  6 19  2  7 27 26 15                   0.000583696
  13570445.139 9  10566634.26446  23900161.878    23900163.2754   23900171.7914
     -3207.616       -2499.441
  -2693036.697 9  -1921146.44248  21206401.082    21206401.8414   21206409.0734
      -145.396        -113.296
 -15457946.603 9 -12029642.61548  20827502.906    20827504.1834   20827511.8434
      1517.231        1182.258
   1121046.626 9    953201.74348  20749867.319    20749868.3804   20749875.4174
     -1596.802       -1244.261
  -7006269.384 9  -5442047.39847  22817002.347    22817003.8364   22817011.1174
       746.183         581.441
  -8549807.510 9  -6650151.60646  23736970.627    23736971.3514   23736979.3794
       114.355          89.108
 97  4 29 17  0  0.0000000  0  6 19  2  7 27 26 15                   0.000584791
  13666773.032 9  10641694.89146  23918492.615    23918493.9314   23918502.4954
     -3214.483       -2504.792
  -2688577.850 9  -1917672.01248  21207249.498    21207250.3204   21207257.5184
      -152.049        -118.480
 -15503236.162 9 -12064933.16348  20818884.658    20818885.8824   20818893.5134
      1501.834        1170.260
   1169189.553 9    990715.69648  20759028.584    20759029.7054   20759036.7434
     -1612.881       -1256.790
  -7028387.925 9  -5459282.60648  22812793.212    22812794.7674   22812802.1714
       728.150         567.390
  -8552959.586 9  -6652607.75346  23736370.814    23736371.4834   23736379.5654
        95.486          74.405
 97  4 29 17  0 30.0000000  0  6 19  2  7 27 26 15                   0.000585882
  13763310.237 9  10716918.63046  23936863.089    23936864.4164   23936873.0384
     -3221.231       -2510.050
  -2683917.190 9  -1914040.32948  21208136.312    21208137.2284   21208144.3834
      -158.456        -123.472
 -15548060.766 9 -12099861.40748  20810354.906    20810356.0474   20810363.6804
      1486.523        1158.330
   1217810.830 9   1028602.38248  20768280.961    20768282.0504   20768289.0744
     -1628.178       -1268.710
  -7049970.535 9  -5476100.24048  22808686.339    22808687.8324   22808695.1774
       710.979         554.010
  -8555541.808 9  -6654619.84546  23735879.335    23735880.1234   23735888.1594
        76.808          59.850
 97  4 29 17  1  0.0000000  0  6 19  2  7 27 26 15                   0.000586961
  13860059.747 9  10792307.79846  23955273.725    23955275.2494   23955283.8914
     -3228.603       -2515.794
  -2679062.483 9  -1910257.43948  21209060.161    21209061.0674   21209068.1904
      -164.883        -128.480
 -15592421.230 9 -12134427.98548  20801913.326    20801914.5384   20801922.1264
      1470.960        1146.203
   1266879.242 9   1066837.48848  20777618.398    20777619.4654   20777626.4864
     -1642.833       -1280.130
  -7071043.396 9  -5492520.65547  22804676.357    22804677.7954   22804685.1304
       694.010         540.787
  -8557559.966 9  -6656192.42446  23735495.206    23735496.0914   23735504.0894
        57.918          45.131
 97  4 29 17  1 30.0000000  0  6 19  2  7 27 26 15                   0.000588040
  13957034.247 9  10867872.27446  23973727.633    23973728.8914   23973737.6484
     -3236.330       -2521.816
  -2674029.501 9  -1906335.63448  21210017.930    21210018.8044   21210025.9544
      -170.720        -133.029
 -15636315.936 9 -12168631.63548  20793560.435    20793561.6474   20793569.2404
      1455.138        1133.874
   1316375.327 9   1105405.84748  20787037.218    20787038.2784   20787045.3004
     -1657.159       -1291.293
  -7091610.101 9  -5508546.65248  22800762.612    22800764.0104   22800771.3844
       676.887         527.444
  -8559018.548 9  -6657328.97246  23735217.783    23735218.5834   23735226.5164
        39.047          30.426
 97  4 29 17  2  0.0000000  0  6 19  2  7 27 26 15                   0.000589131
  14054236.410 9  10943614.15746  23992224.630    23992225.9244   23992234.6404
     -3243.665       -2527.531
  -2668833.961 9  -1902287.16348  21211006.651    21211007.4874   21211014.6114
      -175.499        -136.752
 -15679735.824 9 -12202465.29448  20785297.884    20785299.1034   20785306.6944
      1439.655        1121.809
   1366303.447 9   1144310.85648  20796538.239    20796539.3064   20796546.3434
     -1671.482       -1302.454
  -7111658.282 9  -5524168.61248  22796947.682    22796949.0344   22796956.3824
       659.623         513.992
  -8559909.167 9  -6658022.94446  23735048.362    23735049.0914   23735057.0024
        20.269          15.794
 97  4 29 17  2 30.0000000  0  6 19  2  7 27 26 15                   0.000590240
  14151647.729 9  11019519.02846  24010761.508    24010762.7234   24010771.4264
     -3250.490       -2532.849
  -2663503.911 9  -1898133.87748  21212020.980    21212021.7824   21212028.8954
      -180.018        -140.274
 -15722696.771 9 -12235941.33948  20777122.740    20777123.8634   20777131.4404
      1424.308        1109.850
   1416666.973 9   1183555.14348  20806122.154    20806123.1964   20806130.2014
     -1686.243       -1313.956
  -7131184.175 9  -5539383.60348  22793232.074    22793233.4654   22793240.7104
       641.927         500.203
  -8560235.285 9  -6658277.05846  23734986.189    23734987.0384   23734994.9624
         1.353           1.054
 97  4 29 17  3  0.0000000  0  6 19  2  7 27 26 15                   0.000591372
  14249260.908 9  11095581.19346  24029336.907    24029337.9204   24029346.6524
     -3256.757       -2537.733
  -2658039.006 9  -1893875.50948  21213060.960    21213061.7564   21213068.8464
      -184.031        -143.401
 -15765196.315 9 -12269057.84548  20769035.331    20769036.4214   20769044.0014
      1409.172        1098.056
   1467482.130 9   1223151.34848  20815792.004    20815793.0324   20815800.0274
     -1701.480       -1325.829
  -7150166.702 9  -5554175.18747  22789619.802    22789621.2014   22789628.3874
       623.717         486.013
  -8559993.002 9  -6658088.25946  23735032.453    23735033.1694   23735041.0174
       -17.311         -13.489
 97  4 29 17  3 30.0000000  0  6 19  2  7 27 26 15                   0.000592524
  14347057.034 9  11171785.89546  24047946.838    24047948.0214   24047956.6354
     -3262.198       -2541.972
  -2652444.542 9  -1889516.18448  21214125.623    21214126.3674   21214133.4324
      -188.458        -146.850
 -15807233.314 9 -12301813.93348  20761035.872    20761037.0334   20761044.6044
      1393.928        1086.178
   1518775.054 9   1263119.84448  20825552.739    20825553.7514   20825560.7854
     -1717.531       -1338.336
  -7168596.334 9  -5568535.94248  22786112.764    22786114.1834   22786121.3804
       605.517         471.831
  -8559184.497 9  -6657458.25346  23735186.386    23735187.0094   23735194.8364
       -36.068         -28.105
 97  4 29 17  4  0.0000000  0  6 19  2  7 27 26 15                   0.000593681
  14445007.012 9  11248110.49746  24066586.328    24066587.3604   24066595.9404
     -3267.432       -2546.051
  -2646709.439 9  -1885047.27548  21215216.992    21215217.7374   21215224.7624
      -193.576        -150.838
 -15848814.452 9 -12334214.79848  20753123.295    20753124.4114   20753131.9984
      1378.511        1074.164
   1570556.022 9   1303468.63348  20835406.336    20835407.3614   20835414.3834
     -1734.155       -1351.290
  -7186472.204 9  -5582465.19648  22782711.118    22782712.5434   22782719.7454
       586.694         457.164
  -8557808.993 9  -6656386.43246  23735448.139    23735448.7804   23735456.5894
       -55.220         -43.029
 97  4 29 17  4 30.0000000  0  6 19  2  7 27 26 15                   0.000594837
  14543114.567 9  11324557.88046  24085255.537    24085256.7584   24085265.1654
     -3272.767       -2550.208
  -2640813.279 9  -1880452.86548  21216338.959    21216339.7484   21216346.7824
      -199.313        -155.309
 -15889934.587 9 -12366256.44348  20745298.419    20745299.4954   20745307.0804
      1363.089        1062.147
   1622832.469 9   1344203.50248  20845354.261    20845355.2594   20845362.2734
     -1750.552       -1364.066
  -7203793.496 9  -5595962.29348  22779414.900    22779416.3774   22779423.6764
       568.542         443.020
  -8555863.902 9  -6654870.79446  23735818.261    23735818.9654   23735826.7064
       -74.128         -57.762
 97  4 29 17  5  0.0000000  0  6 19  2  7 27 26 15                   0.000595981
  14641389.462 9  11401135.67346  24103956.685    24103957.9074   24103966.3774
     -3278.775       -2554.890
  -2634733.232 9  -1875715.16848  21217495.932    21217496.7404   21217503.7794
      -205.724        -160.304
 -15930580.604 9 -12397928.64048  20737563.685    20737564.8314   20737572.4174
      1346.818        1049.468
   1675605.073 9   1385324.99348  20855396.565    20855397.5904   20855404.5994
     -1767.302       -1377.118
  -7220569.764 9  -5609034.70848  22776222.465    22776223.9404   22776231.2214
       550.290         428.797
  -8553347.692 9  -6652910.11046  23736297.057    23736297.7754   23736305.5764
       -93.427         -72.800
 97  4 29 17  5 30.0000000  0  6 19  2  7 27 26 15                   0.000597110
  14739842.606 9  11477852.34446  24122692.050    24122693.0014   24122701.5054
     -3284.688       -2559.497
  -2628461.876 9  -1870828.40148  21218689.353    21218690.1264   21218697.1794
      -212.192        -165.344
 -15970746.246 9 -12429226.52648  20729920.382    20729921.5464   20729929.1234
      1330.939        1037.095
   1728862.468 9   1426824.24548  20865531.097    20865532.1504   20865539.1564
     -1782.985       -1389.339
  -7236816.306 9  -5621694.35848  22773130.964    22773132.4044   22773139.5824
       532.842         415.202
  -8550258.316 9  -6650502.82446  23736884.861    23736885.6874   23736893.4674
      -112.522         -87.679
 97  4 29 17  6  0.0000000  0  6 19  2  7 27 26 15                   0.000598232
  14838486.594 9  11554717.73146  24141463.126    24141464.3534   24141472.8634
     -3291.744       -2564.995
  -2621996.391 9  -1865790.36448  21219919.697    21219920.4944   21219927.5114
      -218.892        -170.565
 -16010429.325 9 -12460148.38848  20722368.914    20722370.0594   20722377.6384
      1314.369        1024.184
   1782583.996 9   1468685.16348  20875754.019    20875755.0534   20875762.0714
     -1798.534       -1401.455
  -7252528.109 9  -5633937.33448  22770141.177    22770142.5554   22770149.6244
       514.575         400.968
  -8546590.156 9  -6647644.51746  23737582.952    23737583.6354   23737591.4704
      -132.180        -102.997
 97  4 29 17  6 30.0000000  0  6 19  2  7 27 26 15                   0.000599352
  14937333.789 9  11631741.47846  24160272.936    24160274.4134   24160282.9164
     -3298.341       -2570.136
  -2615352.224 9  -1860613.09848  21221184.056    21221184.8654   21221191.8444
      -224.297        -174.777
 -16049631.721 9 -12490695.70048  20714908.946    20714910.0704   20714917.6254
      1298.772        1012.030
   1836745.251 9   1510888.71748  20886060.607    20886061.6344   20886068.6374
     -1812.549       -1412.376
  -7267715.063 9  -5645771.31548  22767251.156    22767252.5844   22767259.6944
       497.552         387.703
  -8542350.704 9  -6644341.05446  23738389.562    23738390.4064   23738398.2344
      -150.805        -117.510
 97  4 29 17  7  0.0000000  0  6 19  2  7 27 26 15                   0.000600483
  15036389.720 9  11708927.86846  24179122.568    24179124.1904   24179132.7264
     -3305.097       -2575.400
  -2608541.910 9  -1855306.36348  21222479.980    21222480.7914   21222487.7694
      -229.448        -178.791
 -16088353.772 9 -12520868.70848  20707540.378    20707541.4994   20707549.0454
      1282.913         999.672
   1891333.633 9   1553425.09948  20896448.483    20896449.4654   20896456.4834
     -1826.445       -1423.204
  -7282372.102 9  -5657192.40048  22764462.140    22764463.5434   22764470.5654
       479.723         373.810
  -8537538.247 9  -6640591.09346  23739305.388    23739306.1794   23739314.0054
      -169.882        -132.376
 97  4 29 17  7 30.0000000  0  6 19  2  7 27 26 15                   0.000601625
  15135637.024 9  11786263.37346  24198008.801    24198010.3334   24198018.8924
     -3311.041       -2580.032
  -2601578.141 9  -1849880.05548  21223805.190    21223805.9784   21223812.9464
      -234.569        -182.781
 -16126602.423 9 -12550672.83748  20700261.943    20700263.0414   20700270.5754
      1267.276         987.488
   1946335.574 9   1596283.73548  20906915.033    20906916.0144   20906923.0374
     -1840.177       -1433.904
  -7296496.758 9  -5668198.62648  22761774.309    22761775.6784   22761782.7124
       462.081         360.063
  -8532152.669 9  -6636394.53946  23740330.387    23740331.0164   23740338.8754
      -188.939        -147.225
 97  4 29 17  8  0.0000000  0  6 19  2  7 27 26 15                   0.000602773
  15235057.212 9  11863733.59646  24216928.083    24216929.3444   24216938.0264
     -3316.772       -2584.498
  -2594460.331 9  -1844333.71848  21225159.695    21225160.4604   21225167.4154
      -239.873        -186.914
 -16164381.543 9 -12580111.10348  20693072.751    20693073.9164   20693081.4654
      1251.558         975.240
   2001752.567 9   1639465.78848  20917460.609    20917461.5414   20917468.5494
     -1854.313       -1444.919
  -7310086.215 9  -5678787.81548  22759188.310    22759189.6724   22759196.7804
       444.075         346.032
  -8526195.841 9  -6631752.84946  23741463.887    23741464.5284   23741472.3904
      -207.988        -162.069
 97  4 29 17  8 30.0000000  0  6 19  2  7 27 26 15                   0.000603923
  15334654.489 9  11941341.79646  24235880.796    24235882.0744   24235890.8174
     -3322.854       -2589.237
  -2587173.946 9  -1838656.01648  21226546.219    21226547.0094   21226553.9244
      -245.889        -191.602
 -16201688.555 9 -12609181.49048  20685973.496    20685974.6514   20685982.1694
      1235.665         962.856
   2057613.057 9   1682993.42448  20928090.466    20928091.4374   20928098.4754
     -1869.851       -1457.027
  -7323133.234 9  -5688954.30748  22756705.427    22756706.8604   22756714.0574
       425.754         331.756
  -8519662.475 9  -6626661.91646  23742707.134    23742707.7884   23742715.6644
      -227.536        -177.301
 97  4 29 17  9  0.0000000  0  6 19  2  7 27 26 15                   0.000605067
  15434413.460 9  12019076.00246  24254864.399    24254865.5414   24254874.3394
     -3327.875       -2593.149
  -2579709.979 9  -1832839.94448  21227966.584    21227967.3144   21227974.2484
      -251.836        -196.236
 -16238529.859 9 -12637888.98948  20678962.913    20678964.0284   20678971.5254
      1220.270         950.860
   2113939.487 9   1726884.13048  20938809.048    20938809.9984   20938817.0634
     -1885.453       -1469.184
  -7335638.177 9  -5698698.44248  22754325.856    22754327.3084   22754334.3414
       407.831         317.790
  -8512552.112 9  -6621121.36046  23744060.143    23744060.8674   23744068.7104
      -246.670        -192.210
 97  4 29 17  9 30.0000000  0  6 19  2  7 27 26 15                   0.000606195
  15534320.986 9  12096925.98946  24273876.023    24273877.3744   24273886.0704
     -3332.918       -2597.079
  -2572070.109 9  -1826886.80148  21229420.483    21229421.1664   21229428.0944
      -257.716        -200.818
 -16274913.372 9 -12666239.76848  20672039.341    20672040.5024   20672047.9744
      1205.088         939.030
   2170738.947 9   1771143.42948  20949617.625    20949618.5994   20949625.6504
     -1901.436       -1481.638
  -7347611.093 9  -5708027.99548  22752047.563    22752048.9554   22752055.9484
       390.146         304.010
  -8504871.527 9  -6615136.48146  23745521.830    23745522.4384   23745530.2484
      -265.595        -206.957
 97  4 29 17 10  0.0000000  0  6 19  2  7 27 26 15                   0.000607326
  15634415.352 9  12174921.55246  24292923.234    24292924.8284   24292933.4064
     -3339.729       -2602.386
  -2564235.300 9  -1820781.75948  21230911.437    21230912.1384   21230919.0324
      -264.405        -206.030
 -16310819.169 9 -12694218.30048  20665206.695    20665207.8854   20665215.3684
      1188.778         926.321
   2228044.311 9   1815796.94248  20960522.467    20960523.4654   20960530.5374
     -1918.770       -1495.145
  -7359026.255 9  -5716922.92648  22749875.333    22749876.7324   22749883.7054
       371.101         289.170
  -8496604.825 9  -6608694.89146  23747094.817    23747095.5214   23747103.3404
      -285.368        -222.365
 97  4 29 17 10 30.0000000  0  6 19  2  7 27 26 15                   0.000608460
  15734688.449 9  12253056.36446  24312004.821    24312006.1924   24312014.7644
     -3344.895       -2606.412
  -2556226.135 9  -1814540.85248  21232435.554    21232436.2544   21232443.1214
      -269.401        -209.923
 -16346256.699 9 -12721831.94748  20658463.122    20658464.3264   20658471.8284
      1173.799         914.649
   2285848.121 9   1860838.85248  20971522.145    20971523.1514   20971530.2554
     -1934.453       -1507.366
  -7369897.976 9  -5725394.40648  22747806.620    22747808.0174   22747814.9634
       353.837         275.717
  -8487763.388 9  -6601805.43846  23748777.351    23748777.9744   23748785.8314
      -303.913        -236.815
 97  4 29 17 11  0.0000000  0  6 19  2  7 27 26 15                   0.000609592
  15835130.834 9  12331323.10246  24331117.904    24331119.7434   24331128.3024
     -3351.181       -2611.310
  -2548048.188 9  -1808168.42548  21233991.764    21233992.4664   21233999.3544
      -275.491        -214.668
 -16381219.861 9 -12749075.95848  20651809.912    20651811.0584   20651818.5814
      1157.238         901.744
   2344125.084 9   1906249.45148  20982611.908    20982612.9134   20982620.0124
     -1950.409       -1519.799
  -7380231.189 9  -5733446.24948  22745840.181    22745841.6274   22745848.7244
       335.221         261.211
  -8478349.011 9  -6594469.56046  23750568.788    23750569.4014   23750577.3384
      -323.607        -252.161
 97  4 29 17 11 30.0000000  0  6 19  2  7 27 26 15                   0.000610734
  15935758.152 9  12409733.94346  24350266.681    24350268.4914   24350277.2164
     -3357.242       -2616.033
  -2539708.300 9  -1801669.81548  21235578.779    21235579.5244   21235586.4104
      -280.624        -218.668
 -16415697.010 9 -12775941.25348  20645249.117    20645250.2654   20645257.7954
      1141.226         889.267
   2402859.834 9   1952016.76848  20993788.708    20993789.7694   20993796.8834
     -1965.268       -1531.378
  -7390017.702 9  -5741072.09048  22743977.711    22743979.1814   22743986.3974
       317.218         247.183
  -8468355.408 9  -6586682.32746  23752470.460    23752471.1194   23752479.0494
      -342.662        -267.009
 97  4 29 17 12  0.0000000  0  6 19  2  7 27 26 15                   0.000611884
  16036565.359 9  12488284.95346  24369449.791    24369451.5734   24369460.2184
     -3363.264       -2620.725
  -2531209.007 9  -1795046.99448  21237196.160    21237196.8924   21237203.7674
      -286.165        -222.986
 -16449689.661 9 -12802429.02348  20638780.457    20638781.6474   20638789.1844
      1124.801         876.468
   2462043.251 9   1998133.68848  21005050.979    21005052.0274   21005059.1264
     -1980.459       -1543.215
  -7399263.100 9  -5748276.31948  22742218.492    22742219.9164   22742226.9824
       298.998         232.985
  -8457788.384 9  -6578448.26446  23754481.214    23754481.9114   23754489.8884
      -362.044        -282.112
 97  4 29 17 12 30.0000000  0  6 19  2  7 27 26 15                   0.000613034
  16137533.128 9  12566961.08746  24388663.520    24388665.1504   24388673.8604
     -3368.333       -2624.675
  -2522558.189 9  -1788306.10048  21238842.350    21238843.0834   21238849.9664
      -290.898        -226.674
 -16483206.659 9 -12828546.14948  20632402.411    20632403.5394   20632411.0734
      1109.316         864.402
   2521664.689 9   2044591.92748  21016396.571    21016397.6154   21016404.7234
     -1994.670       -1554.288
  -7407975.577 9  -5755065.26448  22740560.589    22740562.0674   22740569.0614
       281.391         219.266
  -8446646.243 9  -6569766.06646  23756601.473    23756602.2104   23756610.1314
      -381.122        -296.978
 97  4 29 17 13  0.0000000  0  6 19  2  7 27 26 15                   0.000614198
  16238672.432 9  12645770.86846  24407910.007    24407911.3234   24407920.1464
     -3373.848       -2628.972
  -2513754.231 9  -1781445.87448  21240517.720    21240518.4344   21240525.3164
      -295.531        -230.284
 -16516248.890 9 -12854293.32548  20626114.684    20626115.7514   20626123.2894
      1093.860         852.358
   2581724.536 9   2091391.78348  21027825.646    21027826.6694   21027833.7624
     -2009.095       -1565.529
  -7416141.488 9  -5761428.30948  22739006.666    22739008.1754   22739015.1394
       263.366         205.220
  -8434921.554 9  -6560629.92746  23758832.578    23758833.3514   23758841.2464
      -400.302        -311.924
 97  4 29 17 13 30.0000000  0  6 19  2  7 27 26 15                   0.000615378
  16339972.500 8  12724705.92646  24427186.764    24427188.1664   24427196.8714
     -3379.335       -2633.248
  -2504812.106 9  -1774477.99248  21242219.340    21242220.0834   21242226.9594
      -300.688        -234.302
 -16548830.448 9 -12879681.53848  20619914.571    20619915.6924   20619923.2224
      1078.189         840.147
   2642224.343 9   2138534.46148  21039338.405    21039339.4014   21039346.5004
     -2024.253       -1577.340
  -7423763.048 9  -5767367.20348  22737556.408    22737557.8644   22737564.7454
       244.772         190.731
  -8422616.998 9  -6551041.96146  23761174.034    23761174.8284   23761182.7044
      -419.932        -327.220
 97  4 29 17 14  0.0000000  0  6 19  2  7 27 26 15                   0.000616565
  16441412.898 9  12803750.33146  24446490.379    24446491.7604   24446500.4734
     -3383.792       -2636.721
  -2495733.183 9  -1767403.51548  21243946.918    21243947.7284   21243954.6004
      -304.979        -237.646
 -16580957.700 9 -12904715.74748  20613800.946    20613802.0614   20613809.6144
      1063.164         828.439
   2703160.433 9   2186017.10348  21050934.165    21050935.1834   21050942.2814
     -2038.484       -1588.429
  -7430846.693 9  -5772886.93348  22736208.522    22736209.9034   22736216.7854
       226.967         176.857
  -8409739.373 9  -6541007.44146  23763624.523    23763625.3524   23763633.2034
      -439.008        -342.084
 97  4 29 17 14 30.0000000  0  6 19  2  7 27 26 15                   0.000617771
  16543007.080 9  12882914.55546  24465823.320    24465824.6614   24465833.2524
     -3389.553       -2641.210
  -2486503.073 9  -1760211.22548  21245703.409    21245704.1754   21245711.0444
      -310.653        -242.067
 -16612608.719 9 -12929378.86448  20607777.937    20607779.0394   20607786.6074
      1046.526         815.475
   2764536.295 9   2233842.42148  21062613.655    21062614.6624   21062621.7524
     -2053.585       -1600.196
  -7437368.306 9  -5777968.70948  22734967.401    22734968.7934   22734975.7594
       207.536         161.716
  -8396270.561 9  -6530512.26446  23766187.571    23766188.3834   23766196.2564
      -459.146        -357.776
 97  4 29 17 15  0.0000000  0  6 19  2  7 27 26 15                   0.000618989
  16644753.602 8  12962197.49846  24485184.788    24485186.3624   24485195.0294
     -3393.930       -2644.621
  -2477119.560 9  -1752899.40648  21247489.061    21247489.8154   21247496.6884
      -315.342        -245.721
 -16643773.749 9 -12953663.29248  20601847.400    20601848.4804   20601856.0344
      1030.750         803.182
   2826344.541 9   2282004.66348  21074375.406    21074376.4224   21074383.5244
     -2067.419       -1610.976
  -7443329.850 9  -5782614.06548  22733832.878    22733834.3174   22733841.4124
       189.565         147.713
  -8382220.502 9  -6519564.16346  23768861.122    23768862.0444   23768869.8944
      -477.976        -372.449
 97  4 29 17 15 30.0000000  0  6 19  2  7 27 26 15                   0.000620208
  16746644.414 8  13041592.85946  24504574.005    24504575.5624   24504584.3644
     -3398.517       -2648.195
  -2467573.814 9  -1745461.16748  21249305.537    21249306.3004   21249313.1814
      -320.750        -249.935
 -16674449.517 9 -12977566.47548  20596009.976    20596011.0694   20596018.5864
      1014.703         790.678
   2888587.810 9   2330505.88248  21086219.948    21086220.9444   21086228.0524
     -2081.816       -1622.194
  -7448742.720 9  -5786831.88648  22732802.852    22732804.2884   22732811.4254
       171.733         133.818
  -8367591.800 9  -6508165.17846  23771644.912    23771645.7924   23771653.6184
      -496.859        -387.163
 97  4 29 17 16  0.0000000  0  6 19  2  7 27 26 15                   0.000621421
  16848694.220 8  13121112.10746  24523993.362    24523994.9884   24524003.9304
     -3404.362       -2652.750
  -2457851.305 9  -1737885.19448  21251155.559    21251156.4564   21251163.3424
      -326.907        -254.733
 -16704632.092 9 -13001085.35248  20590266.456    20590267.5274   20590275.0234
       998.086         777.729
   2951277.989 9   2379355.34848  21098149.529    21098150.5374   21098157.6044
     -2097.112       -1634.113
  -7453614.238 9  -5790627.89048  22731875.829    22731877.2594   22731884.2414
       153.589         119.680
  -8352386.258 9  -6496316.71246  23774538.496    23774539.3154   23774547.1604
      -516.327        -402.333
 97  4 29 17 16 30.0000000  0  6 19  2  7 27 26 15                   0.000622635
  16950928.019 8  13200774.74146  24543447.804    24543449.4444   24543458.4374
     -3410.890       -2657.836
  -2447936.554 9  -1730159.42148  21253042.218    21253043.1624   21253050.0434
      -333.717        -260.039
 -16734322.411 9 -13024220.64748  20584616.566    20584617.6424   20584625.1554
       981.721         764.977
   3014439.754 9   2428572.28348  21110168.827    21110169.8324   21110176.9284
     -2113.414       -1646.816
  -7457942.261 9  -5794000.38448  22731052.253    22731053.6854   22731060.6394
       135.424         105.525
  -8336594.521 9  -6484011.47446  23777543.582    23777544.3684   23777552.2084
      -536.151        -417.780
 97  4 29 17 17  0.0000000  0  6 19  2  7 27 26 15                   0.000623841
  17053341.623 8  13280577.46646  24562936.260    24562938.2034   24562947.1324
     -3416.380       -2662.114
  -2437831.256 9  -1722285.16948  21254965.259    21254966.1374   21254973.0324
      -339.744        -264.736
 -16763550.586 9 -13046995.83348  20579054.629    20579055.7214   20579063.2174
       967.050         753.545
   3078080.888 9   2478162.75248  21122279.357    21122280.3424   21122287.4574
     -2129.069       -1659.015
  -7461750.951 9  -5796968.19048  22730327.447    22730328.8854   22730335.8764
       118.801          92.572
  -8320223.904 9  -6471255.16846  23780658.975    23780659.6514   23780667.4594
      -555.139        -432.576
 97  4 29 17 17 30.0000000  0  6 19  2  7 27 26 15                   0.000625030
  17155923.023 8  13360510.94446  24582456.791    24582458.8734   24582467.7334
     -3422.646       -2666.997
  -2427540.212 9  -1714266.17748  21256923.577    21256924.4604   21256931.3454
      -346.598        -270.076
 -16792337.990 9 -13069427.55848  20573576.494    20573577.6714   20573585.1794
       951.817         741.676
   3142198.522 9   2528124.52748  21134480.505    21134481.5324   21134488.6544
     -2145.558       -1671.863
  -7465063.872 9  -5799549.69448  22729697.106    22729698.5084   22729705.4524
       101.611          79.177
  -8303280.565 9  -6458052.58746  23783883.111    23783883.8234   23783891.6924
      -574.724        -447.837
 97  4 29 17 18  0.0000000  0  6 19  2  7 27 26 15                   0.000626207
  17258671.434 8  13440574.56446  24602009.296    24602011.3324   24602020.3054
     -3427.870       -2671.068
  -2417056.500 9  -1706097.05848  21258918.696    21258919.4424   21258926.3094
      -352.917        -275.000
 -16820680.644 9 -13091512.72948  20568183.071    20568184.2494   20568191.7454
       936.887         730.042
   3206790.819 9   2578456.15848  21146772.071    21146773.0724   21146780.1804
     -2161.272       -1684.108
  -7467869.265 9  -5801735.73048  22729163.317    22729164.6904   22729171.5924
        84.665          65.973
  -8285761.798 9  -6444401.63946  23787216.749    23787217.4944   23787225.4794
      -593.942        -462.812
 97  4 29 17 18 30.0000000  0  6 19  2  7 27 26 15                   0.000627378
  17361578.576 8  13520761.84146  24621592.395    24621594.0674   24621602.9444
     -3432.045       -2674.321
  -2406367.112 9  -1697767.67148  21260952.844    21260953.5804   21260960.4134
      -359.083        -279.805
 -16848553.385 9 -13113231.73748  20562879.078    20562880.2364   20562887.6994
       921.613         718.140
   3271870.328 9   2629167.43548  21159156.291    21159157.3124   21159164.4364
     -2176.729       -1696.152
  -7470146.945 9  -5803510.53648  22728729.733    22728731.1674   22728738.1714
        67.664          52.725
  -8267648.806 9  -6430287.64746  23790663.596    23790664.2834   23790672.2444
      -613.057        -477.707
 97  4 29 17 19  0.0000000  0  6 19  2  7 27 26 15                   0.000628526
  17464596.658 8  13601035.57145  24641196.598    24641197.7374   24641206.7914
     -3435.798       -2677.245
  -2395504.462 9  -1689303.26948  21263019.844    21263020.6764   21263027.5114
      -364.985        -284.404
 -16875956.355 9 -13134584.68548  20557664.384    20557665.6134   20557673.0394
       905.065         705.245
   3337401.207 9   2680230.43348  21171626.450    21171627.4444   21171634.5734
     -2191.955       -1708.017
  -7471912.789 9  -5804886.53748  22728393.783    22728395.2774   22728402.1104
        50.016          38.974
  -8248965.560 9  -6415729.30846  23794218.891    23794219.5904   23794227.5554
      -632.472        -492.835
 97  4 29 17 19 30.0000000  0  6 19  2  7 27 26 15                   0.000629655
  17567722.100 8  13681392.95945  24660820.187    24660821.8274   24660830.9994
     -3439.839       -2680.394
  -2384473.637 9  -1680707.82448  21265118.985    21265119.7924   21265126.6214
      -371.014        -289.102
 -16902851.080 9 -13155541.60048  20552546.585    20552547.7104   20552555.1614
       887.388         691.471
   3403378.960 9   2731641.64148  21184181.667    21184182.6214   21184189.7514
     -2207.097       -1719.816
  -7473140.635 9  -5805843.31648  22728160.248    22728161.7194   22728168.4824
        31.026          24.176
  -8229702.363 9  -6400719.05846  23797884.713    23797885.3084   23797893.2304
      -652.357        -508.330
 97  4 29 17 20  0.0000000  0  6 19  2  7 27 26 15                   0.000630786
  17670959.601 8  13761837.67945  24680465.922    24680467.2804   24680476.4904
     -3442.856       -2682.745
  -2373279.089 9  -1671984.80348  21267249.292    21267250.0174   21267256.8694
      -375.547        -292.634
 -16929226.911 9 -13176094.18548  20547527.381    20547528.5714   20547535.9974
       870.723         678.485
   3469791.928 9   2783391.97648  21196819.632    21196820.6034   21196827.7374
     -2220.789       -1730.485
  -7473804.342 9  -5806360.48848  22728033.922    22728035.3834   22728042.2034
        13.068          10.183
  -8209850.772 9  -6385250.31946  23801662.223    23801662.9474   23801670.9174
      -671.406        -523.173
 97  4 29 17 20 30.0000000  0  6 19  2  7 27 26 15                   0.000631912
  17774304.167 8  13842365.81645  24700132.073    24700133.2864   24700142.3704
     -3447.063       -2686.023
  -2361946.191 9  -1663153.97848  21269405.856    21269406.5874   21269413.4734
      -380.061        -296.151
 -16955093.457 9 -13196249.92848  20542605.149    20542606.3114   20542613.7274
       853.672         665.199
   3536622.291 9   2835467.56148  21209537.059    21209538.0254   21209545.1414
     -2234.739       -1741.355
  -7473922.037 9  -5806452.20848  22728011.508    22728012.9624   22728019.8344
        -5.426          -4.228
  -8189420.094 9  -6369330.33346  23805550.041    23805550.7944   23805558.7354
      -690.826        -538.306
 97  4 29 17 21  0.0000000  0  6 19  2  7 27 26 15                   0.000633052
  17877784.992 8  13923000.12945  24719823.826    24719825.2454   24719834.2034
     -3452.080       -2689.932
  -2350492.798 9  -1654229.26148  21271585.336    21271586.1144   21271592.9714
      -384.045        -299.256
 -16980463.482 9 -13216018.77048  20537777.454    20537778.5554   20537785.9454
       837.470         652.574
   3603859.825 9   2887860.41648  21222331.949    21222332.9534   21222340.0544
     -2248.226       -1751.864
  -7473489.803 9  -5806115.41448  22728093.746    22728095.1814   22728102.0314
       -23.682         -18.454
  -8168410.695 9  -6352959.40546  23809548.054    23809548.7204   23809556.6914
      -710.215        -553.414
 97  4 29 17 21 30.0000000  0  6 19  2  7 27 26 15                   0.000634210
  17981421.775 8  14003755.94645  24739545.426    24739546.5994   24739555.5754
     -3457.674       -2694.291
  -2338919.039 9  -1645210.74548  21273787.728    21273788.5634   21273795.4264
      -388.334        -302.598
 -17005364.156 9 -13235421.88548  20533039.072    20533040.1334   20533047.5244
       821.992         640.513
   3671495.019 9   2940563.14148  21235202.535    21235203.5324   21235210.6284
     -2261.568       -1762.261
  -7472519.462 9  -5805359.31948  22728278.473    22728279.8684   22728286.6594
       -41.648         -32.453
  -8146824.976 9  -6336139.37646  23813655.666    23813656.4834   23813664.4004
      -729.477        -568.424
 97  4 29 17 22  0.0000000  0  6 19  2  7 27 26 15                   0.000635482
  18085236.852 8  14084650.70545  24759301.200    24759302.0614   24759310.9664
     -3463.790       -2699.057
  -2327207.281 9  -1636084.70548  21276016.428    21276017.2154   21276024.0894
      -393.168        -306.365
 -17029805.394 9 -13254467.00048  20528387.988    20528389.0894   20528396.4634
       806.737         628.626
   3739540.276 9   2993585.39648  21248151.145    21248152.1374   21248159.2254
     -2275.669       -1773.249
  -7471021.422 9  -5804192.03348  22728563.481    22728564.9424   22728571.7634
       -58.812         -45.828
  -8124664.080 9  -6318871.15446  23817872.726    23817873.5774   23817881.4584
      -748.589        -583.316
 97  4 29 17 22 30.0000000  0  6 19  2  7 27 26 15                   0.000636668
  18189244.986 8  14165695.89245  24779093.742    24779094.2894   24779103.1754
     -3470.013       -2703.906
  -2315334.756 9  -1626833.39348  21278275.720    21278276.5154   21278283.3774
      -398.410        -310.449
 -17053781.242 9 -13273149.47548  20523825.633    20523826.6654   20523834.0164
       791.699         616.908
   3808028.232 9   3046952.60848  21261183.918    21261184.9684   21261192.0604
     -2290.200       -1784.571
  -7468997.986 9  -5802615.32948  22728948.443    22728949.9254   22728956.8694
       -76.068         -59.274
  -8101921.711 9  -6301149.84646  23822200.433    23822201.3094   23822209.1794
      -767.532        -598.077
 97  4 29 17 23  0.0000000  0  6 19  2  7 27 26 15                   0.000637848
  18293434.951 8  14246882.77345  24798920.029    24798921.1654   24798929.8514
     -3475.643       -2708.293
  -2303285.362 9  -1617444.25648  21280568.650    21280569.4564   21280576.2824
      -404.979        -315.568
 -17077308.610 9 -13291482.48348  20519348.503    20519349.5404   20519356.8954
       776.743         605.254
   3876956.368 9   3100662.82548  21274300.569    21274301.5924   21274308.6594
     -2304.995       -1796.100
  -7466455.049 9  -5800633.84548  22729432.382    22729433.8524   22729440.7144
       -93.376         -72.761
  -8078607.701 9  -6282983.08146  23826637.007    23826637.8434   23826645.7334
      -786.691        -613.006
 97  4 29 17 23 30.0000000  0  6 19  2  7 27 26 15                   0.000639010
  18397784.754 8  14328194.20845  24818776.736    24818778.2734   24818787.2414
     -3480.603       -2712.158
  -2291020.518 9  -1607887.23948  21282902.679    21282903.3854   21282910.1824
      -412.349        -321.311
 -17100375.720 9 -13309456.84948  20514958.968    20514960.0204   20514967.3674
       761.201         593.144
   3946341.490 9   3154729.13148  21287504.162    21287505.1514   21287512.2364
     -2320.500       -1808.182
  -7463384.820 9  -5798241.46348  22730016.575    22730018.0604   22730025.0224
      -111.142         -86.604
  -8054714.761 9  -6264365.21446  23831183.664    23831184.5044   23831192.4134
      -805.891        -627.967
 97  4 29 17 24  0.0000000  0  6 19  2  7 27 26 15                   0.000640168
  18502276.261 8  14409616.06445  24838661.163    24838662.4524   24838671.3274
     -3485.189       -2715.732
  -2278527.516 9  -1598152.44048  21285280.027    21285280.7254   21285287.5384
      -420.175        -327.409
 -17122971.370 9 -13327063.84248  20510659.138    20510660.2274   20510667.5544
       745.238         580.705
   4016203.553 9   3209167.07548  21300798.462    21300799.4894   21300806.5854
     -2336.804       -1820.886
  -7459773.530 9  -5795427.48648  22730703.818    22730705.2924   22730712.2324
      -129.515        -100.921
  -8030237.982 9  -6245292.39646  23835841.406    23835842.3004   23835850.1964
      -825.804        -643.484
 97  4 29 17 24 30.0000000  0  6 19  2  7 27 26 15                   0.000641335
  18606876.419 8  14491122.62145  24858565.853    24858567.2034   24858576.1134
     -3488.346       -2718.192
  -2265831.673 9  -1588259.58248  21287695.914    21287696.6524   21287703.4734
      -426.268        -332.157
 -17145107.273 9 -13344312.58848  20506446.874    20506447.8964   20506455.2314
       730.275         569.045
   4086529.521 9   3263966.51048  21314181.093    21314182.0974   21314189.2144
     -2351.592       -1832.409
  -7455623.459 9  -5792193.66948  22731493.584    22731495.0404   22731502.0394
      -147.353        -114.821
  -8005183.108 9  -6225769.12746  23840609.241    23840610.0504   23840618.0004
      -844.779        -658.269
 97  4 29 17 25  0.0000000  0  6 19  2  7 27 26 15                   0.000642511
  18711559.410 8  14572693.69745  24878486.230    24878487.7974   24878496.8884
     -3490.557       -2719.915
  -2252961.676 9  -1578231.02248  21290144.929    21290145.7264   21290152.5454
      -431.437        -336.185
 -17166787.766 9 -13361206.47048  20502321.113    20502322.2334   20502329.5614
       715.016         557.155
   4157289.475 9   3319104.12048  21327646.223    21327647.2634   21327654.3954
     -2365.614       -1843.336
  -7450935.122 9  -5788540.44248  22732385.767    22732387.2014   22732394.0924
      -165.103        -128.652
  -7979558.741 9  -6205802.08446  23845485.436    23845486.2104   23845494.2084
      -863.516        -672.870
 97  4 29 17 25 30.0000000  0  6 19  2  7 27 26 15                   0.000643698
  18816326.988 8  14654330.68945  24898423.287    24898424.3504   24898433.6654
     -3493.869       -2722.495
  -2239948.828 9  -1568091.14748  21292621.150    21292621.9984   21292628.8154
      -435.881        -339.648
 -17187995.620 9 -13377732.06248  20498285.469    20498286.5304   20498293.8754
       698.980         544.660
   4228472.190 9   3374571.15148  21341191.853    21341192.9014   21341200.0474
     -2379.598       -1854.232
  -7445712.743 9  -5784471.08148  22733379.670    22733381.0554   22733387.8684
      -182.854        -142.484
  -7953365.532 9  -6185391.80346  23850469.868    23850470.6074   23850478.6694
      -882.505        -687.666
 97  4 29 17 26  0.0000000  0  6 19  2  7 27 26 15                   0.000644902
  18921207.650 8  14736055.81245  24918381.471    24918382.5544   24918391.8494
     -3497.861       -2725.606
  -2226801.300 9  -1557846.32348  21295123.103    21295123.8914   21295130.7184
      -440.140        -342.966
 -17208712.844 9 -13393875.34548  20494343.122    20494344.1604   20494351.5034
       682.559         531.864
   4300074.596 9   3430365.21448  21354817.352    21354818.3724   21354825.5754
     -2393.384       -1864.975
  -7439947.696 9  -5779978.83348  22734476.662    22734478.0564   22734484.9524
      -200.951        -156.585
  -7926592.374 9  -6164529.61246  23855564.435    23855565.3534   23855573.3504
      -901.938        -702.809
 97  4 29 17 26 30.0000000  0  6 19  2  7 27 26 15                   0.000646113
  19026218.836 8  14817882.62245  24938364.416    24938365.5894   24938374.9114
     -3502.799       -2729.454
  -2213529.891 9  -1547504.97248  21297648.657    21297649.3744   21297656.1874
      -444.763        -346.569
 -17228929.017 9 -13409628.20048  20490496.024    20490497.1574   20490504.5074
       665.205         518.341
   4372081.010 9   3486474.09048  21368519.706    21368520.7404   21368527.9724
     -2407.032       -1875.609
  -7433644.234 9  -5775067.05048  22735676.127    22735677.5594   22735684.4864
      -219.272        -170.861
  -7899239.696 9  -6143215.85446  23860769.598    23860770.3594   23860778.4184
      -921.564        -718.102
 97  4 29 17 27  0.0000000  0  6 19  2  7 27 26 15                   0.000647302
  19131355.043 8  14899806.85945  24958371.055    24958372.2854   24958381.7794
     -3506.652       -2732.456
  -2200138.336 9  -1537070.00248  21300196.994    21300197.7114   21300204.5084
      -448.457        -349.447
 -17248653.194 9 -13424997.67848  20486742.712    20486743.7564   20486751.1144
       649.496         506.101
   4444468.196 9   3542879.66448  21382294.521    21382295.5714   21382302.8254
     -2419.300       -1885.169
  -7426820.684 9  -5769750.01048  22736974.686    22736976.1144   22736983.0424
      -235.914        -183.829
  -7871328.549 9  -6121466.92846  23866080.944    23866081.6684   23866089.7274
      -939.477        -732.060
 97  4 29 17 27 30.0000000  0  6 19  2  7 27 26 15                   0.000648478
  19236644.798 8  14981850.78645  24978407.161    24978408.3574   24978417.7714
     -3512.091       -2736.694
  -2186589.617 9  -1526512.56648  21302775.179    21302775.9574   21302782.7644
      -454.540        -354.187
 -17267878.319 9 -13439978.28348  20483084.360    20483085.3344   20483092.7284
       632.766         493.064
   4517268.581 9   3599607.21548  21396148.007    21396149.0534   21396156.3254
     -2433.787       -1896.457
  -7419467.678 9  -5764020.40148  22738373.919    22738375.3574   22738382.3854
      -253.982        -197.908
  -7842842.016 9  -6099269.65746  23871501.715    23871502.4864   23871510.5064
      -959.143        -747.384
 97  4 29 17 28  0.0000000  0  6 19  2  7 27 26 15                   0.000649656
  19342077.273 8  15064005.89745  24998470.316    24998471.5144   24998481.1644
     -3516.226       -2739.916
  -2172867.118 9  -1515819.71748  21305386.557    21305387.2934   21305394.1054
      -459.878        -358.346
 -17286626.658 9 -13454587.36848  20479516.640    20479517.6534   20479525.0074
       617.567         481.221
   4590496.287 9   3656667.74348  21410082.803    21410083.8264   21410091.0904
     -2447.710       -1907.306
  -7411575.730 9  -5757870.85548  22739875.755    22739877.1834   22739884.1694
      -271.638        -211.666
  -7813780.509 9  -6076624.36046  23877031.989    23877032.7524   23877040.7124
      -977.888        -761.991
 97  4 29 17 28 30.0000000  0  6 19  2  7 27 26 15                   0.000650842
  19447639.666 8  15146262.25045  25018557.607    25018559.5954   25018569.0154
     -3520.550       -2743.286
  -2158972.750 9  -1504992.94448  21308030.544    21308031.3074   21308038.1044
      -465.967        -363.091
 -17304914.303 9 -13468837.46848  20476036.559    20476037.6134   20476044.9704
       602.288         469.315
   4664156.312 9   3714065.14948  21424099.833    21424100.8694   21424108.1664
     -2462.533       -1918.857
  -7403149.194 9  -5751304.73448  22741479.304    22741480.6884   22741487.6684
      -289.668        -225.715
  -7784151.788 9  -6053537.06646  23882670.248    23882670.9384   23882678.9264
      -996.891        -776.798
 97  4 29 17 29  0.0000000  0  6 19  2  7 27 26 15                   0.000652051
  19553318.688 8  15228609.49045  25038668.486    25038669.6624   25038679.0434
     -3524.539       -2746.394
  -2144904.050 9  -1494030.32648  21310707.687    21310708.4884   21310715.2994
      -471.834        -367.663
 -17322764.323 9 -13482746.56748  20472639.764    20472640.8654   20472648.2144
       587.672         457.926
   4738254.234 9   3771803.76048  21438200.175    21438201.2224   21438208.5694
     -2477.433       -1930.467
  -7394184.887 9  -5744319.56248  22743185.041    22743186.4874   22743193.4784
      -307.836        -239.872
  -7753960.281 9  -6030011.24846  23888415.467    23888416.1324   23888424.1494
     -1015.900        -791.610
 97  4 29 17 29 30.0000000  0  6 19  2  7 27 26 15                   0.000653292
  19659112.810 8  15311046.43845  25058799.519    25058801.8314   25058811.1414
     -3527.928       -2749.035
  -2130665.799 9  -1482935.59348  21313417.243    21313417.9714   21313424.7514
      -476.898        -371.609
 -17340174.780 9 -13496313.14348  20469326.778    20469327.7824   20469335.1304
       573.294         446.723
   4812798.693 9   3829890.32548  21452385.541    21452386.5894   21452393.9364
     -2491.782       -1941.648
  -7384683.332 9  -5736915.77048  22744993.230    22744994.6174   22745001.5934
      -325.303        -253.483
  -7723198.956 9  -6006041.42546  23894269.109    23894269.8564   23894277.8884
     -1034.475        -806.084
 97  4 29 17 30  0.0000000  0  6 19  2  7 27 26 15                   0.000654565
  19765018.518 8  15393570.30445  25078953.216    25078954.8984   25078964.3434
     -3532.109       -2752.293
  -2116274.220 9  -1471721.38448  21316155.883    21316156.6214   21316163.4004
      -482.387        -375.886
 -17357136.738 9 -13509530.24648  20466098.880    20466100.0014   20466107.3564
       557.551         434.455
   4887775.055 9   3888313.43848  21466653.124    21466654.1684   21466661.4784
     -2506.414       -1953.050
  -7374642.699 9  -5729091.91048  22746903.869    22746905.2764   22746912.2314
      -343.667        -267.792
  -7691870.499 9  -5981629.67346  23900230.793    23900231.4254   23900239.5394
     -1053.844        -821.177
 97  4 29 17 30 30.0000000  0  6 19  2  7 27 26 15                   0.000655848
  19871039.940 8  15476184.34645  25099128.467    25099130.0044   25099139.4904
     -3535.700       -2755.091
  -2101720.311 9  -1460380.68248  21318925.304    21318926.1214   21318932.9214
      -487.753        -380.067
 -17373625.891 9 -13522378.92648  20462961.170    20462962.2254   20462969.5634
       541.705         422.108
   4963183.334 9   3947073.10748  21481002.913    21481003.9124   21481011.2214
     -2520.685       -1964.170
  -7364072.948 9  -5720855.75248  22748915.277    22748916.6864   22748923.6014
      -360.882        -281.207
  -7659969.891 9  -5956772.08946  23906301.268    23906301.8714   23906310.0784
     -1072.835        -835.975
 97  4 29 17 31  0.0000000  0  6 19  2  7 27 26 15                   0.000657117
  19977150.812 8  15558868.10145  25119320.738    25119322.1214   25119331.6684
     -3538.798       -2757.505
  -2087017.907 9  -1448924.27348  21321722.999    21321723.8934   21321730.6834
      -492.994        -384.151
 -17389646.350 9 -13534862.38948  20459912.529    20459913.6254   20459920.9864
       525.605         409.562
   5039000.345 9   4006151.27148  21495430.433    21495431.4614   21495438.7574
     -2534.385       -1974.845
  -7353000.024 9  -5712227.50848  22751022.396    22751023.8254   22751030.7414
      -377.809        -294.397
  -7627510.668 9  -5931479.22046  23912477.990    23912478.6944   23912486.8624
     -1091.720        -850.691
 97  4 29 17 31 30.0000000  0  6 19  2  7 27 26 15                   0.000658363
  20083361.997 8  15641630.01545  25139532.150    25139533.1654   25139542.9574
     -3541.684       -2759.754
  -2072144.275 9  -1437334.43648  21324553.403    21324554.2754   21324561.0354
      -498.611        -388.528
 -17405171.112 9 -13546959.59848  20456958.279    20456959.3764   20456966.7104
       509.570         397.067
   5115234.216 9   4065554.26248  21509937.297    21509938.2854   21509945.5904
     -2547.752       -1985.261
  -7341419.116 9  -5703203.43348  22753226.250    22753227.6494   22753234.4884
      -394.266        -307.220
  -7594478.939 9  -5905740.24746  23918763.759    23918764.4624   23918772.6684
     -1110.344        -865.203
 97  4 29 17 32  0.0000000  0  6 19  2  7 27 26 15                   0.000659572
  20189658.826 8  15724458.70345  25159759.464    25159760.7594   25159770.5404
     -3544.480       -2761.932
  -2057089.245 9  -1425603.25148  21327418.389    21327419.1584   21327425.8914
      -504.941        -393.461
 -17420213.031 9 -13558680.56748  20454095.713    20454096.9864   20454104.3334
       493.515         384.557
   5191872.799 9   4125272.61248  21524521.188    21524522.1704   21524529.4374
     -2561.239       -1995.771
  -7329339.317 9  -5693790.62248  22755524.909    22755526.3414   22755533.1634
      -410.693        -320.021
  -7560887.680 9  -5879565.27046  23925155.861    23925156.6424   23925164.8974
     -1128.929        -879.685
 97  4 29 17 32 30.0000000  0  6 19  2  7 27 26 15                   0.000660737
  20296032.858 8  15807347.49845  25180001.958    25180003.1984   25180012.8814
     -3547.167       -2764.026
  -2041840.610 9  -1413721.20448  21330320.243    21330320.8814   21330327.6204
      -511.494        -398.567
 -17434775.763 9 -13570028.13848  20451324.566    20451325.7994   20451333.1484
       477.439         372.030
   5268918.829 9   4185308.45348  21539182.546    21539183.5954   21539190.8304
     -2575.146       -2006.607
  -7316775.836 9  -5684000.91148  22757915.672    22757917.0904   22757923.8764
      -427.040        -332.758
  -7526738.751 9  -5852955.74346  23931654.245    23931655.0424   23931663.2184
     -1147.742        -894.344
 97  4 29 17 33  0.0000000  0  6 19  2  7 27 26 15                   0.000661874
  20402489.170 8  15890300.43345  25200260.009    25200261.5004   25200270.9444
     -3549.842       -2766.111
  -2026398.303 9  -1401688.24948  21333258.731    21333259.4614   21333266.1904
      -517.878        -403.541
 -17448866.203 9 -13581007.69548  20448643.388    20448644.4684   20448651.7804
       462.026         360.020
   5346376.746 9   4245665.24148  21553922.334    21553923.3504   21553930.5994
     -2588.646       -2017.127
  -7303716.342 9  -5673824.69048  22760400.829    22760402.2174   22760409.0064
      -443.499        -345.584
  -7492027.986 9  -5825908.41146  23938259.473    23938260.3294   23938268.4674
     -1166.187        -908.717
 97  4 29 17 33 30.0000000  0  6 19  2  7 27 26 15                   0.000662992
  20509040.008 8  15973327.00845  25220536.734    25220537.5384   25220547.0034
     -3553.629       -2769.062
  -2010753.960 9  -1389497.85648  21336235.754    21336236.5034   21336243.2364
      -524.988        -409.082
 -17462486.113 9 -13591620.60048  20446051.567    20446052.6764   20446059.9554
       445.961         347.502
   5424254.501 9   4306349.19048  21568742.013    21568743.0554   21568750.2734
     -2603.220       -2028.483
  -7290155.363 9  -5663257.69648  22762981.451    22762982.8434   22762989.6444
      -460.569        -358.885
  -7456754.810 9  -5798422.83146  23944971.670    23944972.5524   23944980.7734
     -1185.400        -923.688
 97  4 29 17 34  0.0000000  0  6 19  2  7 27 26 15                   0.000664100
  20615687.372 8  16056428.77445  25240830.626    25240832.0734   25240841.3414
     -3555.850       -2770.792
  -1994920.245 9  -1377159.90448  21339248.787    21339249.5804   21339256.3074
      -530.208        -413.149
 -17475636.577 9 -13601867.70348  20443549.227    20443550.2414   20443557.5214
       431.038         335.874
   5502556.582 9   4367363.76648  21583642.434    21583643.4584   21583650.6584
     -2616.504       -2038.834
  -7276094.460 9  -5652301.15848  22765657.196    22765658.5594   22765665.3934
      -476.570        -371.353
  -7420914.300 9  -5770495.17246  23951792.037    23951792.8294   23951800.9924
     -1203.680        -937.932
 97  4 29 17 34 30.0000000  0  6 19  2  7 27 26 15                   0.000665215
  20722438.380 8  16139611.30845  25261144.770    25261146.3734   25261155.5414
     -3560.021       -2774.042
  -1978913.390 9  -1364687.03648  21342294.840    21342295.5704   21342302.3344
      -536.233        -417.844
 -17488316.819 9 -13611748.40148  20441136.180    20441137.2874   20441144.5244
       414.913         323.309
   5581281.390 9   4428707.75148  21598623.294    21598624.3194   21598631.5134
     -2631.072       -2050.186
  -7261520.548 9  -5640944.86748  22768430.500    22768431.8884   22768438.7774
      -494.486        -385.314
  -7384502.253 9  -5742122.15046  23958720.946    23958721.7894   23958730.0504
     -1223.209        -953.150
 97  4 29 17 35  0.0000000  0  6 19  2  7 27 26 15                   0.000666339
  20829291.315 8  16222873.27645  25281479.052    25281479.7644   25281488.9964
     -3563.648       -2776.869
  -1962751.425 9  -1352093.30548  21345370.334    21345371.0944   21345377.8504
      -541.351        -421.832
 -17500543.071 9 -13621275.33948  20438809.848    20438810.6834   20438817.9284
       399.923         311.628
   5660405.985 9   4490363.25348  21613680.298    21613681.2624   21613688.4324
     -2644.026       -2060.280
  -7246427.038 9  -5629183.69648  22771302.642    22771304.0624   22771311.0224
      -511.894        -398.878
  -7347530.878 9  -5713313.27946  23965756.480    23965757.2414   23965765.4844
     -1241.751        -967.598
 97  4 29 17 35 30.0000000  0  5  2  7 27 26 15                      0.000667478
  -1946437.616 9  -1339381.24948  21348474.683    21348475.4904   21348482.2574
      -546.368        -425.741
 -17512315.378 9 -13630448.54848  20436569.644    20436570.4914   20436577.7304
       384.710         299.774
   5739921.053 9   4552323.02348  21628811.431    21628812.4784   21628819.6574
     -2656.960       -2070.358
  -7230806.555 9  -5617011.89948  22774275.151    22774276.5504   22774283.5134
      -529.590        -412.668
  -7309996.832 9  -5684065.96846  23972898.953    23972899.7574   23972908.0054
     -1260.618        -982.300
 97  4 29 17 36  0.0000000  0  5  2  7 27 26 15                      0.000668629
  -1929974.491 9  -1326552.84348  21351607.551    21351608.3484   21351615.0914
      -551.653        -429.859
 -17523626.854 9 -13639262.67448  20434417.126    20434418.0004   20434425.2134
       369.007         287.538
   5819816.160 9   4614578.92548  21644014.950    21644016.0344   21644023.2234
     -2669.770       -2080.340
  -7214651.252 9  -5604423.36448  22777349.519    22777350.8904   22777357.8014
      -547.876        -426.916
  -7271899.877 9  -5654380.02246  23980148.611    23980149.3804   23980157.5624
     -1279.560        -997.060
 97  4 29 17 36 30.0000000  0  5  2  7 27 26 15                      0.000669792
  -1913348.347 9  -1313597.41148  21354771.424    21354772.2284   21354778.9324
      -557.134        -434.130
 -17534468.699 9 -13647710.85048  20432354.120    20432354.8864   20432362.0724
       353.386         275.366
   5900095.370 9   4677134.12248  21659291.681    21659292.6854   21659299.8814
     -2682.580       -2090.322
  -7197950.100 9  -5591409.50348  22780527.687    22780529.0914   22780535.8524
      -565.870        -440.938
  -7233238.889 9  -5624254.58246  23987505.624    23987506.3484   23987514.5354
     -1298.254       -1011.626
 97  4 29 17 37  0.0000000  0  6  2  4  7 27 26 15                   0.000670958
  -1896558.143 9  -1300514.14448  21357966.526    21357967.3284   21357973.9954
      -562.372        -438.212
   -273476.64818   -197333.51955  24728134.002           0.0005   24728148.6235
      3411.293        2658.150
 -17544845.135 9 -13655796.37148  20430379.564    20430380.3254   20430387.4984
       338.104         263.458
   5980755.119 9   4739985.85148  21674640.731    21674641.7524   21674648.9394
     -2695.227       -2100.177
  -7180719.638 9  -5577983.18748  22783806.577    22783807.9484   22783814.6614
      -583.098        -454.362
  -7194019.075 9  -5593693.69946  23994968.983    23994969.5224   23994977.7684
     -1316.644       -1025.956
 97  4 29 17 37 30.0000000  0  6  2  4  7 27 26 15                   0.000672139
  -1879607.235 9  -1287305.64748  21361192.240    21361193.0004   21361199.6534
      -567.872        -442.498
   -375842.703 8   -277099.19145  24708680.346    24708659.9555   24708670.5324
      3412.933        2659.428
 -17554759.767 9 -13663522.04648  20428492.793    20428493.6294   20428500.8174
       322.784         251.520
   6061813.129 9   4803147.90648  21690065.569    21690066.6164   21690073.8204
     -2708.734       -2110.702
  -7162971.106 9  -5564153.16448  22787183.945    22787185.3264   22787192.1564
      -600.210        -467.696
  -7154244.951 9  -5562700.88946  24002537.612    24002538.2364   24002546.5114
     -1335.032       -1040.285
 97  4 29 17 38  0.0000000  0  6  2  4  7 27 26 15                   0.000673334
  -1862490.693 9  -1273968.08248  21364449.403    21364450.1774   21364456.8344
      -573.014        -446.504
   -478256.281 8   -356901.94355  24689183.190    24689171.2434   24689180.3815
      3414.639        2660.758
 -17564215.769 9 -13670890.35048  20426693.311    20426694.2204   20426701.3694
       307.942         239.955
   6143283.095 9   4866630.97048  21705568.827    21705569.8784   21705577.0984
     -2722.497       -2121.426
  -7144710.038 9  -5549923.77648  22790658.970    22790660.3004   22790667.1124
      -617.087        -480.847
  -7113919.416 9  -5531278.41646  24010211.286    24010211.9764   24010220.2194
     -1353.217       -1054.455
 97  4 29 17 38 30.0000000  0  6  2  4  7 27 26 15                   0.000674544
  -1845215.860 9  -1260507.18148  21367736.723    21367737.5054   21367744.1314
      -578.674        -450.915
   -580719.620 8   -436743.44645  24669679.827    24669672.6995   24669682.2024
      3416.270        2662.029
 -17573228.731 9 -13677913.42948  20424978.267    20424979.1034   20424986.2354
       292.836         228.184
   6225177.139 9   4930444.48448  21721152.760    21721153.8124   21721161.0464
     -2737.048       -2132.765
  -7125932.584 9  -5535292.00248  22794232.129    22794233.4944   22794240.3774
      -634.723        -494.589
  -7073037.577 9  -5499422.45346  24017990.898    24017991.5674   24017999.8304
     -1372.303       -1069.327
 97  4 29 17 39  0.0000000  0  6  2  4  7 27 26 15                   0.000675768
  -1827781.880 9  -1246922.26348  21371054.257    21371055.0614   21371061.6734
      -583.703        -454.834
   -683239.752 8   -516629.19945  24650168.793    24650163.8174   24650173.3144
      3418.426        2663.709
 -17581797.082 9 -13684590.06248  20423347.767    20423348.5614   20423355.6984
       278.227         216.800
   6307494.771 9   4994588.06148  21736817.343    21736818.3614   21736825.6094
     -2750.934       -2143.585
  -7106634.973 9  -5520254.91848  22797904.395    22797905.7354   22797912.6364
      -651.896        -507.971
  -7031597.612 9  -5467131.59446  24025876.682    24025877.3544   24025885.6104
     -1390.479       -1083.490
 97  4 29 17 39 30.0000000  0  6  2  4  7 27 26 15                   0.000677002
  -1810192.015 9  -1233215.87648  21374401.507    21374402.2964   21374408.9284
      -589.003        -458.963
   -785821.218 8   -596562.78245  24630646.149    24630643.3264   24630652.5974
      3420.303        2665.171
 -17589928.578 9 -13690926.29248  20421800.325    20421801.2084   20421808.3204
       263.763         205.530
   6390224.713 9   5059052.91948  21752560.321    21752561.3634   21752568.6284
     -2764.159       -2153.890
  -7086819.192 9  -5504814.06648  22801675.250    22801676.6024   22801683.4944
      -668.997        -521.296
  -6989609.144 9  -5434413.34346  24033866.926    24033867.5194   24033875.7554
     -1408.701       -1097.689
 97  4 29 17 40  0.0000000  0  6  2  4  7 27 26 15                   0.000678248
  -1792435.330 9  -1219379.50048  21377780.525    21377781.2854   21377787.9314
      -594.663        -463.374
   -888449.470 8   -676532.81945  24611115.102    24611113.9024   24611122.9404
      3421.485        2666.092
 -17597606.383 9 -13696909.00048  20420339.167    20420340.1514   20420347.2584
       248.311         193.489
   6473349.481 9   5123825.43648  21768378.519    21768379.5294   21768386.7634
     -2777.217       -2164.065
  -7066484.616 9  -5488968.96448  22805544.721    22805546.1554   22805552.9864
      -686.360        -534.826
  -6947065.798 9  -5401262.71646  24041962.803    24041963.3044   24041971.5554
     -1427.348       -1112.219
 97  4 29 17 40 30.0000000  0  6  2  4  7 27 26 15                   0.000679500
  -1774497.539 9  -1205402.00148  21381193.891    21381194.7324   21381201.3884
      -601.586        -468.768
   -991101.765 8   -756521.57845  24591580.164    24591579.9344   24591588.7124
      3421.694        2666.255
 -17604811.508 9 -13702523.38248  20418968.051    20418969.0514   20418976.1654
       231.554         180.432
   6556858.893 9   5188897.67948  21784269.917    21784270.9094   21784278.1324
     -2790.316       -2174.272
  -7045633.633 9  -5472721.45448  22809512.554    22809513.9724   22809520.8094
      -703.840        -548.447
  -6903966.231 9  -5367678.67846  24050164.329    24050164.9484   24050173.1324
     -1446.255       -1126.952
 97  4 29 17 41  0.0000000  0  6  2  4  7 27 26 15                   0.000680745
  -1756355.133 9  -1191265.06648  21384646.275    21384647.1224   21384653.7664
      -608.377        -474.060
  -1093759.745 8   -836514.75845  24572044.852    24572044.6724   24572053.4784
      3421.764        2666.310
 -17611516.463 9 -13707748.02948  20417692.266    20417693.1484   20417700.2504
       214.974         167.512
   6640747.380 9   5254265.29748  21800233.453    21800234.3924   21800241.6224
     -2802.777       -2183.982
  -7024272.861 9  -5456076.72648  22813577.432    22813578.8004   22813585.5714
      -720.631        -561.531
  -6860310.440 9  -5333661.20646  24058471.738    24058472.4294   24058480.6234
     -1464.652       -1141.287
 97  4 29 17 41 30.0000000  0  6  2  4  7 27 26 15                   0.000681975
  -1738013.620 9  -1176972.98048  21388136.612    21388137.4474   21388144.0494
      -615.056        -479.264
  -1196428.522 8   -916516.35845  24552507.490    24552507.4394   24552516.1584
      3422.137        2666.600
 -17617731.942 9 -13712591.26148  20416509.565    20416510.4064   20416517.4854
       198.677         154.813
   6725004.529 9   5319920.18748  21816267.067    21816268.0284   21816275.2424
     -2815.105       -2193.588
  -7002421.521 9  -5439049.72048  22817735.564    22817736.9274   22817743.7834
      -736.640        -574.005
  -6816107.388 9  -5299217.31046  24066883.340    24066884.0224   24066892.2204
     -1482.888       -1155.497
 97  4 29 17 42  0.0000000  0  6  2  4  7 27 26 15                   0.000683188
  -1719468.737 9  -1162522.42648  21391665.620    21391666.4214   21391673.0324
      -621.118        -483.988
  -1299101.257 8   -996521.04545  24532968.944    24532969.3484   24532978.0824
      3422.841        2667.149
 -17623444.517 9 -13717042.62448  20415422.401    20415423.3644   20415430.4374
       182.515         142.219
   6809646.232 9   5385874.72348  21832373.855    21832374.7934   21832382.0024
     -2827.640       -2203.356
  -6980084.320 9  -5421644.12448  22821986.223    22821987.5874   22821994.4434
      -752.395        -586.282
  -6771347.810 9  -5264339.76946  24075400.797    24075401.4844   24075409.7054
     -1500.869       -1169.508
 97  4 29 17 42 30.0000000  0  6  2  4  7 27 26 15                   0.000684382
  -1700736.525 9  -1147925.89848  21395230.242    21395231.0354   21395237.6394
      -627.577        -489.021
  -1401794.275 8  -1076541.52645  24513426.363    24513427.5224   24513436.2184
      3423.486        2667.651
 -17628678.074 9 -13721120.72048  20414426.654    20414427.4494   20414434.5544
       166.361         129.632
   6894676.639 9   5452132.15048  21848554.598    21848555.5834   21848562.7794
     -2841.057       -2213.811
  -6957271.260 9  -5403867.73648  22826327.426    22826328.8274   22826335.6544
      -768.576        -598.890
  -6726046.537 9  -5229040.12346  24084021.393    24084022.0924   24084030.3064
     -1519.269       -1183.846
 97  4 29 17 43  0.0000000  0  6  2  4  7 27 26 15                   0.000685564
  -1681824.580 9  -1133189.31948  21398829.022    21398829.8564   21398836.4884
      -633.320        -493.496
  -1504527.323 8  -1156593.20845  24493876.175    24493878.0324   24493886.5514
      3425.209        2668.994
 -17633448.191 9 -13724837.69448  20413518.945    20413519.7204   20413526.8094
       151.537         118.081
   6980104.140 9   5518698.99748  21864810.967    21864811.8974   21864819.1084
     -2854.398       -2224.206
  -6933978.479 9  -5385717.53148  22830759.892    22830761.2834   22830768.1434
      -784.511        -611.307
  -6680202.636 9  -5193317.65146  24092745.081    24092745.9154   24092754.1884
     -1537.224       -1197.837
 97  4 29 17 43 30.0000000  0  6  2  4  7 27 26 15                   0.000686742
  -1662738.741 9  -1118317.23548  21402460.949    21402461.7604   21402468.4164
      -639.056        -497.966
  -1607305.484 8  -1236680.00545  24474317.703    24474319.8404   24474328.5314
      3426.540        2670.031
 -17637773.688 9 -13728208.20948  20412695.640    20412696.6004   20412703.6724
       136.792         106.591
   7065937.576 9   5585582.15948  21881144.499    21881145.4904   21881152.6894
     -2867.884       -2234.715
  -6910208.998 9  -5367195.86748  22835283.067    22835284.4674   22835291.3484
      -800.358        -623.656
  -6633816.399 9  -5157172.57146  24101572.085    24101572.9524   24101581.2804
     -1555.241       -1211.876
 97  4 29 17 44  0.0000000  0  6  2  4  7 27 26 15                   0.000687923
  -1643473.671 9  -1103305.49248  21406126.996    21406127.7764   21406134.4394
      -645.110        -502.683
  -1710117.380 8  -1316793.07646  24454753.337    24454755.3264   24454764.1694
      3427.707        2670.941
 -17641648.147 9 -13731227.26448  20411958.432    20411959.3364   20411966.3924
       121.838          94.939
   7152174.577 9   5652779.79148  21897554.897    21897555.8684   21897563.0664
     -2881.011       -2244.944
  -6885944.732 9  -5348288.66648  22839900.424    22839901.8154   22839908.6894
      -817.056        -636.667
  -6586885.556 9  -5120603.12846  24110502.754    24110503.6204   24110511.9774
     -1573.277       -1225.930
 97  4 29 17 44 30.0000000  0  6  2  4  7 27 26 15                   0.000689112
  -1624020.790 9  -1088147.40748  21409828.777    21409829.5674   21409836.2214
      -651.576        -507.722
  -1812961.046 9  -1396930.93146  24435182.787    24435184.7884   24435193.6924
      3428.782        2671.778
 -17645078.078 9 -13733899.93048  20411305.813    20411306.6704   20411313.7224
       106.760          83.190
   7238803.912 9   5720283.13148  21914039.998    21914040.9204   21914048.0944
     -2894.102       -2255.144
  -6861180.999 9  -5328992.26648  22844612.747    22844614.1734   22844621.0694
      -833.766        -649.688
  -6539412.223 9  -5083610.95246  24119536.636    24119537.4954   24119545.8794
     -1591.592       -1240.202
 97  4 29 17 45  0.0000000  0  6  2  4  7 27 26 15                   0.000690295
  -1604387.224 9  -1072848.52248  21413564.948    21413565.7274   21413572.3624
      -657.659        -512.462
  -1915850.973 9  -1477104.82746  24415603.288    24415605.5114   24415614.5034
      3429.962        2672.698
 -17648061.797 9 -13736224.89448  20410738.291    20410738.8954   20410745.9424
        91.701          71.455
   7325812.659 9   5788082.12048  21930597.055    21930598.1544   21930605.3314
     -2906.814       -2265.050
  -6835930.978 9  -5309316.94448  22849417.598    22849419.0654   22849425.9674
      -849.864        -662.232
  -6491401.679 9  -5046200.17146  24128672.698    24128673.5674   24128682.0184
     -1609.540       -1254.187
 97  4 29 17 45 30.0000000  0  6  2  4  7 27 26 15                   0.000691479
  -1584572.171 9  -1057408.22148  21417335.668    21417336.4274   21417343.0654
      -663.315        -516.869
  -2018759.028 9  -1557292.85546  24396020.594    24396022.7904   24396031.6274
      3430.519        2673.132
 -17650582.324 9 -13738188.93448  20410258.499    20410259.2474   20410266.2964
        76.324          59.473
   7413204.873 9   5856179.91648  21947227.351    21947228.3674   21947235.5324
     -2919.231       -2274.725
  -6810189.213 9  -5289258.43648  22854316.169    22854317.5744   22854324.5304
      -866.331        -675.063
  -6442844.468 9  -5008363.42346  24137912.851    24137913.7134   24137922.1484
     -1627.586       -1268.249
 97  4 29 17 46  0.0000000  0  6  2  4  7 27 26 15                   0.000692661
  -1564589.273 9  -1041837.13648  21421138.316    21421139.0394   21421145.6634
      -668.668        -521.040
  -2121683.676 9  -1637493.79846  24376434.553    24376436.7824   24376445.6154
      3431.298        2673.739
 -17652640.326 9 -13739792.56248  20409866.801    20409867.5884   20409874.6434
        61.236          47.716
   7500969.318 9   5924567.75948  21963928.423    21963929.4124   21963936.6074
     -2931.491       -2284.279
  -6783950.843 9  -5268812.97048  22859309.152    22859310.5984   22859317.5434
      -882.490        -687.654
  -6393747.403 9  -4970105.98046  24147255.734    24147256.6204   24147265.0304
     -1645.323       -1282.070
 97  4 29 17 46 30.0000000  0  6  2  4  7 27 26 15                   0.000693835
  -1544455.041 9  -1026148.13148  21424969.728    21424970.4864   21424977.0884
      -673.703        -524.963
  -2224640.072 9  -1717719.48146  24356843.063    24356844.7214   24356853.6904
      3432.217        2674.455
 -17654254.742 9 -13741050.53448  20409559.432    20409560.3234   20409567.4024
        46.196          35.997
   7589105.286 9   5993245.09948  21980700.145    21980701.1404   21980708.3924
     -2944.330       -2294.283
  -6757237.468 9  -5247997.37648  22864392.542    22864393.9844   22864400.9004
      -898.659        -700.254
  -6344121.592 9  -4931436.54546  24156699.133    24156700.0594   24156708.5244
     -1663.231       -1296.024
 97  4 29 17 47  0.0000000  0  6  2  4  7 27 26 15                   0.000695007
  -1524176.452 9  -1010346.63548  21428828.598    21428829.3774   21428835.9754
      -678.227        -528.489
  -2327614.141 9  -1797958.94446  24337247.673    24337249.4104   24337258.3334
      3432.548        2674.713
 -17655419.394 9 -13741958.04548  20409337.831    20409338.7054   20409345.7714
        31.494          24.541
   7677617.878 9   6062215.91348  21997543.551    21997544.5374   21997551.7994
     -2956.481       -2303.751
  -6730030.715 9  -5226797.33148  22869569.858    22869571.3024   22869578.2094
      -915.128        -713.087
  -6293963.231 9  -4892352.12446  24166244.208    24166244.9834   24166253.3214
     -1680.692       -1309.630
 97  4 29 17 47 30.0000000  0  6  2  4  7 27 26 15                   0.000696195
  -1503752.712 9   -994432.04048  21432715.098    21432715.8814   21432722.4904
      -683.633        -532.701
  -2430584.538 9  -1878195.54846  24317652.973    24317654.8724   24317663.7434
      3432.065        2674.336
 -17656135.028 9 -13742515.67148  20409201.733    20409202.5184   20409209.5614
        16.002          12.469
   7766503.568 9   6131477.45148  22014457.891    22014458.9544   22014466.2324
     -2969.320       -2313.756
  -6702307.508 9  -5205194.84748  22874845.391    22874846.8764   22874853.8534
      -933.123        -727.109
  -6243270.124 9  -4852851.02546  24175890.945    24175891.5114   24175899.9324
     -1699.032       -1323.921
 97  4 29 17 48  0.0000000  0  6  2  4  7 27 26 15                   0.000697397
  -1483171.245 9   -978394.53748  21436631.629    21436632.3964   21436638.9994
      -688.562        -536.542
  -2533557.317 9  -1958434.01146  24298057.695    24298059.7364   24298068.5814
      3432.730        2674.854
 -17656398.715 9 -13742721.13248  20409151.478    20409152.3614   20409159.3924
         1.475           1.149
   7855760.783 9   6201028.48448  22031442.956    22031444.0694   22031451.3974
     -2981.160       -2322.982
  -6674063.744 9  -5183186.73548  22880220.067    22880221.5054   22880228.4994
      -949.643        -739.981
  -6192041.151 9  -4812932.36146  24185639.332    24185640.0694   24185648.4234
     -1716.383       -1337.441
 97  4 29 17 48 30.0000000  0  6  2  4  7 27 26 15                   0.000698606
  -1462432.327 9   -962234.34648  21440578.106    21440578.8824   21440585.5134
      -694.255        -540.978
  -2636537.492 9  -2038678.21846  24278460.817    24278463.2624   24278472.0624
      3432.304        2674.523
 -17656218.224 9 -13742580.47748  20409185.819    20409186.7274   20409193.7434
       -13.779         -10.737
   7945378.038 9   6270860.06548  22048496.619    22048497.6624   22048505.0064
     -2993.504       -2332.601
  -6645315.900 9  -5160785.83148  22885690.556    22885691.9974   22885699.0544
      -967.017        -753.520
  -6140283.632 9  -4772601.84246  24195488.346    24195489.2124   24195497.5944
     -1734.394       -1351.476
 97  4 29 17 49  0.0000000  0  6  2  4  7 27 26 15                   0.000699825
  -1441533.862 9   -945949.83648  21444554.959    21444555.7584   21444562.3734
      -699.352        -544.950
  -2739513.075 9  -2118918.85646  24258865.735    24258867.5814   24258876.4084
      3432.519        2674.690
 -17655596.028 9 -13742095.64648  20409304.212    20409305.1334   20409312.1494
       -27.917         -21.754
   8035342.121 9   6340961.90548  22065616.174    22065617.2664   22065624.6104
     -3004.572       -2341.225
  -6616066.846 9  -5137994.38248  22891256.558    22891257.9414   22891264.9354
      -982.971        -765.951
  -6088000.385 9  -4731861.66646  24205437.637    24205438.4044   24205446.7874
     -1751.418       -1364.741
 97  4 29 17 49 30.0000000  0  6  2  4  7 27 26 15                   0.000701044
  -1420467.401 9   -929534.41948  21448563.745    21448564.5614   21448571.1954
      -705.347        -549.621
  -2842493.067 9  -2199162.94146  24239269.821    24239271.1114   24239279.8624
      3432.732        2674.856
 -17654547.880 9 -13741278.90048  20409503.784    20409504.6014   20409511.5914
       -42.079         -32.789
   8125649.040 9   6411330.88448  22082801.020    22082802.1194   22082809.4724
     -3016.183       -2350.272
  -6586343.350 9  -5114833.22648  22896912.677    22896914.1064   22896921.2114
      -998.636        -778.158
  -6035199.274 9  -4690717.95746  24215485.397    24215486.1894   24215494.5334
     -1768.814       -1378.297
 97  4 29 17 50  0.0000000  0  6  2  4  7 27 26 15                   0.000702269
  -1399197.112 9   -912960.17248  21452611.383    21452612.1694   21452618.8054
      -712.460        -555.164
  -2945455.490 9  -2279393.35946  24219676.312    24219678.0284   24219686.7094
      3431.738        2674.082
 -17653062.920 9 -13740121.77948  20409786.368    20409787.1674   20409794.1624
       -56.666         -44.155
   8216321.401 9   6481984.62348  22100055.501    22100056.5244   22100063.9234
     -3028.445       -2359.827
  -6556146.339 9  -5091303.11048  22902658.955    22902660.3824   22902667.4504
     -1014.210        -790.293
  -5981865.856 9  -4649159.48046  24225634.341    24225635.1864   24225643.6154
     -1786.464       -1392.050
 97  4 29 17 50 30.0000000  0  6  2  4  7 27 26 15                   0.000703500
  -1377727.800 9   -896230.84548  21456696.818    21456697.6334   21456704.2794
      -719.632        -560.752
  -3048398.704 9  -2359608.81246  24200086.983    24200088.6354   24200097.2644
      3430.331        2672.985
 -17651160.036 9 -13738639.00748  20410148.277    20410149.2364   20410156.2534
       -71.001         -55.325
   8307350.716 9   6552916.51047  22117377.935    22117378.8804   22117386.2904
     -3040.960       -2369.579
  -6525494.368 9  -5067418.47548  22908491.924    22908493.3024   22908500.3644
     -1029.996        -802.594
  -5928018.309 9  -4607200.36046  24235881.376    24235882.0804   24235890.4374
     -1804.136       -1405.820
 97  4 29 17 51  0.0000000  0  6  2  4  7 27 26 15                   0.000704745
  -1356036.586 9   -879328.60348  21460824.551    21460825.3284   21460831.9814
      -726.687        -566.250
  -3151296.709 9  -2439789.03246  24180506.178    24180507.7074   24180516.3614
      3429.272        2672.160
 -17648817.860 9 -13736813.92648  20410593.994    20410594.9134   20410601.9184
       -85.632         -66.726
   8398759.302 9   6624143.94647  22134772.421    22134773.4204   22134780.8134
     -3053.196       -2379.114
  -6494368.652 9  -5043164.68048  22914414.912    22914416.3234   22914423.4314
     -1045.368        -814.572
  -5873639.388 9  -4564827.20846  24246229.348    24246230.0814   24246238.4374
     -1821.453       -1419.314
 97  4 29 17 51 30.0000000  0  6  2  4  7 27 26 15                   0.000705990
  -1334128.228 9   -862257.16248  21464993.586    21464994.3394   21465000.9914
      -733.483        -571.545
  -3254156.260 9  -2519939.27546  24160932.470    24160934.0994   24160942.8624
      3428.168        2671.300
 -17646023.534 9 -13734636.52548  20411125.731    20411126.6584   20411133.6494
      -100.489         -78.303
   8490537.174 9   6695659.12247  22152237.240    22152238.2264   22152245.6254
     -3064.978       -2388.294
  -6462779.804 9  -5018550.01548  22920426.044    22920427.5084   22920434.5794
     -1060.351        -826.248
  -5818734.463 9  -4522044.17346  24256677.447    24256678.1714   24256686.5504
     -1838.579       -1432.659
 97  4 29 17 52  0.0000000  0  6  2  4  7 27 26 15                   0.000707223
  -1312018.717 9   -845028.97548  21469200.901    21469201.6644   21469208.3054
      -740.077        -576.683
  -3356973.905 9  -2600056.88346  24141367.033    24141368.4434   24141377.2594
      3426.666        2670.129
 -17642767.865 9 -13732099.63148  20411745.447    20411746.2194   20411753.2014
      -116.256         -90.589
   8582667.619 9   6767449.03247  22169769.168    22169770.0674   22169777.5184
     -3076.658       -2397.396
  -6430737.634 9  -4993582.10748  22926523.577    22926524.9704   22926532.0194
     -1075.519        -838.067
  -5763313.738 9  -4478859.21846  24267223.487    24267224.4004   24267232.7754
     -1855.890       -1446.148
 97  4 29 17 52 30.0000000  0  6  2  4  7 27 26 15                   0.000708439
  -1289726.404 9   -827658.35048  21473443.012    21473443.7724   21473450.3974
      -745.683        -581.052
  -3459754.005 9  -2680145.22946  24121808.800    24121810.0204   24121818.8014
      3425.717        2669.390
 -17639041.481 9 -13729195.95048  20412454.637    20412455.3304   20412462.2964
      -131.850        -102.740
   8675142.479 9   6839507.32247  22187366.562    22187367.4654   22187374.9214
     -3087.932       -2406.181
  -6398239.636 9  -4968259.00748  22932707.591    22932709.1344   22932716.2504
     -1090.724        -849.915
  -5707374.417 9  -4435270.17146  24277868.493    24277869.3444   24277877.7224
     -1873.139       -1459.589
 97  4 29 17 53  0.0000000  0  6  2  4  7 27 26 15                   0.000709628
  -1267269.452 9   -810159.43148  21477716.446    21477717.1934   21477723.8294
      -751.262        -585.399
  -3562509.028 9  -2760214.03946  24102255.022    24102256.4434   24102265.1114
      3424.677        2668.579
 -17634840.409 9 -13725922.38448  20413254.112    20413254.7724   20413261.7074
      -148.061        -115.372
   8767947.095 9   6911822.56847  22205026.762    22205027.6334   22205035.1074
     -3098.963       -2414.776
  -6365287.056 9  -4942581.68448  22938978.320    22938979.7554   22938986.9154
     -1106.067        -861.870
  -5650918.135 9  -4391278.28146  24288611.698    24288612.6314   24288620.9684
     -1890.510       -1473.125
 97  4 29 17 53 30.0000000  0  6  2  4  7 27 26 15                   0.000710795
  -1244653.699 9   -792536.77548  21482020.096    21482020.8484   21482027.5004
      -756.389        -589.394
  -3665235.865 9  -2840260.86046  24082706.760    24082708.1684   24082716.7234
      3423.897        2667.972
 -17630171.266 9 -13722284.09148  20414142.542    20414143.2674   20414150.1754
      -162.837        -126.886
   8861079.012 9   6984392.84147  22222749.152    22222750.0444   22222757.5694
     -3109.784       -2423.208
  -6331877.908 9  -4916548.60548  22945335.906    22945337.3604   22945344.4684
     -1121.060        -873.553
  -5593948.487 9  -4346886.39346  24299452.640    24299453.6014   24299462.0264
     -1907.319       -1486.223
 97  4 29 17 54  0.0000000  0  6  2  4  7 27 26 15                   0.000711951
  -1221887.217 9   -774796.66348  21486352.391    21486353.1704   21486359.8194
      -761.085        -593.053
  -3767946.678 9  -2920295.19246  24063161.067    24063162.8674   24063171.4334
      3423.757        2667.863
 -17625071.663 9 -13718310.37348  20415112.866    20415113.6814   20415120.6094
      -176.734        -137.715
   8954538.253 9   7057218.18347  22240533.807    22240534.7554   22240542.3034
     -3120.585       -2431.625
  -6298012.870 9  -4890160.28048  22951780.187    22951781.6364   22951788.7634
     -1136.289        -885.420
  -5536479.374 9  -4302105.29246  24310388.749    24310389.6474   24310398.0494
     -1923.753       -1499.028
 97  4 29 17 54 30.0000000  0  6  2  4  7 27 26 15                   0.000713109
  -1198970.123 9   -756939.19348  21490713.340    21490714.1544   21490720.8244
      -766.368        -597.170
  -3870637.516 9  -3000313.94546  24043619.512    24043621.3254   24043630.0554
      3422.528        2666.905
 -17619554.012 9 -13714010.90148  20416162.919    20416163.6244   20416170.5654
      -190.618        -148.534
   9048341.425 9   7130311.51447  22258384.010    22258384.9424   22258392.5034
     -3132.612       -2440.996
  -6263680.777 9  -4863408.01248  22958313.334    22958314.7984   22958321.9614
     -1152.094        -897.736
  -5478506.220 9  -4256931.45146  24321420.758    24321421.6514   24321430.0364
     -1940.733       -1512.259
 97  4 29 17 55  0.0000000  0  6  2  4  7 27 26 15                   0.000714280
  -1175890.005 9   -738954.69348  21495105.392    21495106.1534   21495112.8194
      -771.896        -601.477
  -3973291.344 9  -3080303.86546  24024084.972    24024086.9114   24024095.6294
      3421.429        2666.049
 -17613629.582 9 -13709394.46348  20417290.322    20417291.0064   20417297.9254
      -203.901        -158.884
   9142503.763 9   7203684.71347  22276302.486    22276303.4704   22276311.0394
     -3144.469       -2450.236
  -6228882.743 9  -4836292.68948  22964935.303    22964936.6934   22964943.7424
     -1167.309        -909.591
  -5420029.279 9  -4211365.04946  24332548.556    24332549.4684   24332557.8634
     -1957.337       -1525.198
 97  4 29 17 55 30.0000000  0  6  2  4  7 27 26 15                   0.000715472
  -1152635.055 9   -720833.96048  21499530.629    21499531.4064   21499538.1014
      -778.141        -606.344
  -4075902.899 9  -3160260.85646  24004559.061    24004560.6044   24004569.2354
      3419.814        2664.790
 -17607309.102 9 -13704469.41048  20418493.006    20418493.7464   20418500.6864
      -217.104        -169.172
   9237033.291 9   7277344.04147  22294290.873    22294291.9274   22294299.4834
     -3157.164       -2460.128
  -6193624.179 9  -4808818.50148  22971644.853    22971646.2034   22971653.2614
     -1182.778        -921.645
  -5361049.272 9  -4165406.64546  24343772.219    24343773.0204   24343781.4284
     -1974.342       -1538.448
 97  4 29 17 56  0.0000000  0  6  2  4  7 27 26 15                   0.000716675
  -1129209.875 9   -702580.58448  21503988.294    21503989.0964   21503995.7654
      -783.861        -610.801
  -4178477.661 9  -3240189.17146  23985039.991    23985041.2584   23985049.8324
      3418.080        2663.439
 -17600599.310 9 -13699240.99848  20419769.666    20419770.5474   20419777.4734
      -230.677        -179.748
   9331926.189 9   7351286.51447  22312348.500    22312349.4944   22312357.0394
     -3169.467       -2469.715
  -6157921.256 9  -4780998.04748  22978438.875    22978440.2674   22978447.3294
     -1197.660        -933.242
  -5301574.215 9  -4119062.50446  24355089.962    24355090.7614   24355099.2014
     -1991.045       -1551.464
 97  4 29 17 56 30.0000000  0  6  2  4  7 27 26 15                   0.000717887
  -1105608.428 9   -684189.85648  21508479.492    21508480.3174   21508486.9914
      -789.765        -615.401
  -4280996.698 9  -3320074.05546  23965530.788    23965532.4064   23965540.9994
      3416.416        2662.142
 -17593477.269 9 -13693691.35348  20421124.701    20421125.8184   20421132.7474
      -244.340        -190.395
   9427190.429 9   7425518.33547  22330476.582    22330477.6974   22330485.2704
     -3181.520       -2479.106
  -6121771.279 9  -4752829.25148  22985318.049    22985319.4124   22985326.4944
     -1212.509        -944.812
  -5241596.610 9  -4072326.77746  24366503.292    24366504.1824   24366512.6464
     -2007.551       -1564.325
 97  4 29 17 57  0.0000000  0  6  2  4  7 27 26 15                   0.000719101
  -1081821.384 9   -665654.51148  21513006.030    21513006.8284   21513013.5134
      -795.689        -620.017
  -4383472.240 9  -3399925.06046  23946030.476    23946031.8814   23946040.5104
      3415.502        2661.430
 -17585936.541 9 -13687815.46148  20422559.727    20422560.7794   20422567.7034
      -258.267        -201.247
   9522802.837 9   7500021.45747  22348671.149    22348672.1934   22348679.7444
     -3192.420       -2487.600
  -6085168.470 9  -4724307.60448  22992283.262    22992284.6944   22992291.7314
     -1227.441        -956.447
  -5181124.866 9  -4025205.96746  24378010.825    24378011.5994   24378020.0124
     -2023.721       -1576.925
 97  4 29 17 57 30.0000000  0  6  2  4  7 27 26 15                   0.000720316
  -1057846.832 9   -646973.04648  21517568.237    21517569.0514   21517575.7124
      -802.533        -625.350
  -4485894.419 9  -3479734.47846  23926540.287    23926541.6404   23926550.1904
      3412.790        2659.317
 -17577953.326 9 -13681594.77048  20424078.954    20424079.9114   20424086.8244
      -273.825        -213.370
   9618760.527 9   7574793.63447  22366931.315    22366932.3804   22366939.9214
     -3204.657       -2497.135
  -6048098.536 9  -4695421.95448  22999337.426    22999338.8744   22999345.9224
     -1243.860        -969.242
  -5120151.623 9  -3977694.41846  24389613.611    24389614.4284   24389622.8574
     -2041.109       -1590.475
 97  4 29 17 58  0.0000000  0  6  2  4  7 27 26 15                   0.000721532
  -1033687.032 9   -628147.23448  21522165.703    21522166.5214   21522173.2184
      -808.198        -629.765
  -4588253.252 9  -3559494.53946  23907061.783    23907063.4194   23907071.9524
      3411.064        2657.972
 -17569516.925 9 -13675020.94348  20425684.452    20425685.3144   20425692.2204
      -288.684        -224.949
   9715054.688 9   7649827.99547  22385255.553    22385256.5544   22385264.1414
     -3215.059       -2505.241
  -6010552.508 9  -4666165.33148  23006482.190    23006483.6704   23006490.6844
     -1259.364        -981.322
  -5058677.150 9  -3929792.29246  24401311.897    24401312.7294   24401321.1064
     -2057.372       -1603.147
 97  4 29 17 58 30.0000000  0  6  2  4  7 27 26 15                   0.000722741
  -1009354.314 9   -609186.68248  21526796.086    21526796.8804   21526803.6044
      -814.107        -634.369
  -4690572.410 9  -3639223.67646  23887590.862    23887592.6714   23887601.1544
      3409.943        2657.098
 -17560643.916 9 -13668106.90948  20427372.808    20427373.8144   20427380.7114
      -302.982        -236.090
   9811652.893 9   7725099.27547  22403637.492    22403638.6314   22403646.2634
     -3224.918       -2512.923
  -5972543.983 9  -4636548.32248  23013715.127    23013716.4634   23013723.4954
     -1274.591        -993.188
  -4996717.234 9  -3881511.89646  24413102.618    24413103.3684   24413111.6764
     -2073.454       -1615.678
 97  4 29 17 59  0.0000000  0  6  2  4  7 27 26 15                   0.000723941
   -984837.316 9   -590082.53448  21531461.524    21531462.3054   21531469.0444
      -820.454        -639.315
  -4792845.449 9  -3718916.89346  23868128.998    23868130.6804   23868139.1714
      3407.995        2655.581
 -17551339.729 9 -13660856.89048  20429143.339    20429144.3594   20429151.2554
      -317.409        -247.332
   9908547.598 9   7800601.58847  22422076.061    22422077.0774   22422084.8084
     -3235.042       -2520.812
  -5934086.398 9  -4606581.39448  23021033.406    23021034.7524   23021041.7604
     -1289.287       -1004.639
  -4934269.440 9  -3832851.33746  24424986.153    24424986.8554   24424995.1594
     -2089.912       -1628.503
 97  4 29 17 59 30.0000000  0  6  2  4  7 27 26 15                   0.000725130
   -960133.436 9   -570832.76648  21536162.563    21536163.3344   21536170.0684
      -826.694        -644.177
  -4895057.909 9  -3798562.89946  23848678.786    23848680.2444   23848688.7414
      3406.278        2654.243
 -17541608.888 9 -13653274.41848  20430995.125    20430996.0684   20431002.9664
      -331.315        -258.168
  10005748.123 9   7876342.21347  22440572.751    22440573.7764   22440581.4674
     -3245.069       -2528.625
  -5895197.284 9  -4576278.21348  23028433.639    23028435.1124   23028442.1264
     -1303.309       -1015.565
  -4871332.822 9  -3783809.86246  24436962.562    24436963.3504   24436971.6404
     -2105.899       -1640.960
 97  4 29 18  0  0.0000000  0  6  2  4  7 27 26 15                   0.000726312
   -935217.760 9   -551417.96348  21540903.904    21540904.6704   21540911.3864
      -833.844        -649.749
  -4997212.300 9  -3878163.65746  23829239.187    23829240.9334   23829249.3504
      3404.382        2652.765
 -17531454.377 9 -13645361.81148  20432927.633    20432928.4284   20432935.2964
      -345.331        -269.089
  10103256.792 9   7952322.94647  22459128.025    22459129.1264   22459136.7814
     -3255.164       -2536.491
  -5855883.340 9  -4545643.99048  23035914.800    23035916.2914   23035923.3534
     -1317.192       -1026.383
  -4807903.815 9  -3734384.72146  24449032.666    24449033.5354   24449041.8584
     -2122.295       -1653.736
 97  4 29 18  0 30.0000000  0  6  2  4  7 27 26 15                   0.000727483
   -910098.510 9   -531844.52948  21545683.946    21545684.7184   21545691.4274
      -841.382        -655.622
  -5099309.207 9  -3957719.62046  23809811.252    23809812.4434   23809820.9164
      3401.256        2650.329
 -17520885.531 9 -13637126.34548  20434938.744    20434939.5944   20434946.4574
      -359.907        -280.447
  10201067.339 9   8028538.90547  22477740.836    22477741.8854   22477749.5654
     -3266.223       -2545.109
  -5816161.378 9  -4514691.82648  23043473.697    23043475.1254   23043482.2074
     -1331.587       -1037.600
  -4743990.634 9  -3684582.30846  24461195.050    24461195.8614   24461204.1534
     -2139.183       -1666.896
 97  4 29 18  1  0.0000000  0  6  2  4  7 27 26 15                   0.000728647
   -884771.539 9   -512109.24148  21550503.487    21550504.2864   21550510.9894
      -847.481        -660.375
  -5201320.060 9  -4037208.52546  23790398.644    23790400.3444   23790408.8194
      3398.996        2648.568
 -17509891.137 9 -13628559.28748  20437030.900    20437031.7564   20437038.6174
      -373.598        -291.115
  10299194.002 9   8105001.19247  22496413.614    22496414.7864   22496422.5124
     -3276.030       -2552.751
  -5776020.673 9  -4483413.38348  23051112.227    23051113.6914   23051120.7074
     -1345.105       -1048.134
  -4679591.626 9  -3634401.31846  24473449.805    24473450.5874   24473458.9324
     -2154.598       -1678.908
 97  4 29 18  1 30.0000000  0  6  2  4  7 27 26 15                   0.000729806
   -859241.985 9   -492216.09148  21555361.590    21555362.3834   21555369.1134
      -854.234        -665.637
  -5303241.405 9  -4116627.68946  23771003.260    23771005.2824   23771013.7804
      3395.895        2646.152
 -17498457.861 9 -13619650.24248  20439206.459    20439207.4194   20439214.3034
      -388.288        -302.562
  10397636.514 9   8181709.59047  22515146.734    22515147.7844   22515155.5504
     -3286.593       -2560.982
  -5735440.963 9  -4451792.85548  23058834.282    23058835.7574   23058842.8074
     -1359.851       -1059.624
  -4614708.107 9  -3583842.78846  24485796.724    24485797.5904   24485805.9564
     -2170.756       -1691.498
 97  4 29 18  2  0.0000000  0  6  2  4  7 27 26 15                   0.000730965
   -833516.965 9   -472170.62948  21560256.894    21560257.6964   21560264.4324
      -860.599        -670.597
  -5405058.849 9  -4195965.89546  23751628.204    23751630.0474   23751638.5124
      3391.954        2643.081
 -17486594.076 9 -13610405.73548  20441464.074    20441465.0014   20441471.9054
      -402.669        -313.768
  10496395.618 9   8258664.69547  22533939.943    22533941.0734   22533948.8044
     -3297.344       -2569.359
  -5694424.016 9  -4419831.62248  23066639.588    23066641.0694   23066648.1204
     -1374.705       -1071.199
  -4549344.743 9  -3532910.37646  24498234.987    24498235.8684   24498244.2884
     -2186.834       -1704.026
 97  4 29 18  2 30.0000000  0  6  2  4  7 27 26 15                   0.000732133
   -807607.372 9   -451981.34948  21565187.349    21565188.1414   21565194.8774
      -866.810        -675.436
  -5506756.077 9  -4275210.43246  23732275.869    23732277.6934   23732286.0744
      3388.138        2640.108
 -17474299.178 9 -13600825.29448  20443803.816    20443804.6424   20443811.5644
      -416.832        -324.804
  10595487.666 9   8335879.23147  22552796.467    22552797.6954   22552805.4494
     -3308.698       -2578.206
  -5652957.606 9  -4387520.15548  23074530.454    23074531.8684   23074538.9324
     -1389.532       -1082.752
  -4483497.154 9  -3481600.62646  24510765.453    24510766.3454   24510774.7204
     -2202.907       -1716.551
 97  4 29 18  3  0.0000000  0  6  2  4  7 27 26 15                   0.000733310
   -781502.763 9   -431640.10348  21570154.909    21570155.6984   21570162.4434
      -873.734        -680.832
  -5608346.230 9  -4354371.53546  23712943.710    23712945.6674   23712953.9934
      3384.349        2637.155
 -17461585.527 9 -13590918.55248  20446223.191    20446223.9804   20446230.8724
      -430.971        -335.822
  10694922.612 9   8413360.95647  22571718.420    22571719.5764   22571727.3884
     -3320.584       -2587.468
  -5611051.946 9  -4354866.41648  23082504.920    23082506.2794   23082513.3624
     -1404.369       -1094.313
  -4417169.419 9  -3429916.71646  24523387.234    24523388.1344   24523396.5314
     -2219.267       -1729.299
 97  4 29 18  3 30.0000000  0  7  2  4  9  7 27 26 15                0.000734494
   -755207.243 9   -411150.09648  21575158.785    21575159.5714   21575166.3334
      -879.850        -685.597
  -5709838.605 9  -4433456.44646  23693630.602    23693632.1664   23693640.5364
      3381.191        2634.694
   -256252.98519   -180884.92256  23932600.458           0.0005   23932607.8025
      3117.628        2429.321
 -17448467.306 9 -13580696.56048  20448719.527    20448720.2664   20448727.1304
      -444.137        -346.081
  10794700.819 9   8491110.16647  22590705.682    22590706.7324   22590714.5784
     -3331.905       -2596.290
  -5568723.404 9  -4321883.16248  23090559.773    23090561.1514   23090568.2494
     -1418.110       -1105.021
  -4350364.033 9  -3377860.60046  24536100.008    24536100.7794   24536109.2384
     -2235.019       -1741.573
 97  4 29 18  4  0.0000000  0  7  2  4  9  7 27 26 15                0.000735665
   -728738.600 9   -390525.19148  21580195.596    21580196.3964   21580203.1814
      -885.345        -689.879
  -5811248.124 9  -4512476.80646  23674332.848    23674334.5764   23674342.8504
      3378.942        2632.942
   -349721.508 9   -253717.48646  23914815.650    23914814.9545   23914821.9364
      3112.977        2425.696
 -17434959.390 9 -13570170.90948  20451289.831    20451290.6984   20451297.5614
      -457.158        -356.227
  10894810.901 9   8569117.97947  22609756.026    22609757.0754   22609764.8614
     -3342.598       -2604.622
  -5525987.426 9  -4288582.42547  23098692.243    23098693.5134   23098700.6684
     -1431.701       -1115.611
  -4283092.148 9  -3325441.03346  24548901.418    24548902.1954   24548910.6784
     -2250.420       -1753.574
 97  4 29 18  4 30.0000000  0  7  2  4  9  7 27 26 15                0.000736839
   -702085.858 9   -369756.83148  21585267.480    21585268.2384   21585275.0424
      -891.765        -694.882
  -5912580.450 9  -4591437.03046  23655049.993    23655051.6544   23655059.8824
      3376.150        2630.766
   -443030.681 9   -326425.88356  23897058.183    23897058.5565   23897066.0525
      3107.634        2421.533
 -17421038.580 9 -13559323.52148  20453938.729    20453939.7174   20453946.5654
      -471.155        -367.134
  10995255.077 9   8647386.12447  22628870.018    22628870.9474   22628878.7944
     -3353.678       -2613.256
  -5482828.736 9  -4254952.29848  23106905.068    23106906.3624   23106913.5034
     -1445.738       -1126.549
  -4215341.382 9  -3272648.23746  24561793.930    24561794.7924   24561803.2924
     -2266.441       -1766.058
 97  4 29 18  5  0.0000000  0  7  2  4  9  7 27 26 15                0.000738025
   -675255.458 9   -348850.03648  21590373.142    21590373.8924   21590380.7034
      -897.228        -699.139
  -6013828.716 9  -4670331.73846  23635783.123    23635784.7214   23635792.9364
      3373.113        2628.400
   -536194.194 9   -399020.78946  23879329.473    23879330.0074   23879337.6674
      3102.805        2417.770
 -17406709.106 9 -13548157.69548  20456665.655    20456666.5464   20456673.3794
      -484.647        -377.647
  11096005.094 9   8725892.58547  22648042.156    22648043.0554   22648050.9614
     -3363.363       -2620.802
  -5439254.473 9  -4220998.35347  23115197.000    23115198.3084   23115205.4364
     -1459.697       -1137.426
  -4147122.990 9  -3219491.07446  24574775.597    24574776.4234   24574784.8794
     -2281.874       -1778.084
 97  4 29 18  5 30.0000000  0  7  2  4  9  7 27 26 15                0.000739213
   -648257.902 9   -327812.99548  21595510.561    21595511.3714   21595518.1534
      -902.835        -703.508
  -6114970.394 9  -4749143.40046  23616536.445    23616538.0104   23616546.2414
      3369.595        2625.658
   -629205.569 9   -471497.13946  23861629.970    23861630.5834   23861638.1984
      3097.841        2413.902
 -17391961.850 9 -13536666.32648  20459472.034    20459472.8924   20459479.7104
      -498.574        -388.499
  11197039.554 9   8804620.68947  22667268.282    22667269.2544   22667277.2814
     -3372.321       -2627.783
  -5395246.327 9  -4186706.31247  23123571.407    23123572.8094   23123579.9214
     -1474.341       -1148.837
  -4078436.725 9  -3165969.36246  24587846.028    24587846.9844   24587855.4564
     -2297.354       -1790.146
 97  4 29 18  6  0.0000000  0  7  2  4  9  7 27 26 15                0.000740397
   -621078.064 9   -306633.91048  21600682.714    21600683.5234   21600690.3274
      -909.430        -708.647
  -6216003.498 9  -4827870.45746  23597310.794    23597312.0144   23597320.2394
      3365.780        2622.686
   -722066.767 9   -543856.47347  23843958.948    23843959.7554   23843967.2824
      3092.651        2409.858
 -17376797.624 9 -13524850.03748  20462357.601    20462358.5714   20462365.3804
      -512.492        -399.344
  11298339.897 9   8883555.97547  22686545.069    22686546.1014   22686554.1814
     -3381.279       -2634.763
  -5350793.314 9  -4152067.61947  23132030.433    23132031.9444   23132039.0524
     -1489.192       -1160.409
  -4009286.325 9  -3112085.96346  24601004.984    24601005.8404   24601014.3974
     -2312.855       -1802.225
 97  4 29 18  6 30.0000000  0  7  2  4  9  7 27 26 15                0.000741541
   -593691.379 9   -285293.65248  21605894.248    21605895.0494   21605901.8684
      -916.572        -714.212
  -6316909.550 9  -4906498.52046  23578108.606    23578110.2604   23578118.4494
      3361.055        2619.004
   -814768.939 9   -616091.89447  23826318.257    23826319.0984   23826326.6114
      3087.164        2405.582
 -17361220.544 9 -13512712.05348  20465321.829    20465322.7864   20465329.5944
      -526.187        -410.016
  11399909.827 9   8962701.33747  22705873.324    22705874.2644   22705882.3174
     -3390.374       -2641.850
  -5305901.044 9  -4117086.65247  23140573.224    23140574.6804   23140581.8154
     -1503.864       -1171.842
  -3939670.734 9  -3057840.05846  24614252.437    24614253.3074   24614261.8784
     -2328.454       -1814.380
 97  4 29 18  7  0.0000000  0  7  2  4  9  7 27 26 15                0.000742727
   -566098.439 9   -263792.67348  21611145.010    21611145.8364   21611152.6464
      -923.172        -719.355
  -6417682.310 9  -4985022.71546  23558932.114    23558933.8064   23558942.0144
      3357.156        2615.966
   -907306.154 9   -688198.76847  23808709.016    23808709.8544   23808717.3494
      3081.676        2401.306
 -17345242.292 9 -13500261.46048  20468362.350    20468363.3594   20468370.1354
      -539.167        -420.130
  11501746.702 9   9042054.69847  22725252.345    22725253.2074   22725261.2744
     -3399.079       -2648.633
  -5260571.463 9  -4081764.91847  23149199.252    23149200.6344   23149207.7394
     -1518.105       -1182.939
  -3869594.570 9  -3003235.29346  24627587.450    24627588.3534   24627596.9404
     -2343.492       -1826.098
 97  4 29 18  7 30.0000000  0  7  2  4  9  7 27 26 15                0.000743926
   -538295.545 9   -242128.09648  21616435.788    21616436.5524   21616443.3864
      -930.759        -725.267
  -6518347.266 9  -5063462.90146  23539775.942    23539777.8554   23539786.0374
      3353.570        2613.171
   -999668.730 9   -760169.55947  23791133.139    23791133.8084   23791141.3144
      3075.555        2396.536
 -17328868.437 9 -13487502.61248  20471478.093    20471479.2314   20471485.9754
      -552.768        -430.728
  11603855.640 9   9121620.05447  22744682.959    22744683.9344   22744692.0304
     -3408.618       -2656.066
  -5214817.454 9  -4046112.46347  23157906.033    23157907.3624   23157914.4764
     -1532.399       -1194.077
  -3799064.028 9  -2948276.45346  24641009.053    24641009.8344   24641018.4784
     -2358.873       -1838.083
 97  4 29 18  8  0.0000000  0  7  2  4  9  7 27 26 15                0.000745135
   -510280.219 9   -220297.99148  21621766.923    21621767.6884   21621774.5264
      -937.028        -730.152
  -6618915.925 9  -5141828.04446  23520638.518    23520640.2174   23520648.3624
      3350.572        2610.835
  -1091857.230 9   -832004.69147  23773590.254    23773590.8544   23773598.4194
      3069.969        2392.184
 -17312094.501 9 -13474432.00948  20474670.039    20474671.2114   20474677.9354
      -565.923        -440.979
  11706256.740 9   9201413.06647  22764169.385    22764170.2824   22764178.3414
     -3418.667       -2663.896
  -5168657.607 9  -4010143.77447  23166689.957    23166691.3044   23166698.4094
     -1545.179       -1204.035
  -3728079.689 8  -2892964.02145  24654516.838    24654517.6604   24654526.3524
     -2373.774       -1849.694
 97  4 29 18  8 30.0000000  0  7  2  4  9  7 27 26 15                0.000746343
   -482090.518 9   -198332.00348  21627131.234    21627132.0164   21627138.8674
      -942.534        -734.442
  -6719388.513 9  -5220118.32746  23501519.138    23501520.8964   23501528.9984
      3347.295        2608.282
  -1183868.154 9   -903701.46447  23756081.126    23756081.7524   23756089.3364
      3063.922        2387.472
 -17294918.821 9 -13461048.35548  20477938.337    20477939.6434   20477946.3864
      -579.358        -451.448
  11808971.636 9   9281450.61147  22783715.352    22783716.3364   22783724.3774
     -3429.162       -2672.074
  -5122114.650 9  -3973876.56347  23175546.850    23175548.1974   23175555.2384
     -1558.026       -1214.046
  -3656640.954 8  -2837297.50545  24668111.162    24668111.8594   24668120.6544
     -2389.067       -1861.611
 97  4 29 18  9  0.0000000  0  7  2  4  9  7 27 26 15                0.000747540
   -453739.324 9   -176240.18448  21632526.302    21632527.0914   21632533.9354
      -947.796        -738.542
  -6819765.008 9  -5298333.72646  23482418.062    23482419.8924   23482427.9794
      3344.205        2605.874
  -1275704.123 9   -975261.92047  23738605.316    23738605.8614   23738613.4174
      3058.339        2383.121
 -17277341.328 9 -13447351.60848  20481283.343    20481284.5754   20481291.3054
      -592.562        -461.737
  11912001.438 9   9361733.52347  22803321.309    22803322.2274   22803330.3134
     -3439.649       -2680.246
  -5075185.840 9  -3937308.68047  23184477.172    23184478.4884   23184485.5584
     -1570.629       -1223.867
  -3584749.21417  -2781277.94955  24681791.614    24681792.3695          0.0005
     -2403.795       -1873.087
 97  4 29 18  9 30.0000000  0  7  2  4  9  7 27 26 15                0.000748723
   -425227.887 9   -154023.49648  21637951.820    21637952.6514   21637959.4814
      -952.988        -742.588
  -6920036.421 9  -5376467.22946  23463336.883    23463338.8254   23463346.9204
      3340.389        2602.901
  -1367375.528 9  -1046694.15747  23721160.763    23721161.3144   23721168.8934
      3053.153        2379.080
 -17259363.802 9 -13433343.14448  20484704.312    20484705.5964   20484712.3054
      -605.927        -472.151
  12015344.610 9   9442260.62147  22822986.735    22822987.8154   22822995.9204
     -3449.868       -2688.209
  -5027882.555 9  -3900448.99947  23193478.687    23193480.0584   23193487.1504
     -1583.049       -1233.545
  -3512410.46217  -2724910.14154  24695557.214    24695557.2965          0.0005
     -2418.807       -1884.785
 97  4 29 18 10  0.0000000  0  7  2  4  9  7 27 26 15                0.000749896
   -396553.133 9   -131679.54748  21643408.530    21643409.2924   21643416.1264
      -958.616        -746.974
  -7020171.651 9  -5454494.62146  23444281.866    23444283.6504   23444291.7694
      3335.374        2598.993
  -1458883.762 9  -1117999.24447  23703747.245    23703747.8504   23703755.3884
      3047.517        2374.689
 -17240986.370 9 -13419023.06848  20488201.554    20488202.7244   20488209.4354
      -619.024        -482.356
  12119004.527 9   9523034.53047  22842712.702    22842713.6844   22842721.8114
     -3460.440       -2696.447
  -4980197.684 9  -3863291.99047  23202552.815    23202554.2104   23202561.2394
     -1595.871       -1243.536
  -3439619.56116  -2668189.97654  24709409.579           0.0005          0.0005
     -2433.808       -1896.474
 97  4 29 18 10 30.0000000  0  7  2  4  9  7 27 26 15                0.000751076
   -367689.812 9   -109188.66548  21648901.073    21648901.7994   21648908.6574
      -965.904        -752.652
  -7120156.506 9  -5532404.84146  23425255.159    23425257.2164   23425265.2354
      3330.180        2594.945
  -1550228.983 9  -1189177.31947  23686364.663    23686365.4264   23686372.8924
      3042.158        2370.513
 -17222227.679 9 -13404405.91148  20491771.377    20491772.3734   20491779.0914
      -631.695        -492.230
  12222955.443 9   9604035.20147  22862493.922    22862494.8984   22862503.0384
     -3469.538       -2703.536
  -4932123.846 9  -3825831.87747  23211700.922    23211702.3364   23211709.3984
     -1609.213       -1253.932
  -3366384.75717     41485.31352  24723345.428           0.0005          0.0005
     -2448.571       -1907.977
 97  4 29 18 11  0.0000000  0  6  2  4  9  7 27 26                   0.000752274
   -338587.977 9    -86511.92748  21654438.952    21654439.7044   21654446.5734
      -974.413        -759.283
  -7219981.693 9  -5610190.65546  23406259.141    23406261.0954   23406269.0104
      3324.550        2590.558
  -1641413.190 9  -1260229.91147  23669012.761    23669013.6164   23669021.0654
      3036.312        2365.957
 -17203083.415 9 -13389488.30548  20495414.333    20495415.3764   20495422.1194
      -644.891        -502.512
  12327179.766 9   9685248.90847  22882327.173    22882328.1724   22882336.3104
     -3479.039       -2710.939
  -4883643.078 9  -3788054.67847  23220926.643    23220928.0144   23220934.9944
     -1622.970       -1264.652
 97  4 29 18 11 30.0000000  0  6  2  4  9  7 27 26                   0.000753491
   -309245.063 9    -63647.33248  21660022.743    21660023.4994   21660030.3454
      -982.274        -765.408
  -7319648.735 9  -5687853.21546  23387293.048    23387295.0244   23387302.9314
      3319.291        2586.461
  -1732425.512 9  -1331148.57847  23651693.607    23651694.5214   23651701.9234
      3030.602        2361.508
 -17183554.707 9 -13374271.13348  20499130.682    20499131.5484   20499138.2754
      -657.553        -512.379
  12431668.712 9   9766668.81947  22902210.817    22902211.8324   22902219.9084
     -3487.497       -2717.530
  -4834768.004 9  -3749970.23447  23230227.246    23230228.6424   23230235.6494
     -1635.936       -1274.755
 97  4 29 18 12  0.0000000  0  6  2  4  9  7 27 26                   0.000754732
   -279653.362 9    -40588.88148  21665653.885    21665654.6434   21665661.4704
      -990.326        -771.683
  -7419155.678 9  -5765391.03046  23368357.195    23368359.3374   23368367.4224
      3314.497        2582.725
  -1823260.382 9  -1401928.95247  23634408.264    23634409.1924   23634416.6054
      3025.035        2357.170
 -17163639.562 9 -13358752.84448  20502920.467    20502921.2984   20502928.0104
      -670.286        -522.301
  12536419.738 9   9848292.93647  22922144.250    22922145.3224   22922153.4534
     -3495.888       -2724.069
  -4785493.757 9  -3711574.73247  23239603.737    23239605.1984   23239612.3014
     -1648.977       -1284.917
 97  4 29 18 12 30.0000000  0  6  2  4  9  7 27 26                   0.000755977
   -249815.796 9    -17338.84448  21671331.856    21671332.5634   21671339.3994
      -997.915        -777.596
  -7518507.016 9  -5842807.59946  23349451.317    23349453.3964   23349461.4904
      3309.602        2578.911
  -1913914.117 9  -1472568.19447  23617157.427    23617158.3854   23617165.7424
      3019.110        2352.553
 -17143317.730 9 -13342917.65548  20506787.535    20506788.4314   20506795.1334
      -684.023        -533.005
  12641430.255 9   9930119.26947  22942127.053    22942128.1594   22942136.3634
     -3504.393       -2730.696
  -4735813.719 9  -3672863.04747  23249057.636    23249059.0354   23249066.0814
     -1662.324       -1295.317
 97  4 29 18 13  0.0000000  0  6  2  4  9  7 27 26                   0.000757198
   -219788.296 9      6059.19748  21677045.883    21677046.6194   21677053.4604
     -1003.388        -781.861
  -7617717.007 9  -5920114.04547  23330572.374    23330574.4134   23330582.3354
      3304.672        2575.069
  -2004389.168 9  -1543068.19447  23599940.626    23599941.5424   23599948.8794
      3012.758        2347.604
 -17122589.433 9 -13326765.74448  20510732.019    20510732.8634   20510739.6064
      -697.412        -543.438
  12746700.331 9  10012147.86047  22962159.324    22962160.4164   22962168.6704
     -3513.306       -2737.641
  -4685748.837 9  -3633851.46747  23258584.594    23258586.0414   23258593.1514
     -1675.055       -1305.238
 97  4 29 18 13 30.0000000  0  6  2  4  9  7 27 26                   0.000758387
   -189610.381 9     29574.44048  21682788.509    21682789.2874   21682796.1404
     -1008.581        -785.907
  -7716777.314 9  -5997303.84746  23311721.668    23311723.7934   23311731.6654
      3299.263        2570.854
  -2094678.646 9  -1613423.58647  23582759.127    23582760.0154   23582767.3274
      3006.654        2342.847
 -17101462.839 9 -13310303.47048  20514752.313    20514753.1244   20514759.8714
      -711.021        -554.042
  12852229.650 9  10094378.45047  22982241.143    22982242.0524   22982250.2934
     -3522.168       -2744.546
  -4635298.728 9  -3594539.72647  23268185.027    23268186.4334   23268193.5254
     -1688.328       -1315.580
 97  4 29 18 14  0.0000000  0  6  2  4  9  7 27 26                   0.000759536
   -159277.362 9     53210.54548  21688560.739    21688561.5114   21688568.3534
     -1013.963        -790.101
  -7815680.001 9  -6074370.81347  23292901.264    23292903.1594   23292911.0584
      3293.825        2566.617
  -2184790.792 9  -1683640.81347  23565611.340    23565612.2134   23565619.4844
      3000.353        2337.937
 -17079930.642 9 -13293525.14448  20518849.932    20518850.5774   20518857.3074
      -724.726        -564.721
  12958030.718 9  10176820.79047  23002374.348    23002375.3864   23002383.6224
     -3531.579       -2751.880
  -4584450.736 9  -3554917.93847  23277861.225    23277862.4694   23277869.5484
     -1701.746       -1326.036
 97  4 29 18 14 30.0000000  0  6  2  4  9  7 27 26                   0.000760658
   -128791.958 9     76965.39048  21694361.969    21694362.6924   21694369.5674
     -1018.625        -793.734
  -7914421.779 9  -6151312.39247  23274111.121    23274113.1674   23274121.0934
      3288.893        2562.774
  -2274706.692 9  -1753705.11347  23548500.824    23548501.7484   23548508.9894
      2993.910        2332.917
 -17057997.641 9 -13276434.50648  20523023.555    20523024.3104   20523031.0224
      -737.382        -574.583
  13064102.569 9  10259474.13247  23022559.245    23022560.2654   23022568.4944
     -3540.032       -2758.466
  -4533213.450 9  -3514992.80647  23287611.345    23287612.6434   23287619.7704
     -1714.055       -1335.627
 97  4 29 18 15  0.0000000  0  6  2  4  9  7 27 26                   0.000761765
    -98151.274 9    100841.23148  21700192.696    21700193.4164   21700200.3014
     -1024.328        -798.178
  -8013008.969 9  -6228133.52047  23255350.754    23255352.6784   23255360.5434
      3283.502        2558.573
  -2364420.697 9  -1823612.09447  23531428.734    23531429.6524   23531436.8994
      2986.960        2327.501
 -17035686.974 9 -13259049.58048  20527269.156    20527269.9104   20527276.6294
      -749.968        -584.391
  13170436.677 9  10342331.82147  23042793.960    23042794.9744   23042803.1984
     -3548.932       -2765.401
  -4481597.833 9  -3474772.87547  23297433.476    23297434.7894   23297441.9724
     -1727.028       -1345.736
 97  4 29 18 15 30.0000000  0  6  2  4  9  7 27 26                   0.000762879
    -67309.388 9    124873.85348  21706061.723    21706062.4434   21706069.3414
     -1031.905        -804.082
  -8111422.877 9  -6304819.63446  23236623.248    23236625.0514   23236632.8534
      3277.601        2553.975
  -2453923.620 9  -1893354.60047  23514396.820    23514397.7374   23514405.0004
      2979.986        2322.067
 -17012986.489 9 -13241360.89848  20531588.838    20531589.6494   20531596.3884
      -763.330        -594.803
  13277047.086 9  10425404.81847  23063081.254    23063082.3414   23063090.5394
     -3558.354       -2772.743
  -4429584.305 9  -3434242.88847  23307331.236    23307332.6674   23307339.8454
     -1740.249       -1356.038
 97  4 29 18 16  0.0000000  0  6  2  4  9  7 27 26                   0.000764003
    -36239.730 9    149083.96148  21711974.038    21711974.7994   21711981.6934
     -1039.143        -809.722
  -8209674.941 9  -6381379.61147  23217926.445    23217928.2404   23217936.0754
      3272.694        2550.151
  -2543221.860 9  -1962937.60547  23497403.845    23497404.8194   23497412.0754
      2973.388        2316.926
 -16989897.837 9 -13223369.74548  20535982.262    20535983.2154   20535990.0004
      -775.606        -604.368
  13383930.732 9  10508690.73047  23083420.731    23083421.7234   23083429.8474
     -3566.829       -2779.347
  -4377196.757 9  -3393421.45247  23317300.511    23317301.6884   23317308.8474
     -1752.061       -1365.242
 97  4 29 18 16 30.0000000  0  6  2  4  9  7 27 26                   0.000765127
     -4951.594 9    173464.30848  21717928.021    21717928.7494   21717935.6464
     -1046.367        -815.351
  -8307774.713 9  -6457820.93447  23199258.663    23199260.4064   23199268.3054
      3267.538        2546.133
  -2632324.283 9  -2032368.02547  23480448.158    23480449.1744   23480456.4724
      2967.104        2312.029
 -16966435.885 9 -13205087.71148  20540447.089    20540447.8894   20540454.6664
      -788.169        -614.158
  13491059.662 9  10592167.75947  23103806.741    23103807.7844   23103815.8724
     -3574.911       -2785.645
  -4324445.889 9  -3352316.90847  23327338.536    23327339.8234   23327347.0224
     -1764.372       -1374.835
 97  4 29 18 17  0.0000000  0  6  2  4  9  7 27 26                   0.000766246
     26545.605 9    198007.56348  21723921.747    21723922.4944   21723929.4114
     -1053.358        -820.798
  -8405718.551 9  -6534140.73247  23180620.712    23180622.3834   23180630.2404
      3261.968        2541.793
  -2721243.363 9  -2101655.58947  23463527.418    23463528.4174   23463535.7324
      2960.843        2307.150
 -16942608.109 9 -13186520.61748  20544981.297    20544982.1874   20544988.9274
      -800.351        -623.650
  13598435.749 9  10675837.38447  23124239.719    23124240.8564   23124248.8824
     -3583.483       -2792.324
  -4271331.140 9  -3310928.82247  23337445.968    23337447.2324   23337454.5184
     -1776.460       -1384.255
 97  4 29 18 17 30.0000000  0  6  2  4  9  7 27 26                   0.000767367
     58258.391 9    222718.80548  21729956.457    21729957.2524   21729964.1584
     -1060.718        -826.534
  -8503485.468 9  -6610322.68547  23162016.131    23162017.8654   23162025.7274
      3255.977        2537.125
  -2809970.234 9  -2170793.38247  23446643.241    23446644.2734   23446651.5694
      2954.328        2302.074
 -16918407.995 9 -13167663.38948  20549586.448    20549587.3334   20549594.0554
      -812.834        -633.377
  13706076.000 9  10759712.84947  23144722.803    23144724.1624   23144732.1344
     -3592.349       -2799.233
  -4217861.811 9  -3269264.44147  23347620.729    23347622.1744   23347629.4084
     -1787.935       -1393.196
 97  4 29 18 18  0.0000000  0  6  2  4  9  7 27 26                   0.000768501
     90185.997 9    247597.44048  21736032.109    21736032.8904   21736039.8114
     -1067.972        -832.186
  -8601074.230 9  -6686365.82847  23143445.558    23143447.2514   23143455.0934
      3249.479        2532.062
  -2898490.765 9  -2239770.38847  23429798.382    23429799.3324   23429806.6164
      2946.571        2296.029
 -16893842.163 9 -13148521.18548  20554261.313    20554262.0744   20554268.7844
      -825.324        -643.110
  13813977.396 9  10843791.80747  23165256.169    23165257.1784   23165265.1924
     -3601.410       -2806.294
  -4164047.154 9  -3227330.96447  23357861.385    23357862.7864   23357870.0144
     -1800.222       -1402.770
 97  4 29 18 18 30.0000000  0  6  2  4  9  7 27 26                   0.000769652
    122312.324 9    272630.92248  21742145.532    21742146.3304   21742153.2574
     -1073.482        -836.479
  -8698468.852 9  -6762257.69047  23124912.118    23124913.6894   23124921.4934
      3243.914        2527.725
  -2986775.175 9  -2308563.40547  23412998.448    23412999.3444   23413006.6174
      2939.326        2290.384
 -16868904.823 9 -13129089.49648  20559006.670    20559007.5034   20559014.2134
      -836.828        -652.074
  13922141.529 9  10928075.49547  23185839.155    23185840.2024   23185848.1864
     -3609.388       -2812.510
  -4109866.334 9  -3185112.18147  23368171.653    23368173.0454   23368180.3414
     -1811.316       -1411.415
 97  4 29 18 19  0.0000000  0  6  2  4  9  7 27 26                   0.000770830
    154630.266 9    297813.72148  21748295.482    21748296.2304   21748303.1724
     -1080.645        -842.061
  -8795675.054 9  -6838002.72947  23106414.440    23106415.9274   23106423.7624
      3237.037        2522.366
  -3074809.870 9  -2377161.84147  23396246.018    23396246.8954   23396254.1694
      2930.310        2283.358
 -16843602.556 9 -13109373.44348  20563821.540    20563822.3684   20563829.0854
      -849.602        -662.028
  14030575.840 9  11012569.70146  23206473.392    23206474.5364   23206482.5664
     -3619.009       -2820.007
  -4055344.223 9  -3142627.44647  23378546.763    23378548.2654   23378555.5704
     -1823.051       -1420.559
 97  4 29 18 19 30.0000000  0  6  2  4  9  7 27 26                   0.000772024
    187146.920 9    323151.35748  21754483.230    21754483.9544   21754490.9274
     -1087.458        -847.370
  -8892700.385 9  -6913606.83747  23087950.928    23087952.5314   23087960.4384
      3231.029        2517.685
  -3162600.424 9  -2445570.03947  23379539.972    23379540.8424   23379548.1004
      2922.087        2276.951
 -16817926.462 9 -13089366.09848  20568707.443    20568708.3774   20568715.0934
      -862.470        -672.055
  14139269.637 9  11097266.10947  23227157.375    23227158.3304   23227166.3444
     -3627.399       -2826.545
  -4000485.104 9  -3099880.10647  23388986.320    23388987.6574   23388994.9364
     -1834.759       -1429.682
 97  4 29 18 20  0.0000000  0  6  2  4  9  7 27 26                   0.000773218
    219866.511 9    348647.12248  21760709.616    21760710.3404   21760717.2794
     -1093.567        -852.130
  -8989542.269 9  -6989068.00947  23069522.273    23069524.0934   23069531.9234
      3225.264        2513.193
  -3250136.615 9  -2513780.03348  23362882.308    23362883.2674   23362890.5144
      2913.958        2270.617
 -16791859.408 9 -13069054.11248  20573667.961    20573668.7434   20573675.4564
      -875.176        -681.955
  14248208.948 9  11182153.82847  23247887.816    23247888.8564   23247896.8554
     -3635.074       -2832.525
  -3945257.014 9  -3056845.26247  23399495.884    23399497.2664   23399504.5554
     -1846.875       -1439.123
 97  4 29 18 20 30.0000000  0  6  2  4  9  7 27 26                   0.000774398
    252774.334 9    374289.56748  21766971.723    21766972.4954   21766979.4624
     -1100.135        -857.248
  -9086203.562 9  -7064388.45647  23051128.252    23051130.0394   23051137.7764
      3219.164        2508.439
  -3337437.158 9  -2581806.40548  23346269.524    23346270.4864   23346277.7184
      2906.536        2264.833
 -16765407.522 9 -13048442.25848  20578701.647    20578702.4094   20578709.0724
      -887.897        -691.868
  14357382.782 9  11267224.30846  23268663.032    23268664.0094   23268672.0234
     -3642.949       -2838.662
  -3889670.737 9  -3013531.30047  23410073.616    23410074.9874   23410082.3704
     -1858.399       -1448.103
 97  4 29 18 21  0.0000000  0  6  2  4  9  7 27 26                   0.000775553
    285872.318 9    400080.18748  21773270.139    21773270.8594   21773277.8224
     -1106.681        -862.349
  -9182693.008 9  -7139574.99847  23032767.144    23032768.6964   23032776.3904
      3212.953        2503.600
  -3424537.564 9  -2649676.81448  23329694.815    23329695.8334   23329703.0394
      2899.868        2259.637
 -16738592.449 9 -13027547.40448  20583804.438    20583805.1744   20583811.8134
      -900.051        -701.338
  14466780.601 9  11352469.30546  23289480.681    23289481.7194   23289489.7864
     -3650.446       -2844.503
  -3833751.155 9  -2969957.64147  23420714.871    23420716.1454   23420723.5124
     -1869.950       -1457.104
 97  4 29 18 21 30.0000000  0  6  2  4  9  7 27 26                   0.000776689
    319176.975 9    426031.84748  21779607.786    21779608.5274   21779615.4974
     -1113.532        -867.687
  -9278981.502 9  -7214604.95947  23014443.965    23014445.6024   23014453.2544
      3206.247        2498.374
  -3511431.393 9  -2717386.26048  23313159.472    23313160.4814   23313167.6914
      2893.013        2254.296
 -16711408.743 9 -13006365.30348  20588977.465    20588978.0854   20588984.7224
      -911.929        -710.594
  14576403.081 9  11437889.36646  23310341.269    23310342.2384   23310350.3294
     -3657.674       -2850.136
  -3777469.623 9  -2926101.92147  23431424.620    23431426.1474   23431433.5424
     -1881.958       -1466.461
 97  4 29 18 22  0.0000000  0  6  2  4  9  7 27 26                   0.000777830
    352692.919 9    452148.14748  21785985.681    21785986.4274   21785993.3794
     -1121.082        -873.570
  -9375059.330 9  -7289470.76547  22996160.769    22996162.5804   22996170.2234
      3198.588        2492.406
  -3598117.138 9  -2784933.57048  23296663.749    23296664.7144   23296671.9014
      2885.788        2248.666
 -16683884.032 9 -12984917.47848  20594215.083    20594215.8184   20594222.4714
      -923.268        -719.430
  14686246.661 9  11523481.71546  23331243.593    23331244.7924   23331252.9174
     -3665.536       -2856.262
  -3720844.814 9  -2881978.72347  23442200.063    23442201.5614   23442208.9294
     -1893.145       -1475.178
 97  4 29 18 22 30.0000000  0  6  2  4  9  7 27 26                   0.000778995
    386432.300 9    478438.55648  21792406.081    21792406.8424   21792413.8084
     -1128.204        -879.120
  -9470906.713 9  -7364157.00747  22977921.602    22977923.3614   22977931.0414
      3191.329        2486.750
  -3684592.290 9  -2852316.78647  23280208.027    23280209.0124   23280216.1874
      2879.310        2243.618
 -16656031.298 9 -12963214.05648  20599515.254    20599515.9994   20599522.6684
      -933.605        -727.484
  14796323.556 9  11609255.86046  23352190.618    23352191.7554   23352199.8924
     -3672.799       -2861.921
  -3663895.421 9  -2837602.60247  23453037.185    23453038.6404   23453046.0184
     -1903.475       -1483.227
 97  4 29 18 23  0.0000000  0  6  2  4  9  7 27 26                   0.000780190
    420407.856 9    504912.99748  21798871.419    21798872.1754   21798879.1634
     -1136.331        -885.453
  -9566511.192 9  -7438653.97647  22959728.525    22959730.4204   22959738.0754
      3182.813        2480.114
  -3770842.183 9  -2919524.46548  23263795.246    23263796.1594   23263803.3534
      2871.159        2237.267
 -16627839.852 9 -12941246.70048  20604879.960    20604880.6574   20604887.3464
      -945.477        -736.735
  14906638.730 9  11695215.66846  23373183.018    23373184.0344   23373192.2074
     -3680.992       -2868.305
  -3606603.135 9  -2792959.28647  23463939.619    23463940.9694   23463948.3814
     -1915.439       -1492.550
 97  4 29 18 23 30.0000000  0  6  2  4  9  7 27 26                   0.000781406
    454618.351 9    531570.51048  21805381.492    21805382.2564   21805389.2374
     -1144.488        -891.809
  -9661876.098 9  -7512964.26847  22941581.361    22941583.0984   22941590.7214
      3174.764        2473.842
  -3856855.484 9  -2986547.79048  23247427.448    23247428.3944   23247435.5474
      2862.957        2230.876
 -16599296.228 9 -12919004.92048  20610311.566    20610312.3184   20610319.0254
      -957.545        -746.139
  15017185.273 9  11781355.76346  23394219.293    23394220.3774   23394228.5824
     -3688.963       -2874.517
  -3548965.992 9  -2748047.25847  23474907.587    23474908.9794   23474916.3584
     -1927.016       -1501.571
 97  4 29 18 24  0.0000000  0  6  2  4  9  7 27 26                   0.000782633
    489061.108 9    558409.00248  21811935.748    21811936.5054   21811943.4954
     -1151.476        -897.254
  -9757003.480 9  -7587089.46447  22923478.960    22923480.8274   22923488.5304
      3167.210        2467.956
  -3942634.864 9  -3053388.83348  23231104.166    23231105.1194   23231112.2754
      2855.650        2225.182
 -16570397.758 9 -12896486.63848  20615810.782    20615811.5014   20615818.2114
      -969.190        -755.213
  15127960.688 9  11867674.21946  23415299.250    23415300.2954   23415308.4744
     -3696.047       -2880.037
  -3490999.458 9  -2702878.56147  23485938.308    23485939.6824   23485947.0464
     -1937.463       -1509.711
 97  4 29 18 24 30.0000000  0  6  2  4  9  7 27 26                   0.000783844
    523713.562 9    585410.89548  21818529.891    21818530.6674   21818537.6484
     -1157.501        -901.949
  -9851894.129 9  -7661030.19847  22905421.847    22905423.7194   22905431.4034
      3160.062        2462.386
  -4028174.484 9  -3120043.06148  23214826.488    23214827.4534   23214834.6034
      2848.332        2219.479
 -16541123.000 9 -12873675.14948  20621381.702    20621382.3424   20621389.0294
      -981.175        -764.552
  15238962.054 9  11954168.72546  23436421.983    23436423.2154   23436431.3544
     -3702.822       -2885.316
  -3432691.493 9  -2657443.82347  23497033.999    23497035.3814   23497042.7184
     -1948.422       -1518.251
 97  4 29 18 25  0.0000000  0  6  2  4  9  7 27 26                   0.000785015
    558547.528 9    612554.22248  21825158.625    21825159.3884   21825166.3654
     -1164.192        -907.163
  -9946570.002 9  -7734803.57547  22887405.757    22887407.5834   22887415.1994
      3152.296        2456.334
  -4113490.118 9  -3186522.74647  23198591.421    23198592.3544   23198599.5224
      2839.904        2212.912
 -16511485.752 9 -12850581.19648  20627021.477    20627022.1674   20627028.8374
      -993.945        -774.503
  15350162.855 9  12040818.63446  23457582.831    23457583.9944   23457592.2964
     -3709.948       -2890.869
  -3374061.993 9  -2611758.51847  23508190.849    23508192.1584   23508199.5164
     -1959.501       -1526.884
 97  4 29 18 25 30.0000000  0  6  2  4  9  7 27 26                   0.000786163
    593578.779 9    639851.28448  21831824.904    21831825.6384   21831832.6324
     -1171.282        -912.687
 -10041013.021 9  -7808395.48747  22869433.826    22869435.6434   22869443.2824
      3143.716        2449.649
  -4198550.903 9  -3252803.84047  23182404.789    23182405.7654   23182412.9704
      2830.712        2205.750
 -16481472.177 9 -12827194.00448  20632732.911    20632733.5814   20632740.2414
     -1006.773        -784.498
  15461573.130 9  12127631.75846  23478783.679    23478784.6974   23478793.0444
     -3717.520       -2896.769
  -3315110.711 9  -2565822.49347  23519408.925    23519410.2094   23519417.5494
     -1970.719       -1535.625
 97  4 29 18 26  0.0000000  0  6  2  4  9  7 27 26                   0.000787307
    628817.213 9    667309.78048  21838530.587    21838531.3184   21838538.3334
     -1177.691        -917.681
 -10135199.721 9  -7881787.67547  22851510.671    22851512.4344   22851520.0894
      3135.713        2443.413
  -4283339.569 9  -3318872.91148  23166270.119    23166271.0234   23166278.1864
      2821.894        2198.878
 -16451088.913 9 -12803518.74748  20638514.608    20638515.3274   20638521.9804
     -1018.762        -793.841
  15573198.606 9  12214612.58046  23500025.125    23500026.3804   23500034.7534
     -3723.978       -2901.801
  -3255830.224 9  -2519629.93047  23530689.601    23530690.9304   23530698.3094
     -1981.226       -1543.812
 97  4 29 18 26 30.0000000  0  6  2  4  9  7 27 26                   0.000788439
    664246.029 9    694916.63048  21845272.485    21845273.1714   21845280.2374
     -1184.828        -923.243
 -10229161.693 9  -7955004.76347  22833630.400    22833632.0934   22833639.6634
      3128.066        2437.454
  -4367863.757 9  -3384735.89747  23150185.661    23150186.6124   23150193.7354
      2812.886        2191.859
 -16420355.241 9 -12779570.44548  20644363.025    20644363.7624   20644370.4134
     -1030.258        -802.798
  15685014.459 9  12301741.76446  23521302.970    23521304.2544   23521312.6614
     -3730.639       -2906.991
  -3196237.520 9  -2473194.09447  23542029.620    23542031.0624   23542038.4704
     -1991.781       -1552.037
 97  4 29 18 27  0.0000000  0  6  2  4  9  7 27 26                   0.000789594
    699910.797 9    722707.33548  21852059.214    21852059.9754   21852067.0514
     -1192.574        -929.278
 -10322891.681 9  -8028041.06247  22815794.203    22815795.8334   22815803.4584
      3120.766        2431.766
  -4452106.463 9  -3450379.53247  23134154.785    23134155.6824   23134162.8144
      2803.334        2184.416
 -16389270.441 9 -12755348.53048  20650278.208    20650279.0134   20650285.6544
     -1041.891        -811.863
  15797035.162 9  12389030.55746  23542620.133    23542621.1404   23542629.4944
     -3737.354       -2912.224
  -3136331.754 9  -2426514.31747  23553429.353    23553430.7984   23553438.1904
     -2001.844       -1559.878
 97  4 29 18 27 30.0000000  0  6  2  4  9  7 27 26                   0.000790779
    735805.701 9    750677.36548  21858889.813    21858890.5244   21858897.6214
     -1200.339        -935.329
 -10416396.374 9  -8100901.80947  22798000.570    22798002.3254   22798010.1364
      3112.865        2425.609
  -4536057.857 9  -3515796.18148  23118179.371    23118180.2664   23118187.4024
      2793.601        2176.832
 -16357836.998 9 -12730854.95448  20656259.805    20656260.6064   20656267.2384
     -1053.519        -820.924
  15909269.783 9  12476486.04746  23563977.784    23563978.7044   23563987.1604
     -3745.024       -2918.200
  -3076107.083 9  -2379586.03747  23564889.656    23564891.2244   23564898.5824
     -2013.042       -1568.604
 97  4 29 18 28  0.0000000  0  6  2  4  9  7 27 26                   0.000791993
    771923.189 9    778820.83648  21865762.712    21865763.4634   21865770.5524
     -1207.358        -940.798
 -10509680.705 9  -8173590.85947  22780249.247    22780250.8644   22780258.6344
      3106.096        2420.334
  -4619736.541 9  -3581000.32347  23102255.742    23102256.7304   23102263.8524
      2785.031        2170.154
 -16326070.523 9 -12706101.87148  20662304.735    20662305.5364   20662312.1874
     -1064.491        -829.474
  16021725.839 9  12564114.05046  23585377.492    23585378.4824   23585386.9034
     -3752.127       -2923.735
  -3015561.846 9  -2332407.97347  23576411.275    23576412.6544   23576420.0274
     -2023.228       -1576.541
 97  4 29 18 28 30.0000000  0  6  2  4  9  7 27 26                   0.000793221
    808253.451 9    807130.10948  21872676.161    21872676.9234   21872684.0174
     -1214.644        -946.476
 -10602756.196 9  -8246117.17947  22762537.577    22762539.1864   22762546.8204
      3098.692        2414.565
  -4703160.914 9  -3646006.30047  23086380.566    23086381.6014   23086388.7104
      2776.656        2163.628
 -16293973.081 9 -12681090.88848  20668412.728    20668413.4714   20668420.1114
     -1075.230        -837.841
  16134408.477 9  12651918.62746  23606820.059    23606821.2774   23606829.7514
     -3759.862       -2929.763
  -2954703.624 9  -2284986.01347  23587992.109    23587993.5644   23588000.9454
     -2033.916       -1584.870
 97  4 29 18 29  0.0000000  0  6  2  4  9  7 27 26                   0.000794460
    844788.733 9    835599.13348  21879628.619    21879629.3874   21879636.4884
     -1221.092        -951.500
 -10695598.678 9  -8318461.92047  22744870.145    22744871.7834   22744879.4994
      3090.458        2408.149
  -4786331.657 9  -3710814.64348  23070553.672    23070554.7014   23070561.8104
      2767.866        2156.779
 -16261546.654 9 -12655823.55648  20674583.264    20674584.0274   20674590.6634
     -1086.764        -846.829
  16247316.487 9  12739898.81846  23628305.926    23628307.0424   23628315.4144
     -3767.490       -2935.706
  -2893519.635 9  -2237310.21447  23599635.152    23599636.5714   23599643.9374
     -2045.160       -1593.631
